[[{"header":{"parameterUnit":"m.s-1","parameterCategory":1,"la1":30.6,"la2":29.2853,"lo1":-89.7004,"lo2":-87.6739,"dy":0.0162,"dx":0.0183,"nx":112,"ny":82,"refTime":"2024-08-08T18:00:00:Z","depth":0,"parameterNumber":2,"parameterNumberName":"U-component_of_WINDS"},"data":[0.0,0.0,0.0,0.0,0.0,0.0,0.0,0.0,0.0,0.0,0.0,0.0,0.0,0.0,0.0,0.0,0.0,0.0,0.0,0.0,0.0,0.0,0.0,0.0,0.0,0.0,0.0,0.0,0.0,0.0,0.0,0.0,0.0,0.0,0.0,0.0,0.0,0.0,0.0,0.0,0.0,0.0,0.0,0.0,0.0,0.0,0.0,0.0,0.0,0.0,0.0,0.0,0.0,0.0,0.0,0.0,0.0,0.0,0.0,0.0,0.0,0.0,0.0,0.0,0.0,0.0,0.0,0.0,0.0,0.0,0.0,0.0,0.0,0.0,0.0,0.0,0.0,0.0,0.0,0.0,0.0,0.0,0.0,0.0,0.0,0.0,0.0,0.0,0.0,0.0,0.0,-2.2185,-2.5101,-2.6806,-2.6806,-2.6108,-2.4407,-2.1515,0.0,0.0,0.0,0.0,0.0,0.0,0.0,0.0,0.0,0.0,0.0,0.0,0.0,0.0,0.0,0.0,0.0,0.0,0.0,0.0,0.0,0.0,0.0,0.0,0.0,0.0,0.0,0.0,0.0,0.0,0.0,0.0,0.0,0.0,0.0,0.0,0.0,0.0,0.0,0.0,0.0,0.0,0.0,0.0,0.0,0.0,0.0,0.0,0.0,0.0,0.0,0.0,0.0,0.0,0.0,0.0,0.0,0.0,0.0,0.0,0.0,0.0,0.0,0.0,0.0,0.0,0.0,0.0,0.0,0.0,0.0,0.0,0.0,0.0,0.0,0.0,0.0,0.0,0.0,0.0,0.0,0.0,0.0,0.0,0.0,0.0,0.0,0.0,0.0,0.0,0.0,0.0,0.0,0.0,0.0,0.0,0.0,0.0,0.0,0.0,0.0,0.0,0.0,0.0,-1.9174,-2.3882,-2.5836,-2.6806,-2.6806,-2.573,-2.39,-2.1239,0.0,0.0,0.0,0.0,0.0,0.0,0.0,0.0,0.0,0.0,0.0,0.0,0.0,0.0,0.0,0.0,0.0,0.0,0.0,0.0,0.0,0.0,0.0,0.0,0.0,0.0,0.0,0.0,0.0,0.0,0.0,0.0,0.0,0.0,0.0,0.0,0.0,0.0,0.0,0.0,0.0,0.0,0.0,0.0,0.0,0.0,0.0,0.0,0.0,0.0,0.0,0.0,0.0,0.0,0.0,0.0,0.0,0.0,0.0,0.0,0.0,0.0,0.0,0.0,0.0,0.0,0.0,0.0,0.0,0.0,0.0,0.0,0.0,0.0,0.0,0.0,0.0,0.0,0.0,0.0,0.0,0.0,0.0,0.0,0.0,0.0,0.0,0.0,0.0,0.0,0.0,0.0,0.0,0.0,0.0,0.0,0.0,0.0,0.0,0.0,0.0,0.0,0.0,-1.8637,-2.109,-2.4447,-2.601,-2.6634,-2.6297,-2.5415,-2.363,-2.0698,-1.8379,0.0,0.0,0.0,0.0,0.0,0.0,0.0,0.0,0.0,0.0,0.0,0.0,0.0,0.0,0.0,0.0,0.0,0.0,0.0,0.0,0.0,0.0,0.0,0.0,0.0,0.0,0.0,0.0,0.0,0.0,0.0,0.0,0.0,0.0,0.0,0.0,0.0,0.0,0.0,0.0,0.0,0.0,0.0,0.0,0.0,0.0,0.0,0.0,0.0,0.0,0.0,0.0,0.0,0.0,0.0,0.0,0.0,0.0,0.0,0.0,0.0,0.0,0.0,0.0,0.0,0.0,0.0,0.0,0.0,0.0,0.0,0.0,0.0,0.0,0.0,0.0,0.0,0.0,0.0,0.0,0.0,0.0,0.0,0.0,0.0,0.0,0.0,0.0,0.0,0.0,0.0,0.0,0.0,0.0,0.0,0.0,0.0,0.0,0.0,0.0,0.0,0.0,-2.1148,-2.2867,-2.4636,-2.601,-2.6544,-2.5861,-2.4844,-2.3035,-2.0277,-1.7229,0.0,0.0,0.0,0.0,0.0,0.0,0.0,0.0,0.0,0.0,0.0,0.0,0.0,0.0,0.0,0.0,0.0,0.0,0.0,0.0,0.0,0.0,0.0,0.0,0.0,0.0,0.0,0.0,0.0,0.0,0.0,0.0,0.0,0.0,0.0,0.0,0.0,0.0,0.0,0.0,0.0,0.0,0.0,0.0,0.0,0.0,0.0,0.0,0.0,0.0,0.0,0.0,0.0,0.0,0.0,0.0,0.0,0.0,0.0,0.0,0.0,0.0,0.0,0.0,0.0,0.0,0.0,0.0,0.0,0.0,0.0,0.0,0.0,0.0,0.0,0.0,0.0,0.0,0.0,0.0,0.0,0.0,0.0,0.0,0.0,0.0,0.0,0.0,0.0,0.0,0.0,0.0,0.0,0.0,0.0,0.0,0.0,0.0,0.0,0.0,0.0,0.0,-2.0973,-2.336,-2.4747,-2.605,-2.6544,-2.5861,-2.3586,-2.1598,-2.019,-1.6011,0.0,0.0,0.0,0.0,0.0,0.0,0.0,0.0,0.0,0.0,0.0,0.0,0.0,0.0,0.0,0.0,0.0,0.0,0.0,0.0,0.0,0.0,0.0,0.0,0.0,0.0,0.0,0.0,0.0,0.0,0.0,0.0,0.0,0.0,0.0,0.0,0.0,0.0,0.0,0.0,0.0,0.0,0.0,0.0,0.0,0.0,0.0,0.0,0.0,0.0,0.0,0.0,0.0,0.0,0.0,0.0,0.0,0.0,0.0,0.0,0.0,0.0,0.0,0.0,0.0,0.0,0.0,0.0,0.0,0.0,0.0,0.0,0.0,0.0,0.0,0.0,0.0,0.0,0.0,0.0,0.0,0.0,0.0,0.0,0.0,0.0,0.0,0.0,0.0,0.0,0.0,0.0,0.0,0.0,0.0,0.0,0.0,0.0,0.0,0.0,0.0,0.0,-2.0494,-2.2504,0.0,-2.5299,-2.5502,-2.5241,-2.3601,-2.1518,-1.9072,0.0,0.0,0.0,0.0,0.0,0.0,0.0,0.0,0.0,0.0,0.0,0.0,0.0,0.0,0.0,0.0,0.0,0.0,0.0,0.0,0.0,0.0,0.0,0.0,0.0,0.0,0.0,0.0,0.0,0.0,0.0,0.0,0.0,0.0,0.0,0.0,0.0,0.0,0.0,0.0,0.0,0.0,0.0,0.0,0.0,0.0,0.0,0.0,0.0,0.0,0.0,0.0,0.0,0.0,0.0,0.0,0.0,0.0,0.0,0.0,0.0,0.0,0.0,0.0,0.0,0.0,0.0,0.0,0.0,0.0,0.0,0.0,0.0,0.0,0.0,0.0,0.0,0.0,0.0,0.0,0.0,0.0,0.0,0.0,0.0,0.0,0.0,0.0,0.0,0.0,0.0,0.0,0.0,0.0,0.0,0.0,0.0,0.0,0.0,0.0,0.0,0.0,-1.8608,-2.0393,-2.2149,0.0,-2.4747,-2.4791,-2.4588,-2.2997,-2.0924,-1.8357,0.0,0.0,0.0,0.0,0.0,0.0,0.0,0.0,0.0,0.0,0.0,0.0,0.0,0.0,0.0,0.0,0.0,0.0,0.0,0.0,0.0,0.0,0.0,0.0,0.0,0.0,0.0,0.0,0.0,0.0,0.0,0.0,0.0,0.0,0.0,0.0,0.0,0.0,0.0,0.0,0.0,0.0,0.0,0.0,0.0,0.0,0.0,0.0,0.0,0.0,0.0,0.0,0.0,0.0,0.0,0.0,0.0,0.0,0.0,0.0,0.0,0.0,0.0,0.0,0.0,0.0,0.0,0.0,0.0,0.0,0.0,0.0,0.0,0.0,0.0,0.0,0.0,0.0,0.0,0.0,0.0,0.0,0.0,0.0,0.0,0.0,0.0,0.0,0.0,0.0,0.0,0.0,0.0,0.0,0.0,0.0,0.0,0.0,0.0,0.0,0.0,0.0,-1.8608,-2.0785,-2.2468,-2.376,-2.4418,-2.4534,-2.3949,-2.1569,-1.9566,0.0,0.0,0.0,0.0,0.0,0.0,0.0,0.0,0.0,0.0,0.0,0.0,0.0,0.0,0.0,0.0,0.0,0.0,0.0,0.0,0.0,0.0,0.0,0.0,0.0,0.0,0.0,0.0,0.0,0.0,0.0,0.0,0.0,0.0,0.0,0.0,0.0,0.0,0.0,0.0,0.0,0.0,0.0,0.0,0.0,0.0,0.0,0.0,0.0,0.0,0.0,0.0,0.0,0.0,0.0,0.0,0.0,0.0,0.0,0.0,0.0,0.0,0.0,0.0,0.0,0.0,0.0,0.0,0.0,0.0,0.0,0.0,0.0,0.0,0.0,0.0,0.0,0.0,0.0,0.0,0.0,0.0,0.0,0.0,0.0,0.0,0.0,0.0,0.0,0.0,0.0,0.0,0.0,0.0,0.0,0.0,0.0,0.0,0.0,0.0,0.0,0.0,0.0,-1.8608,-2.0378,-2.196,-2.3702,-2.3635,-2.3577,-2.3862,-2.1946,-1.9812,-1.7635,0.0,0.0,0.0,0.0,0.0,0.0,0.0,0.0,0.0,0.0,0.0,0.0,0.0,0.0,0.0,0.0,0.0,0.0,0.0,0.0,0.0,0.0,0.0,0.0,0.0,0.0,0.0,0.0,0.0,0.0,0.0,0.0,0.0,0.0,0.0,0.0,0.0,0.0,0.0,0.0,0.0,0.0,0.0,0.0,0.0,0.0,0.0,0.0,0.0,0.0,0.0,0.0,0.0,0.0,0.0,0.0,0.0,0.0,0.0,0.0,0.0,0.0,0.0,0.0,0.0,0.0,0.0,0.0,0.0,0.0,0.0,0.0,0.0,0.0,0.0,0.0,0.0,0.0,0.0,0.0,0.0,0.0,0.0,0.0,0.0,0.0,0.0,0.0,0.0,0.0,0.0,0.0,0.0,0.0,0.0,0.0,0.0,0.0,0.0,0.0,0.0,0.0,-1.8608,-2.0204,-2.1641,-2.3325,-2.3142,-2.307,-2.3484,-2.196,-2.0132,-1.8085,0.0,0.0,0.0,0.0,0.0,0.0,0.0,0.0,0.0,0.0,0.0,0.0,0.0,0.0,0.0,0.0,0.0,0.0,0.0,0.0,0.0,0.0,0.0,0.0,0.0,0.0,0.0,0.0,0.0,0.0,0.0,0.0,0.0,0.0,0.0,0.0,0.0,0.0,0.0,0.0,0.0,0.0,0.0,0.0,0.0,0.0,0.0,0.0,0.0,0.0,0.0,0.0,0.0,0.0,0.0,0.0,0.0,0.0,0.0,0.0,0.0,0.0,0.0,0.0,0.0,0.0,0.0,0.0,0.0,0.0,0.0,0.0,0.0,0.0,0.0,0.0,0.0,0.0,0.0,0.0,0.0,0.0,0.0,0.0,0.0,0.0,0.0,0.0,0.0,0.0,0.0,0.0,0.0,0.0,0.0,0.0,0.0,0.0,0.0,0.0,0.0,0.0,-1.8622,-2.0204,-2.1496,-2.2757,-2.2888,-2.2888,-2.2888,-2.1721,-2.0451,-1.9174,0.0,0.0,0.0,0.0,0.0,0.0,0.0,0.0,0.0,0.0,0.0,0.0,0.0,0.0,0.0,0.0,0.0,0.0,0.0,0.0,0.0,0.0,0.0,0.0,0.0,0.0,0.0,0.0,0.0,0.0,0.0,0.0,0.0,0.0,0.0,0.0,0.0,0.0,0.0,0.0,0.0,0.0,0.0,0.0,0.0,0.0,0.0,0.0,0.0,0.0,0.0,0.0,0.0,0.0,0.0,0.0,0.0,0.0,0.0,0.0,-1.8278,0.0,0.0,0.0,0.0,0.0,0.0,0.0,0.0,0.0,0.0,0.0,0.0,0.0,0.0,0.0,0.0,0.0,0.0,0.0,0.0,0.0,0.0,0.0,0.0,0.0,0.0,0.0,0.0,0.0,0.0,0.0,0.0,0.0,0.0,0.0,0.0,0.0,0.0,0.0,0.0,0.0,-1.8666,-2.0204,-2.1496,-2.2757,-2.2888,-2.2888,-2.2888,-2.1721,-2.0451,-1.9174,-1.7026,0.0,0.0,0.0,0.0,0.0,0.0,0.0,0.0,0.0,0.0,0.0,0.0,0.0,0.0,0.0,0.0,0.0,0.0,0.0,0.0,0.0,0.0,0.0,0.0,0.0,0.0,0.0,0.0,0.0,0.0,0.0,0.0,0.0,0.0,0.0,0.0,0.0,0.0,0.0,0.0,0.0,0.0,0.0,0.0,0.0,0.0,0.0,0.0,0.0,0.0,0.0,0.0,0.0,0.0,0.0,0.0,0.0,0.0,0.0,0.0,-2.0383,0.0,0.0,0.0,0.0,0.0,0.0,0.0,0.0,0.0,0.0,0.0,0.0,0.0,0.0,0.0,0.0,0.0,0.0,0.0,0.0,0.0,0.0,0.0,0.0,0.0,0.0,0.0,0.0,0.0,0.0,0.0,0.0,0.0,0.0,0.0,0.0,0.0,0.0,0.0,0.0,-1.9174,-2.0683,-2.1859,-2.2786,-2.2888,-2.2888,-2.2888,-2.2026,-2.1061,-2.0074,-1.8216,0.0,0.0,0.0,0.0,0.0,0.0,0.0,0.0,0.0,0.0,0.0,0.0,0.0,0.0,0.0,0.0,0.0,0.0,0.0,0.0,0.0,0.0,0.0,0.0,0.0,0.0,0.0,0.0,0.0,0.0,0.0,0.0,0.0,0.0,0.0,0.0,0.0,0.0,0.0,0.0,0.0,0.0,0.0,0.0,0.0,0.0,0.0,0.0,0.0,0.0,0.0,0.0,0.0,-2.4295,-2.4688,-2.5135,-2.5225,-2.5562,-2.6038,-2.4976,-2.4643,-2.4702,-2.284,0.0,0.0,0.0,0.0,0.0,0.0,0.0,0.0,0.0,0.0,0.0,0.0,0.0,0.0,0.0,0.0,0.0,0.0,0.0,0.0,0.0,0.0,0.0,0.0,-2.3179,-2.2432,-1.8889,0.0,0.0,0.0,0.0,0.0,0.0,0.0,0.0,0.0,0.0,0.0,-1.974,-2.1206,-2.2236,-2.283,-2.2888,-2.2888,-2.2888,-2.2345,-2.1699,-2.1032,-1.9449,-1.794,0.0,0.0,0.0,0.0,0.0,0.0,0.0,0.0,0.0,0.0,0.0,0.0,0.0,0.0,0.0,0.0,0.0,0.0,0.0,0.0,0.0,0.0,0.0,0.0,0.0,0.0,0.0,0.0,0.0,0.0,0.0,0.0,-1.3756,-1.4641,0.0,0.0,0.0,0.0,0.0,0.0,0.0,0.0,0.0,0.0,0.0,0.0,0.0,-2.2743,-2.3768,-2.5308,-2.6181,-2.6387,-2.7943,-2.8448,-2.8056,-2.8524,-2.8797,-2.8884,-2.9231,0.0,-2.6129,-2.4822,0.0,0.0,0.0,0.0,0.0,0.0,0.0,0.0,0.0,0.0,0.0,0.0,0.0,0.0,0.0,0.0,0.0,0.0,0.0,0.0,0.0,0.0,-2.4786,-2.395,-2.4223,-2.436,0.0,-2.0918,-1.8972,-1.8566,-1.6326,0.0,0.0,0.0,0.0,0.0,0.0,0.0,-1.9899,-2.1206,-2.2236,-2.283,-2.2888,-2.2888,-2.2888,-2.2345,-2.1699,-2.1032,-2.0277,-1.9275,-1.7998,-1.6733,0.0,0.0,0.0,0.0,0.0,0.0,0.0,0.0,0.0,0.0,0.0,0.0,0.0,0.0,0.0,0.0,0.0,0.0,0.0,0.0,0.0,0.0,0.0,0.0,0.0,0.0,0.0,0.0,0.0,-1.4428,-1.6383,-1.6156,-1.6856,-1.6849,0.0,0.0,0.0,0.0,0.0,0.0,0.0,0.0,0.0,-2.3879,-2.4655,-2.5719,-2.7108,-2.7922,-2.8492,-2.8812,-2.9631,-2.9862,-2.9618,-2.9857,-2.9956,-2.9989,-3.0224,-3.0046,-2.9377,-2.7373,-2.6066,-2.5253,0.0,0.0,0.0,0.0,-2.5124,-2.5029,-2.6504,-2.6514,-2.5789,-2.5133,0.0,0.0,0.0,0.0,0.0,0.0,0.0,0.0,0.0,0.0,-2.6023,-2.6021,-2.5995,-2.5905,-2.5575,-2.417,-2.2527,0.0,-1.9997,-1.8819,-1.725,0.0,0.0,0.0,0.0,-1.9725,-2.1003,-2.1939,-2.262,-2.2859,-2.2888,-2.2888,-2.2888,-2.2664,-2.2091,-2.1061,-2.0741,-2.003,-1.8767,-1.7824,-1.6878,0.0,0.0,0.0,0.0,0.0,0.0,0.0,0.0,0.0,0.0,0.0,0.0,0.0,0.0,0.0,0.0,0.0,0.0,0.0,0.0,0.0,0.0,0.0,0.0,0.0,0.0,0.0,0.0,-1.6636,-1.8536,-1.7579,-1.8665,-1.8815,0.0,0.0,0.0,0.0,0.0,0.0,-2.2481,-2.3838,-2.5261,-2.6755,-2.742,-2.8451,-2.9964,-2.9977,-3.0242,-3.0866,-3.0866,-3.0901,-3.0992,-3.0992,-3.1047,-3.1151,-3.1151,-3.1519,-3.1968,-2.9726,-2.85,-2.8022,-2.7808,-2.7659,-2.7743,-2.8581,-2.8584,-2.8379,-2.9911,-2.999,-2.921,-2.814,-2.7111,-2.5792,-2.3281,0.0,0.0,0.0,0.0,-2.5073,-2.7052,-2.7221,-2.7037,-2.7792,-2.749,-2.7026,-2.7026,-2.6504,-2.5454,0.0,-2.3161,-2.2527,-2.0093,0.0,0.0,0.0,0.0,-2.1351,-2.2135,-2.2765,-2.3099,-2.2917,-2.2888,-2.2888,-2.2888,-2.2888,-2.2359,-2.1075,-2.1003,-2.0422,-1.9159,-1.868,-1.8129,-1.7475,0.0,0.0,0.0,0.0,0.0,0.0,0.0,0.0,0.0,0.0,0.0,0.0,0.0,0.0,0.0,0.0,0.0,0.0,0.0,0.0,0.0,0.0,0.0,0.0,0.0,0.0,0.0,0.0,0.0,-1.8835,-2.0714,0.0,0.0,0.0,0.0,-2.1233,-2.3363,-2.4978,-2.5629,-2.7352,-2.8627,-2.9312,-2.9903,-3.054,-3.1192,-3.1205,-3.1504,-3.2123,-3.2123,-3.229,-3.2571,-3.2571,-3.2784,-3.315,-3.315,-3.302,-3.2754,-3.1478,-3.1368,-3.1949,-3.1466,-3.1114,-3.0968,-3.1024,-3.1009,-3.0993,-3.1103,-3.0701,-3.029,-3.1078,-3.0098,-2.8495,-2.7674,-2.6509,0.0,0.0,-2.7026,-2.7273,-2.8341,-2.8593,-2.8578,-2.8651,-2.8144,-2.7652,-2.7652,-2.7186,-2.653,0.0,-2.467,-2.3813,-2.363,0.0,-2.2656,-2.2656,-2.3244,-2.3499,-2.2939,-2.3432,-2.3615,-2.2983,-2.2888,-2.2888,-2.2888,-2.2888,-2.2359,-2.1075,-2.1003,-2.0422,-1.9159,-1.9072,-1.8782,-1.8154,-1.6226,0.0,0.0,0.0,0.0,0.0,0.0,0.0,0.0,0.0,0.0,0.0,0.0,0.0,0.0,0.0,0.0,0.0,0.0,0.0,0.0,0.0,0.0,0.0,0.0,0.0,0.0,0.0,0.0,-2.1118,-2.316,0.0,-2.2373,-2.3675,-2.4693,-2.4855,-2.6402,-2.7569,-2.8166,-2.955,-3.0432,-3.0635,-3.1232,-3.1653,-3.187,-3.187,-3.2001,-3.2218,-3.2218,-3.2277,-3.2372,-3.2372,-3.2574,-3.2917,-3.2917,-3.3108,-3.3434,-3.3011,-3.2666,-3.251,-3.3257,-3.3126,-3.257,-3.3163,-3.3206,-3.288,-3.2447,-3.2139,-3.1808,-3.1016,-2.9839,-2.8687,-2.8451,-2.8027,-2.7797,-2.8513,-2.8734,-2.8924,-2.974,-2.9595,-2.929,-2.929,-2.8811,-2.8231,-2.7782,-2.7521,-2.72,-2.6562,-2.5745,-2.4979,-2.4549,-2.4288,-2.3998,-2.3615,-2.407,-2.4389,-2.4134,-2.4331,-2.423,-2.3615,-2.3543,-2.336,-2.2931,-2.2533,-2.1946,-2.1061,-2.064,-2.0016,-1.9145,-1.9101,-1.8999,-1.8782,-1.7722,-1.6078,0.0,0.0,0.0,0.0,0.0,0.0,0.0,0.0,0.0,0.0,0.0,0.0,0.0,0.0,0.0,0.0,0.0,0.0,0.0,0.0,0.0,0.0,0.0,0.0,0.0,0.0,-2.3381,-2.3213,-2.5154,-2.6117,-2.5099,-2.6294,-2.7271,-2.7691,-2.8831,-2.9672,-3.01,-3.1042,-3.1585,-3.1585,-3.2001,-3.2218,-3.2218,-3.2218,-3.2218,-3.2218,-3.2218,-3.2314,-3.2552,-3.2552,-3.2824,-3.3269,-3.3269,-3.3563,-3.4025,-3.4201,-3.3825,-3.3281,-3.4592,-3.482,-3.4439,-3.4845,-3.4768,-3.4423,-3.3925,-3.3534,-3.3016,-3.1653,-3.0511,-2.9595,-2.9406,-2.9348,-2.9435,-2.9827,-2.9943,-3.0045,-3.0496,-3.0263,-2.9943,-2.9943,-2.9464,-2.8884,-2.8435,-2.8,-2.7579,-2.7186,-2.6576,-2.5995,-2.556,-2.5462,-2.5357,-2.4936,-2.5226,-2.539,-2.5158,-2.5129,-2.4834,-2.3978,-2.3891,-2.363,-2.2946,-2.2345,-2.1699,-2.1032,-2.0436,-1.9798,-1.913,-1.9101,-1.9101,-1.9101,-1.8288,-1.6742,-1.4456,0.0,0.0,0.0,0.0,0.0,0.0,0.0,0.0,0.0,0.0,0.0,0.0,0.0,0.0,0.0,0.0,0.0,0.0,0.0,0.0,0.0,0.0,0.0,-2.1024,-2.3206,-2.4872,-2.5102,-2.6714,-2.7596,-2.6996,-2.8532,-2.9597,-2.9597,-3.0649,-3.1327,-3.1327,-3.187,-3.2218,-3.2218,-3.2218,-3.2218,-3.2218,-3.2218,-3.2218,-3.2218,-3.2218,-3.2588,-3.3269,-3.3269,-3.3667,-3.438,-3.438,-3.438,-3.4448,-3.4953,-3.4887,-3.4534,-3.5512,-3.618,-3.6538,-3.595,-3.5686,-3.5638,-3.5448,-3.4736,-3.3818,-3.3195,-3.2318,-3.1395,-3.0801,-3.0598,-3.0598,-3.0598,-3.0598,-3.0598,-3.0598,-3.0598,-3.0598,-3.0598,-3.0103,-2.9624,-2.9595,-2.8623,-2.7753,-2.771,-2.7229,-2.6835,-2.6806,-2.6806,-2.6806,-2.6806,-2.6806,0.0,-2.5919,-2.5847,-2.5367,-2.408,-2.3934,-2.3659,-2.2975,-2.2345,-2.1699,-2.1032,-2.0436,-1.9812,-1.9159,-1.913,-1.913,-1.913,-1.7911,-1.6604,-1.5285,0.0,0.0,0.0,0.0,0.0,0.0,0.0,0.0,0.0,0.0,0.0,0.0,0.0,0.0,0.0,0.0,0.0,0.0,0.0,0.0,0.0,0.0,-2.3851,-2.3851,-2.561,-2.7053,-2.7542,-2.9211,-3.0242,-3.0079,-3.0893,-3.1471,-3.1471,-3.1784,-3.1938,-3.1938,-3.2123,-3.2218,-3.2218,-3.2218,-3.2218,-3.2218,-3.2218,-3.2218,-3.2218,-3.2218,-3.2444,-3.2846,-3.2846,-3.3269,-3.3942,-3.3942,-3.4128,-3.4414,-3.4568,-3.4754,-3.5037,-3.5672,-3.5544,-3.5088,-3.5636,-3.5569,-3.5187,-3.5124,-3.4621,-3.3863,-3.3209,-3.2586,-3.1944,-3.1309,-3.0866,-3.0598,-3.0598,-3.0598,-3.0598,-3.0598,-3.0598,-3.0598,-3.0598,-3.0467,-3.019,-2.9697,-2.932,-2.8797,-2.7884,-2.7565,-2.7316,-2.6866,-2.6806,-2.6806,-2.6806,-2.6806,0.0,-2.6559,-2.6544,-2.621,-2.5382,-2.4849,-2.4302,-2.3688,-2.2628,-2.1699,-2.1032,-2.0436,-2.0016,-1.9827,-1.9827,-1.9827,-1.9827,-1.8999,-1.8097,0.0,0.0,0.0,0.0,0.0,0.0,0.0,0.0,0.0,0.0,0.0,0.0,0.0,0.0,0.0,0.0,0.0,0.0,0.0,0.0,0.0,0.0,-2.4531,-2.6402,-2.7162,-2.7949,-2.8763,-2.9618,-3.0649,-3.1395,-3.1639,-3.2001,-3.2218,-3.2218,-3.2218,-3.2218,-3.2218,-3.2218,-3.2218,-3.2218,-3.2218,-3.2218,-3.2218,-3.2336,-3.2408,-3.2408,-3.2588,-3.2824,-3.3164,-3.3164,-3.3479,-3.4059,-3.4059,-3.4162,-3.4414,-3.4414,-3.4568,0.0,0.0,0.0,0.0,0.0,-3.5527,-3.5413,-3.563,-3.5447,-3.4972,-3.412,-3.3517,-3.2896,-3.1721,-3.1171,-3.0916,-3.067,-3.0598,-3.0598,-3.0598,-3.0598,-3.0598,-3.0598,-3.0598,-3.0496,-3.0103,-2.9813,-2.9378,-2.8638,-2.8072,0.0,-2.7244,-2.6968,-2.6806,-2.6806,-2.6806,-2.6806,-2.6806,-2.6806,-2.6559,-2.5876,-2.5458,-2.4863,-2.3963,-2.2962,0.0,0.0,0.0,-2.048,-2.048,-2.048,0.0,0.0,0.0,0.0,0.0,0.0,0.0,0.0,-1.7557,-1.7435,0.0,0.0,0.0,0.0,0.0,0.0,0.0,0.0,0.0,0.0,0.0,0.0,0.0,0.0,0.0,0.0,-2.7135,-2.86,-3.0283,-3.0093,-3.0195,-3.1165,-3.1355,-3.1599,-3.2164,-3.2218,-3.2218,-3.2218,-3.2218,-3.2218,-3.2218,0.0,0.0,0.0,0.0,-3.2218,-3.2241,-3.2538,-3.2739,-3.2775,-3.3129,-3.3479,-3.3805,-3.3805,-3.4025,-3.4414,-3.4414,-3.4414,-3.4414,-3.4414,-3.4414,-3.4448,-3.492,-3.5169,-3.5267,-3.5267,-3.5608,-3.6149,-3.6616,0.0,0.0,-3.5493,-3.474,-3.3951,-3.2214,-3.1573,-3.138,-3.0786,-3.0598,-3.0598,-3.0598,-3.0598,-3.0598,-3.0598,-3.0598,-3.0598,-3.0598,-3.0132,-2.9682,-2.961,-2.8623,-2.7782,-2.771,-2.72,-2.6806,-2.6806,-2.6806,-2.6806,-2.6806,-2.6806,-2.6573,-2.5992,0.0,0.0,-2.4196,-2.349,-2.2867,-2.2251,-2.1656,-2.1322,-2.1322,-2.1394,-2.1394,-2.1322,-2.1975,-2.2341,-2.24,-2.2997,-2.337,-2.3397,-2.011,-1.9167,0.0,0.0,0.0,0.0,0.0,0.0,0.0,0.0,0.0,0.0,0.0,0.0,0.0,0.0,0.0,-2.6503,-2.8465,-3.0174,-3.1015,-3.1422,-3.1558,-3.1327,-3.1721,-3.2083,-3.2205,-3.2218,-3.2218,-3.2218,-3.2218,-3.2218,-3.2218,-3.2218,-3.2218,-3.2218,-3.2218,-3.2336,-3.2596,-3.2668,-3.2846,-3.3164,0.0,0.0,-3.3805,-3.3805,-3.4025,-3.4414,-3.4414,-3.4414,-3.4414,-3.4414,-3.4414,-3.4414,-3.4501,-3.5037,-3.5753,-3.5753,-3.6368,-3.7225,-3.7315,-3.7345,-3.7205,-3.6393,-3.555,-3.4591,-3.3125,-3.2138,0.0,-3.0786,-3.0598,-3.0598,-3.0598,-3.0598,-3.0598,-3.0598,-3.0598,-3.0598,-3.0598,-3.051,-3.0248,-2.9697,-2.9015,-2.8332,-2.7782,-2.72,-2.6806,-2.6806,-2.6806,-2.6806,-2.6806,-2.6806,-2.6736,-2.6631,-2.6137,-2.5716,-2.5469,-2.481,-2.4172,-2.3557,-2.3397,-2.3339,-2.3339,-2.3818,-2.3824,-2.3339,-2.394,-2.4023,-2.3562,-2.4173,-2.4519,-2.4544,-2.2495,-2.1904,0.0,0.0,0.0,0.0,0.0,0.0,0.0,0.0,0.0,0.0,0.0,-2.3811,0.0,0.0,-2.7886,-2.8891,-3.0066,-3.1056,-3.1653,-3.2028,-3.211,-3.1775,-3.2042,-3.2218,-3.2218,-3.2218,-3.2218,-3.2218,-3.2218,-3.2218,-3.2218,-3.2218,-3.2218,-3.2218,-3.2686,-3.2854,-3.2704,-3.3401,-3.3684,-3.3563,-3.3736,-3.3942,-3.4094,-3.4094,-3.4196,-3.4414,-3.4414,-3.4414,-3.4414,-3.4414,-3.4414,-3.4414,-3.4702,-3.5103,-3.5576,-3.5817,-3.6414,-3.7105,-3.7105,-3.7285,-3.7387,-3.6758,-3.6227,-3.5631,-3.4394,-3.3397,-3.2524,-3.1676,-3.1205,-3.0896,-3.0657,-3.0598,-3.0598,-3.0598,-3.0598,-3.0598,-3.0598,-3.0598,-3.051,-3.0161,-2.9595,-2.8956,-2.8318,-2.7679,-2.7157,-2.6837,-2.6806,-2.6806,-2.6806,-2.6806,-2.6806,-2.6806,-2.6515,-2.6141,-2.5847,-2.5172,-2.4679,-2.4413,-2.4384,-2.4384,-2.4331,-2.4665,-2.4718,-2.4399,-2.4994,-2.5154,-2.4859,-2.5487,-2.5813,-2.5814,-2.4679,-2.3984,0.0,0.0,0.0,0.0,0.0,0.0,0.0,0.0,-2.2203,-2.4235,-2.5564,-2.6693,-2.7835,-2.8641,-2.9591,-3.1056,-3.1395,-3.1626,-3.2151,-3.2218,-3.2218,-3.2218,-3.2218,-3.2218,-3.2218,-3.2218,-3.2218,-3.2218,-3.2218,-3.2218,-3.2218,-3.24,-3.2491,-3.2491,-3.3468,-3.3756,-3.3314,-3.4427,-3.4689,-3.4129,-3.4452,-3.453,-3.4414,-3.4414,-3.4414,-3.4414,-3.4414,-3.4414,-3.4414,-3.4414,-3.4414,-3.4467,-3.5103,-3.5332,-3.5382,-3.5896,-3.6383,-3.6846,-3.6846,-3.7135,-3.7421,-3.6998,-3.6785,-3.6492,-3.5355,-3.4486,-3.3668,-3.2496,-3.1723,-3.119,-3.0717,-3.0598,-3.0598,-3.0598,-3.0598,-3.0598,-3.0598,-3.0598,-3.0598,-3.0598,-3.006,-2.9436,-2.8956,-2.8332,-2.7665,-2.6895,-2.6806,-2.6806,-2.6806,-2.6806,-2.6806,-2.6806,-2.6806,-2.6588,-2.605,-2.5517,-2.5201,-2.5255,-2.5255,-2.5241,-2.5187,-2.5241,-2.5255,-2.5255,-2.5759,-2.6006,-2.6006,-2.6544,-2.6806,-2.6779,-2.6179,-2.5439,-1.9208,-2.0239,0.0,-2.1378,-2.1477,-2.2464,0.0,0.0,-2.5826,-2.7659,-2.8583,-2.91,-2.9271,-3.0215,-3.1056,-3.126,-3.1734,-3.2137,-3.2205,-3.2218,-3.2218,-3.2218,-3.2218,-3.2218,-3.2218,-3.2218,-3.2218,-3.2218,-3.2218,-3.2218,-3.2218,-3.3038,-3.3509,-3.3509,-3.451,-3.5173,-3.543,-3.5611,-3.554,-3.5221,-3.5256,-3.5,-3.4414,-3.4414,-3.4414,-3.4414,-3.4414,-3.4414,-3.4414,-3.4414,-3.4414,-3.4501,-3.5447,-3.5817,-3.5896,-3.6414,-3.6938,-3.7405,-3.7405,-3.745,-3.748,-3.7421,-3.7089,-3.6492,-3.5355,-3.4486,-3.3578,-3.2025,-3.1455,-3.119,-3.0717,-3.0598,-3.0598,-3.0598,-3.0598,-3.0598,-3.0598,-3.0598,-3.0598,-3.0598,-3.006,-2.9581,-2.9494,-2.9,-2.8186,-2.6994,-2.6806,-2.6806,-2.6806,-2.6806,-2.6806,-2.6806,-2.6806,-2.6777,-2.6678,-2.6631,-2.6562,-2.6602,-2.6602,-2.6562,-2.6562,-2.6562,-2.6602,-2.6602,-2.6634,-2.6704,-2.6704,-2.675,-2.6806,-2.6779,-2.6179,-2.6105,-2.1678,0.0,0.0,0.0,-2.4751,-2.5802,-2.7777,-2.7827,-2.7976,-2.9794,-3.0364,-3.0635,-3.1023,-3.1499,-3.1802,0.0,-3.2055,-3.2218,-3.2218,-3.2218,-3.2218,-3.2218,-3.2218,-3.2218,-3.2218,-3.2218,-3.2218,-3.2218,-3.2218,-3.2477,-3.3038,-3.3468,-3.3956,-3.4538,-3.5534,-3.6,-3.579,-3.6381,-3.6418,-3.5909,-3.5909,-3.5575,-3.4965,-3.4965,-3.4762,-3.4414,-3.4414,-3.4414,-3.4414,-3.4414,-3.4568,-3.4953,-3.564,-3.6086,-3.6414,-3.6968,-3.7315,-3.751,-3.751,-3.751,-3.751,-3.751,-3.7345,-3.7072,-3.6595,-3.5485,-3.4161,-3.3231,-3.2154,-3.119,-3.0717,-3.0598,-3.0598,-3.0598,-3.0598,-3.0598,-3.0598,-3.0598,-3.0598,-3.0598,-3.0364,-3.006,-2.9653,-2.9406,-2.8913,-2.8055,-2.7563,-2.72,-2.6837,-2.6806,-2.6806,-2.6806,-2.6806,-2.6806,-2.6806,-2.6806,-2.6806,-2.6806,-2.6806,-2.6806,-2.6806,-2.6806,-2.6806,-2.6806,-2.6806,-2.6806,-2.6806,-2.6806,-2.6968,-2.7304,-2.7074,-2.7285,-2.3263,0.0,0.0,-2.6208,-2.7268,-2.8397,-2.9157,-2.9432,-2.9874,-3.1268,-3.1501,-3.1586,-3.2,-3.201,0.0,-3.2068,-3.2146,-3.2218,-3.2218,-3.2277,-3.2314,-3.2218,-3.2386,-3.2422,-3.2218,-3.2218,-3.2241,-3.2336,-3.25,-3.2969,-3.3798,-3.4292,-3.4854,-3.56,-3.6582,-3.6882,-3.6452,-3.717,-3.723,-3.6591,-3.6591,-3.6243,-3.5654,-3.5479,-3.5009,-3.4414,-3.4414,-3.4414,-3.4414,-3.4414,-3.4635,-3.5037,-3.5672,-3.6149,-3.6554,-3.7255,-3.751,-3.751,-3.751,-3.751,-3.751,-3.751,-3.751,-3.748,-3.7315,-3.6148,-3.4734,-3.3999,-3.269,-3.1336,-3.0747,-3.0598,-3.0598,-3.0598,-3.0598,-3.0598,-3.0598,-3.0598,-3.0598,-3.0598,-3.0598,-3.0467,-2.9972,-2.9885,-2.9668,-2.9029,-2.8522,-2.7927,-2.7142,-2.6895,-2.6806,-2.6806,-2.6806,-2.6806,-2.6806,-2.6806,-2.6806,-2.6806,-2.6806,-2.6806,-2.6806,-2.6806,-2.6806,-2.6806,-2.6806,-2.6806,-2.6806,-2.6968,-2.7273,-2.7695,-2.7884,-2.8197,0.0,0.0,-2.7639,-2.7335,-2.8351,-2.9774,-3.0934,-3.1459,-3.1812,-3.2128,-3.1952,-3.1785,-3.1805,-3.1561,-3.142,-3.177,-3.2017,-3.2218,-3.2218,-3.2467,-3.2561,-3.2241,-3.2824,-3.3002,0.0,-3.2218,-3.2336,-3.2668,-3.327,-3.3798,-3.4161,-3.5742,-3.6633,-3.6648,-3.7653,-3.8159,-3.8144,-3.8159,-3.7883,-3.7273,-3.7273,-3.6925,-3.6257,-3.5683,-3.5009,-3.4414,-3.4414,-3.4414,-3.4414,-3.4414,-3.4414,-3.4501,-3.5512,-3.5913,-3.6039,-3.7119,-3.751,-3.751,-3.751,-3.751,-3.751,-3.751,-3.751,-3.7405,-3.6877,-3.6089,-3.508,-3.3713,-3.2631,-3.168,-3.0836,-3.0598,-3.0598,-3.0598,-3.0598,-3.0598,-3.0598,-3.0598,-3.0598,-3.0598,-3.0598,-3.0598,-3.0583,-3.0583,-3.0321,-2.9653,-2.9552,-2.9087,-2.784,-2.7157,-2.6806,-2.6806,-2.6806,-2.6806,-2.6806,-2.6806,-2.6806,-2.6806,-2.6806,-2.6806,-2.6806,-2.6806,-2.6806,-2.6806,-2.6806,-2.6806,-2.6806,-2.7376,-2.7681,-2.7724,-2.8361,-2.8641,0.0,0.0,-2.974,-3.0006,-3.0769,-3.1644,-3.243,-3.2506,-3.238,-3.2291,-3.1661,-3.1088,-3.0887,-3.0799,-3.089,-3.1428,-3.1944,-3.2437,-3.2875,-3.3037,-3.3058,-3.2931,-3.3129,0.0,0.0,0.0,0.0,-3.2704,-3.3523,-3.4379,-3.5216,-3.6196,-3.7026,-3.7667,-3.8011,-3.8202,-3.8202,-3.8202,-3.8101,-3.7897,-3.7491,-3.7186,-3.6939,-3.5886,-3.5276,-3.5058,-3.4588,-3.4414,-3.4414,-3.4414,-3.4787,-3.5415,-3.5753,-3.6337,-3.7029,-3.7375,-3.751,-3.751,-3.751,-3.751,-3.751,-3.751,-3.751,-3.748,-3.7285,-3.6462,-3.5412,-3.4478,-3.3228,-3.1989,-3.125,-3.0836,-3.0598,-3.0598,-3.0598,-3.0598,-3.0598,-3.0598,-3.0598,-3.0598,-3.0598,-3.0598,-3.0598,-3.0598,-3.0364,-2.9697,-2.9261,-2.8695,-2.7811,-2.7507,-2.7244,-2.6849,-2.6806,-2.6806,-2.6806,-2.6806,-2.6806,-2.6806,-2.6806,-2.6806,-2.6806,-2.6806,-2.6806,-2.6806,-2.6806,-2.6806,-2.6806,-2.7391,-2.7913,-2.8376,-2.9015,-2.9287,0.0,-3.009,-3.11,-3.1819,-3.2365,-3.2812,-3.322,-3.3031,-3.2569,-3.1764,-3.0858,-3.0057,-2.9662,-2.9487,-2.9806,-3.1035,-3.1659,-3.228,-3.3192,-3.3409,-3.3494,-3.3614,-3.3889,-3.4009,0.0,0.0,0.0,-3.3157,-3.4361,-3.5344,-3.5956,-3.6798,-3.7543,-3.8188,-3.8202,-3.8202,-3.8202,-3.8202,-3.8202,-3.8202,-3.781,-3.752,-3.7273,-3.6185,-3.561,-3.5363,-3.469,-3.4414,-3.4414,-3.4414,-3.4887,-3.5672,-3.5817,-3.6445,-3.7225,-3.7421,-3.751,-3.751,-3.751,-3.751,-3.751,-3.751,-3.751,-3.751,-3.751,-3.6782,-3.5767,-3.492,-3.3776,-3.2583,-3.1573,-3.1087,-3.0807,-3.0628,-3.0598,-3.0598,-3.0598,-3.0598,-3.0598,-3.0598,-3.0598,-3.0598,-3.0598,-3.0598,-3.0467,-3.0031,-2.9624,-2.9044,-2.8173,-2.8071,-2.7824,-2.7186,-2.7128,-2.7026,-2.6835,-2.6806,-2.6806,-2.6806,-2.6806,-2.6806,-2.6806,-2.6806,-2.6806,-2.6806,-2.7012,-2.7128,-2.7128,-2.7956,-2.858,-2.9029,-2.9668,-2.9967,-3.0086,-3.0939,-3.1867,-3.2753,-3.3158,-3.3339,-3.3332,-3.3044,-3.2307,-3.0674,-2.9565,-2.8711,0.0,0.0,-2.8285,-3.0534,-3.1207,-3.1898,-3.317,-3.366,-3.3972,0.0,0.0,0.0,0.0,0.0,0.0,-3.406,0.0,-3.6618,-3.6352,-3.7535,-3.8202,-3.8202,-3.8202,-3.8202,-3.8202,-3.8202,-3.8202,-3.8202,-3.8202,-3.7883,-3.7288,-3.662,-3.5967,-3.5363,-3.469,-3.4414,-3.4414,-3.4414,-3.4735,-3.5267,-3.5721,-3.6243,-3.6816,-3.7315,-3.751,-3.751,-3.751,-3.751,-3.751,-3.751,-3.751,-3.751,-3.751,-3.7006,-3.6211,-3.5052,-3.4255,-3.3378,-3.1776,-3.1336,-3.119,-3.0747,-3.0612,-3.0598,-3.0598,-3.0598,-3.0598,-3.0598,-3.0598,-3.0598,-3.0598,-3.0598,-3.0598,-3.0598,-3.0598,-3.0162,-2.8912,-2.8767,-2.8477,-2.7811,-2.7753,-2.7507,-2.6939,-2.6907,-2.6907,-2.6907,-2.6907,-2.6907,-2.6907,-2.6907,-2.6907,-2.6907,-2.7476,-2.7753,-2.7753,-2.9,-2.9595,-2.961,-3.0277,-3.0598,-3.1886,-3.2991,-3.3728,-3.3946,-3.4081,-3.3998,-3.3537,-3.2442,-3.1088,-2.9726,-2.7901,-2.6312,-2.5433,0.0,0.0,-2.9059,-3.0933,0.0,-3.3955,-3.4634,0.0,0.0,0.0,-3.6056,-3.6036,-3.6657,0.0,0.0,-3.6577,-3.7105,-3.7056,-3.7781,-3.8202,-3.8202,-3.8202,-3.8202,-3.8202,-3.8202,-3.8202,-3.8202,-3.8202,-3.7883,-3.7288,-3.662,-3.5967,-3.5363,-3.469,-3.4414,-3.4414,-3.4414,-3.4905,-3.5721,-3.5849,-3.6476,-3.7315,-3.745,-3.751,-3.751,-3.751,-3.751,-3.751,-3.751,-3.751,-3.751,-3.751,-3.7354,-3.6929,-3.5597,-3.487,-3.412,-3.2662,-3.1809,-3.1278,-3.1161,-3.0836,-3.0598,-3.0598,-3.0598,-3.0598,-3.0598,-3.0598,-3.0598,-3.0598,-3.0598,-3.0598,-3.0598,-3.0598,-3.0307,-2.9493,-2.9377,-2.9145,-2.8507,-2.8448,-2.8361,-2.8244,-2.8229,-2.8229,-2.8229,-2.8229,-2.8229,-2.8229,-2.8229,-2.8229,-2.8229,-2.8361,-2.8448,-2.8448,-2.9204,-2.9595,-2.961,-3.0277,-3.0598,-3.2954,-3.3842,-3.4414,-3.4414,-3.4196,-3.3707,-3.266,-3.1253,-2.9595,-2.758,-2.5928,0.0,0.0,0.0,0.0,0.0,0.0,0.0,-3.4153,-3.5,-3.5508,0.0,-3.6344,0.0,-3.7114,-3.7476,-3.7549,0.0,-3.7491,-3.7593,-3.7317,-3.7883,-3.8202,-3.8202,-3.8202,-3.8202,-3.8202,-3.8202,-3.8202,-3.8202,-3.8202,-3.8028,-3.7665,-3.6736,-3.6112,-3.572,0.0,-3.4414,-3.4414,-3.4414,-3.4971,-3.5913,-3.5913,-3.6569,-3.751,-3.751,-3.751,-3.751,-3.751,-3.751,-3.751,-3.751,-3.751,-3.751,-3.751,-3.751,-3.7288,-3.6153,-3.5446,-3.4701,-3.3429,-3.2474,-3.1781,-3.1394,-3.1102,-3.0836,-3.0628,-3.0598,-3.0598,-3.0598,-3.0598,-3.0598,-3.0598,-3.0598,-3.0598,-3.0598,-3.0598,-3.0467,-3.0089,-3.0045,-2.9798,-2.916,-2.9087,-2.8985,-2.8723,-2.8709,-2.8709,-2.8709,-2.8709,-2.8709,-2.8709,-2.8709,-2.8709,-2.8709,-2.8956,-2.9087,-2.9102,-2.9726,-3.0045,-3.0045,-3.0438,-3.0598,-3.3543,-3.3993,-3.4414,-3.4414,-3.3877,-3.2928,-3.1263,-2.9776,-2.792,-2.5077,0.0,0.0,-2.2286,0.0,-2.5171,-2.8021,0.0,-3.1498,-3.4051,-3.5038,-3.5726,-3.6243,-3.6968,-3.7636,-3.8144,-3.8202,-3.8202,-3.8202,-3.8202,-3.797,-3.7462,-3.7926,-3.8202,-3.8202,-3.8202,-3.8202,-3.8202,-3.8202,-3.8202,-3.8202,-3.8202,-3.8115,-3.7912,-3.6809,-3.6214,-3.5996,-3.4893,-3.4414,-3.4414,-3.4414,-3.4971,-3.5881,-3.5817,-3.6507,-3.748,-3.7421,-3.745,-3.751,-3.751,-3.751,-3.751,-3.751,-3.751,-3.751,-3.751,-3.751,-3.7368,-3.6598,-3.5932,-3.5137,-3.4067,-3.3184,-3.241,-3.1638,-3.1394,-3.119,-3.0777,-3.0628,-3.0598,-3.0598,-3.0598,-3.0598,-3.0598,-3.0598,-3.0598,-3.0598,-3.0598,-3.0598,-3.0598,-3.0598,-3.0394,-2.9784,-2.9726,-2.9523,-2.9014,-2.8956,-2.8956,-2.8956,-2.8956,-2.8956,-2.8956,-2.8956,-2.8956,-2.8956,-2.9479,-2.9726,-2.9726,-3.0336,-3.0598,-3.0598,-3.0598,-3.0598,-3.4114,-3.4327,-3.4414,-3.4414,-3.3543,-3.2242,-3.0631,-2.8405,0.0,0.0,0.0,-2.1529,-2.0868,0.0,0.0,-2.7063,0.0,0.0,0.0,0.0,0.0,0.0,0.0,0.0,0.0,0.0,0.0,0.0,0.0,-3.8159,-3.8057,-3.8144,-3.8202,-3.8202,-3.8202,-3.8202,-3.8202,-3.8202,-3.8202,-3.8202,-3.8202,-3.7651,-3.6635,-3.6402,-3.5735,-3.4733,-3.4516,0.0,-3.4414,-3.4414,-3.4971,-3.5849,-3.5479,-3.6227,-3.745,-3.6998,-3.7135,-3.751,-3.751,-3.751,-3.751,-3.751,-3.751,-3.751,-3.751,-3.751,-3.7368,-3.6598,-3.5932,-3.5221,-3.4412,-3.3388,-3.2559,-3.241,-3.1823,-3.1292,-3.1205,-3.0866,-3.0598,-3.0598,-3.0598,-3.0598,-3.0598,-3.0598,-3.0598,-3.0598,-3.0598,-3.0598,-3.0598,-3.0598,-3.0569,-3.0452,-3.0438,-3.0394,-3.0278,-3.0278,-3.0278,-3.0278,-3.0278,-3.0278,-3.0278,-3.0278,-3.0278,-3.0278,-3.038,-3.0438,-3.0438,-3.0539,-3.0598,-3.0598,-3.0598,-3.0598,-3.4593,-3.482,-3.482,-3.482,-3.36,-3.1765,-2.9349,0.0,0.0,0.0,0.0,-2.0867,-2.0299,0.0,0.0,0.0,0.0,0.0,0.0,0.0,0.0,0.0,0.0,0.0,0.0,0.0,0.0,0.0,0.0,-3.8202,-3.8202,-3.8202,-3.8202,-3.8202,-3.8202,-3.8202,-3.8202,-3.8202,-3.8202,-3.8202,-3.8202,-3.7723,-3.6823,-3.646,-3.5793,-3.4893,-3.4559,0.0,-3.4414,-3.4414,-3.4854,-3.5512,-3.5299,-3.5975,-3.7059,-3.6785,-3.7044,-3.751,-3.751,-3.751,-3.751,-3.751,-3.751,-3.751,-3.751,-3.751,-3.7431,-3.7069,-3.62,-3.5315,-3.4952,-3.3932,-3.2834,-3.2355,-3.1566,-3.094,-3.094,-3.0747,-3.0598,-3.0598,-3.0598,-3.0598,-3.0598,-3.0598,-3.0598,-3.0598,-3.0598,-3.0598,-3.0598,-3.0598,-3.0598,-3.0598,-3.0598,-3.0598,-3.0598,-3.0598,-3.0598,-3.0598,-3.0598,-3.0598,-3.0598,-3.0672,-3.0702,-3.0702,-3.0702,-3.0702,-3.0702,-3.0702,-3.0672,-3.0598,-3.0672,-3.0672,-3.47,-3.5097,-3.5234,-3.5317,-3.3704,-3.1334,-2.8443,-2.6087,0.0,0.0,0.0,0.0,-2.0252,0.0,0.0,0.0,0.0,0.0,0.0,0.0,0.0,0.0,0.0,0.0,0.0,0.0,0.0,0.0,0.0,0.0,-3.8202,-3.8202,-3.8202,-3.8202,-3.8202,-3.8202,-3.8202,-3.8202,-3.8144,-3.8014,-3.8014,-3.7622,-3.6881,-3.6344,-3.5764,-3.5174,-3.4632,0.0,0.0,-3.4414,-3.4735,-3.5201,-3.5201,-3.5816,-3.6693,-3.6693,-3.7044,-3.751,-3.751,-3.751,-3.751,-3.751,-3.751,-3.751,-3.751,-3.751,-3.751,-3.751,-3.6498,-3.5394,-3.5394,-3.4352,-3.3081,-3.2132,-3.1306,-3.0717,-3.0612,-3.0598,-3.0598,-3.0598,-3.0598,-3.0598,-3.0598,-3.0598,-3.0598,-3.0598,-3.0598,-3.0598,-3.0598,-3.0598,-3.0598,-3.0598,-3.0598,-3.0598,-3.0598,-3.0598,-3.0598,-3.0598,-3.0598,-3.0598,-3.0598,-3.0732,-3.0791,-3.0791,-3.0821,-3.0866,-3.0866,-3.0866,-3.0791,-3.0702,-3.0821,-3.0791,-3.4068,-3.4755,-3.5299,-3.5721,-3.3592,-3.0851,-2.8807,0.0,0.0,0.0,-2.0794,-2.0778,-2.0728,0.0,0.0,0.0,0.0,0.0,0.0,0.0,0.0,0.0,0.0,0.0,0.0,0.0,0.0,0.0,0.0,0.0,-3.8202,-3.8202,-3.8202,-3.8202,-3.8202,-3.8202,-3.8202,-3.8202,-3.7926,-3.7389,-3.7389,-3.6736,-3.5566,-3.5508,-3.5111,-3.4501,-3.4443,0.0,0.0,-3.4414,-3.4735,-3.5201,-3.5201,-3.5816,-3.6693,-3.6693,-3.7044,-3.751,-3.751,-3.751,-3.751,-3.751,-3.751,-3.751,-3.751,-3.751,-3.751,-3.751,-3.6498,-3.5394,-3.5394,-3.4352,-3.3081,-3.2132,-3.1552,-3.1102,-3.0687,-3.0598,-3.0598,-3.0598,-3.0598,-3.0598,-3.0598,-3.0598,-3.0598,-3.0598,-3.0598,-3.0598,-3.0598,-3.0598,-3.0598,-3.0598,-3.0598,-3.0598,-3.0598,-3.0598,-3.0598,-3.0598,-3.0598,-3.0598,-3.0598,-3.0732,-3.0791,-3.0791,-3.0984,-3.1087,-3.1087,-3.1087,-3.1087,-3.1043,-3.1087,-3.1087,-3.3773,-3.5061,-3.6041,-3.5815,-3.3654,-3.0861,-2.8317,0.0,0.0,-2.1167,-2.0794,-2.0761,-2.0579,-2.0662,0.0,0.0,0.0,0.0,0.0,0.0,0.0,0.0,0.0,0.0,0.0,0.0,0.0,0.0,0.0,0.0,-3.8202,-3.8202,-3.8202,-3.8202,-3.8202,-3.8202,-3.8202,-3.7839,-3.7549,-3.7302,-3.6896,-3.6228,-3.5392,-3.5392,-3.5009,-3.4414,-3.4414,0.0,0.0,-3.4414,-3.4534,-3.4735,-3.4735,-3.5169,-3.5847,-3.6117,-3.6538,-3.7059,-3.7391,-3.751,-3.751,-3.751,-3.751,-3.751,-3.751,-3.751,-3.751,-3.751,-3.6498,-3.5394,-3.5394,-3.4144,-3.2711,-3.2048,-3.1581,-3.1161,-3.0687,-3.0598,-3.0598,-3.0598,-3.0598,-3.0598,-3.0598,-3.0598,-3.0598,-3.0598,-3.0598,-3.0598,-3.0598,-3.0598,-3.0598,-3.0598,-3.0598,-3.0598,-3.0598,-3.0672,-3.0732,-3.0732,-3.0821,-3.0895,-3.0895,-3.1029,-3.1117,-3.1117,-3.1176,-3.1205,-3.1205,-3.1205,-3.119,-3.1117,-3.119,-3.119,-3.285,-3.4522,-3.5701,-3.5381,-3.3329,-3.0654,0.0,0.0,-2.2824,-2.1153,-2.0794,-2.0728,-2.0444,-2.041,-2.0489,0.0,-2.0938,-2.2165,0.0,0.0,0.0,0.0,0.0,0.0,0.0,0.0,0.0,0.0,0.0,0.0,-3.7941,-3.7941,-3.8028,-3.8188,-3.8028,-3.7941,-3.7941,-3.7317,-3.691,-3.6722,-3.6257,-3.5691,-3.5116,-3.5116,-3.4835,-3.4414,-3.4414,0.0,0.0,-3.4414,-3.4414,-3.4414,-3.4568,-3.4854,-3.5267,-3.5896,-3.6383,-3.6785,-3.7315,-3.751,-3.751,-3.751,-3.751,-3.751,-3.751,-3.751,-3.751,-3.751,-3.6498,-3.53,-3.4873,-3.3678,-3.252,-3.2188,-3.1766,-3.1394,-3.1058,-3.097,-3.094,-3.0836,-3.0807,-3.0747,-3.0628,-3.0642,-3.0642,-3.0598,-3.0672,-3.0702,-3.0598,-3.0702,-3.0732,-3.0672,-3.0702,-3.0732,-3.0672,-3.0791,-3.0895,-3.0895,-3.1014,-3.1117,-3.1117,-3.1234,-3.1307,-3.1307,-3.1351,-3.1351,-3.1351,-3.1351,-3.1322,-3.122,-3.1336,-3.1292,-3.1047,-3.2594,-3.3727,-3.4211,-3.2436,-2.9999,0.0,-2.5118,-2.2824,-2.1153,-2.0794,-2.0728,-2.0444,-2.041,-2.0419,-2.0486,-2.1569,0.0,0.0,0.0,0.0,0.0,0.0,0.0,0.0,0.0,0.0,0.0,0.0,0.0,-3.7346,-3.7317,-3.7593,-3.8188,-3.7622,-3.7317,-3.7317,-3.6649,-3.5996,-3.5421,-3.5407,-3.5072,-3.4428,-3.4428,-3.4428,0.0,0.0,0.0,0.0,-3.4414,-3.4414,-3.4433,-3.4971,-3.5201,-3.5332,-3.6321,-3.6693,-3.6785,-3.7315,-3.751,-3.751,-3.751,-3.751,-3.751,-3.751,-3.751,-3.751,-3.751,-3.6498,-3.5078,-3.3672,-3.2958,-3.2586,-3.2586,-3.2228,-3.1908,-3.1879,-3.1879,-3.1766,-3.1365,-3.1278,-3.1146,-3.0687,-3.0702,-3.0762,-3.0612,-3.0895,-3.0984,-3.0642,-3.0895,-3.1014,-3.0821,-3.0984,-3.1014,-3.0791,-3.0984,-3.1117,-3.1117,-3.1117,-3.1117,-3.1117,-3.1234,-3.1307,-3.1307,-3.1438,-3.1511,-3.1511,-3.1511,-3.1511,-3.1511,-3.1511,-3.1511,-2.7992,-2.9644,-3.108,-3.0267,-2.8745,-2.7011,-2.5305,-2.3576,-2.2043,-2.1015,-2.0794,-2.0778,-2.0695,-2.0512,-2.0833,-2.2186,0.0,0.0,0.0,0.0,0.0,0.0,0.0,0.0,0.0,0.0,0.0,0.0,0.0,0.0,-3.7317,-3.6881,-3.6707,-3.6896,-3.6722,-3.662,-3.662,-3.5981,-3.5595,-3.5392,-3.4922,-3.4603,-3.4414,-3.4414,-3.4414,0.0,0.0,0.0,0.0,-3.4414,-3.4414,-3.4414,-3.4601,-3.4668,-3.4787,-3.5769,-3.6149,-3.6274,-3.7195,-3.751,-3.751,-3.751,-3.751,-3.751,-3.751,-3.751,-3.7304,-3.6355,-3.5726,-3.5078,-3.3672,-3.3187,-3.3011,-3.2683,-3.2492,-3.2284,-3.1964,-3.1908,-3.1851,-3.1737,-3.1509,-3.1248,-3.1102,-3.091,-3.0791,-3.0732,-3.0955,-3.1043,-3.0955,-3.1014,-3.1087,-3.1014,-3.1146,-3.1176,-3.1014,-3.1161,-3.1234,-3.1234,-3.1336,-3.1366,-3.1366,-3.1409,-3.1438,-3.1438,-3.1467,-3.1511,-3.1511,-3.1511,-3.1511,-3.1511,-3.1511,-3.1511,0.0,-2.7262,-2.8395,-2.7525,-2.6451,-2.525,-2.3844,-2.2675,-2.1679,-2.0952,-2.0794,-2.0778,-2.0678,-2.0427,-2.0602,-2.1687,0.0,0.0,0.0,0.0,0.0,0.0,0.0,0.0,0.0,0.0,0.0,0.0,0.0,0.0,-3.6591,-3.617,-3.5836,-3.5604,-3.5822,-3.5952,-3.5952,-3.5328,-3.5009,-3.5029,-3.4603,-3.4414,-3.4414,-3.4414,-3.4414,0.0,0.0,0.0,0.0,-3.4414,-3.4414,-3.4414,-3.4414,-3.4414,-3.4501,-3.5544,-3.5913,-3.6039,-3.7119,-3.751,-3.751,-3.751,-3.751,-3.751,-3.7612,-3.7583,-3.7225,-3.5818,-3.5394,-3.5078,-3.3672,-3.3309,-3.324,-3.2915,-3.2861,-3.2807,-3.2629,-3.2574,-3.2559,-3.2489,-3.2269,-3.2046,-3.1864,-3.1537,-3.1263,-3.1219,-3.1234,-3.122,-3.1102,-3.119,-3.122,-3.119,-3.1292,-3.1322,-3.1249,-3.1336,-3.138,-3.138,-3.1438,-3.1511,-3.1511,-3.1511,-3.1511,-3.1511,-3.1511,-3.1511,-3.1511,-3.1511,-3.1511,-3.1511,-3.1511,-3.1511,0.0,-2.5049,-2.5566,-2.5566,-2.5076,-2.429,-2.304,-2.2281,0.0,-2.0936,-2.0778,-2.0726,-2.0569,-2.0257,-2.0017,-1.9935,0.0,0.0,0.0,0.0,0.0,0.0,0.0,0.0,0.0,0.0,0.0,0.0,0.0,0.0,-3.5436,-3.5348,-3.5058,-3.4428,-3.498,-3.5334,-3.5334,-3.4704,-3.4414,-3.4414,-3.4414,-3.4414,-3.4414,-3.4414,-3.4414,0.0,0.0,0.0,0.0,-3.4414,-3.4414,-3.4414,-3.4414,-3.4414,-3.4501,-3.5544,-3.5913,-3.6039,-3.7119,-3.751,-3.751,-3.751,-3.751,-3.7583,-3.7828,-3.7695,-3.7175,-3.5814,-3.5403,-3.5055,-3.3683,-3.3335,-3.3319,-3.3293,-3.3309,-3.3372,-3.3658,-3.3694,-3.3652,-3.3485,-3.3417,-3.3245,-3.2806,-3.2431,-3.2102,-3.1946,-3.1709,-3.1453,-3.1176,-3.1336,-3.1438,-3.1322,-3.1438,-3.1511,-3.1511,-3.1511,-3.1511,-3.1511,-3.1511,-3.1511,-3.1511,-3.1511,-3.1511,-3.1511,-3.1511,-3.1511,-3.1511,-3.1511,-3.1511,-3.1511,-3.1511,-3.1511,-1.9815,0.0,-2.1268,-2.1268,-2.1142,-2.1063,0.0,-2.1158,0.0,0.0,0.0,-2.0771,-2.1682,-2.1064,0.0,0.0,0.0,0.0,0.0,0.0,0.0,0.0,0.0,0.0,0.0,0.0,0.0,0.0,0.0,0.0,-3.5407,-3.4893,-3.4559,-3.4414,-3.4559,-3.4646,-3.4646,-3.4486,-3.4414,-3.4414,-3.4414,-3.4414,-3.4414,-3.4414,-3.4414,0.0,0.0,0.0,-3.4414,-3.4414,-3.4414,-3.4414,-3.4414,-3.4414,-3.4501,-3.5544,-3.5913,-3.6039,-3.7119,-3.751,-3.751,-3.751,-3.7642,-3.7815,-3.7886,-3.746,-3.6813,-3.6194,-3.5605,-3.493,-3.3882,-3.3607,-3.3555,-3.3361,-3.3309,-3.3372,-3.3658,-3.3694,-3.3745,-3.3892,-3.3656,-3.3365,-3.3245,-3.2997,-3.261,-3.213,-3.2132,-3.1994,-3.1467,-3.1453,-3.1511,-3.1467,-3.1467,-3.1511,-3.1511,-3.1511,-3.1511,-3.1511,-3.1511,-3.1511,-3.1511,-3.1511,-3.1511,-3.1511,-3.1511,-3.1511,-3.1511,-3.1511,-3.1511,-3.1511,-3.1511,-3.1511,-1.7636,-1.923,-2.0763,-2.073,-2.0884,-2.1128,-2.1489,0.0,0.0,0.0,0.0,0.0,-2.1498,0.0,0.0,0.0,0.0,0.0,0.0,0.0,0.0,0.0,0.0,0.0,0.0,0.0,0.0,0.0,0.0,-3.4922,-3.4922,-3.4603,-3.4414,-3.4414,-3.4414,-3.4414,-3.4414,-3.4414,-3.4414,-3.4414,-3.4414,-3.4414,-3.4414,-3.4414,-3.4414,0.0,0.0,0.0,-3.4414,-3.4414,-3.4414,-3.4414,-3.4414,-3.4414,-3.4501,-3.5544,-3.5913,-3.6039,-3.7119,-3.751,-3.751,-3.751,-3.7685,-3.7851,-3.7689,-3.7206,-3.6626,-3.6303,-3.5661,-3.4914,-3.4092,-3.3873,-3.3838,-3.3555,-3.3581,-3.371,-3.3848,-3.3975,-3.4151,-3.4423,-3.4267,-3.4086,-3.4086,-3.3537,-3.2986,-3.2664,-3.2256,-3.1853,-3.1524,-3.1511,-3.1511,-3.1511,-3.1511,-3.1511,-3.1511,-3.1511,-3.1511,-3.1511,-3.1511,-3.1511,-3.1511,-3.1511,-3.1511,-3.1511,-3.1511,-3.1511,-3.1511,-3.1511,-3.1511,-3.1511,-3.1511,-3.1511,-1.6862,-1.9389,-2.1862,-2.144,-2.1829,-2.2319,0.0,0.0,0.0,0.0,0.0,0.0,0.0,0.0,0.0,0.0,0.0,0.0,0.0,0.0,0.0,0.0,0.0,0.0,0.0,0.0,0.0,0.0,0.0,-3.4414,-3.4414,-3.4414,-3.4414,-3.4414,-3.4414,-3.4414,-3.4414,-3.4414,-3.4414,-3.4414,-3.4414,-3.4414,-3.4414,-3.4414,-3.4414,-3.4414,0.0,0.0,-3.4414,-3.4414,-3.4414,-3.4414,-3.4414,-3.4414,-3.4501,-3.5544,-3.5913,-3.6039,-3.7119,-3.7539,-3.7553,-3.7553,-3.7743,-3.7901,-3.7489,-3.703,-3.661,-3.6287,-3.5646,-3.4938,-3.4338,-3.4151,-3.4101,-3.3822,-3.3924,-3.4126,-3.4151,-3.4349,-3.457,-3.4851,-3.4899,-3.4899,-3.4899,-3.4027,-3.3303,-3.3209,-3.2312,-3.1611,-3.1496,-3.1511,-3.1511,-3.1511,-3.1511,-3.1511,-3.1511,-3.1511,-3.1511,-3.1511,-3.1511,-3.1511,-3.1511,-3.1511,-3.1511,-3.1511,-3.1511,-3.1511,-3.1511,-3.1511,-3.1511,-3.1511,-3.1511,-3.1511,-1.8046,-2.0263,-2.1742,-1.9688,-2.0375,-2.1417,0.0,0.0,0.0,0.0,0.0,0.0,0.0,0.0,0.0,0.0,0.0,0.0,0.0,0.0,0.0,0.0,0.0,0.0,0.0,0.0,0.0,0.0,0.0,0.0,-3.4414,-3.4414,-3.4414,-3.4414,-3.4414,-3.4414,-3.4414,-3.4414,-3.4414,-3.4414,-3.4414,-3.4414,-3.4414,-3.4414,-3.4414,-3.4414,0.0,-3.4414,-3.4414,-3.4414,-3.4414,-3.4414,-3.4414,-3.4414,-3.4501,-3.5544,-3.5913,-3.6039,-3.7119,-3.7655,-3.7828,-3.7828,-3.8062,-3.8246,-3.7775,-3.7364,-3.6877,-3.6216,-3.5506,-3.4863,-3.453,-3.4448,-3.4374,-3.4101,-3.4075,-3.4151,-3.4399,-3.4472,-3.457,-3.4851,-3.4899,-3.4899,-3.4899,-3.4382,-3.379,-3.3277,-3.2652,-3.2079,-3.1553,-3.1511,-3.1511,-3.1511,-3.1511,-3.1511,-3.1511,-3.1511,-3.1511,-3.1511,-3.1511,-3.1511,-3.1511,-3.1511,-3.1511,-3.1511,-3.1511,-3.1511,-3.1511,-3.1511,-3.1511,-3.1511,-3.1511,-3.1511,-1.7117,-1.9213,-2.0974,-1.9672,-2.1469,-2.3479,0.0,0.0,0.0,0.0,0.0,0.0,0.0,0.0,0.0,0.0,0.0,0.0,0.0,0.0,0.0,0.0,0.0,0.0,0.0,0.0,0.0,0.0,0.0,0.0,-3.4414,-3.4414,-3.4414,-3.4414,-3.4414,-3.4414,-3.4414,-3.4414,-3.4414,-3.4414,-3.4414,-3.4414,-3.4414,-3.4414,-3.4414,-3.4414,0.0,-3.4414,-3.4414,-3.4414,-3.4414,-3.4414,-3.4414,-3.4414,-3.4501,-3.5544,-3.6368,-3.7057,-3.7551,-3.7918,-3.8177,-3.8177,-3.8375,-3.8416,-3.7408,-3.7103,-3.687,-3.5727,-3.5164,-3.4875,-3.4756,-3.4732,-3.4643,-3.4374,-3.4423,-3.4521,-3.4497,-3.4618,-3.4739,-3.4875,-3.4899,-3.4804,-3.4521,-3.3993,-3.3423,-3.2841,-3.2272,-3.1796,-3.1539,-3.1511,-3.1511,-3.1511,-3.1511,-3.1511,-3.1511,-3.1511,-3.1511,-3.1511,-3.1511,-3.1511,-3.1511,-3.1511,-3.1511,-3.1511,-3.1511,-3.1511,-3.1511,-3.1511,-3.1511,-3.1511,-3.1511,-3.1511,-1.6562,-1.8344,-2.0212,0.0,0.0,0.0,0.0,0.0,0.0,0.0,0.0,0.0,0.0,0.0,0.0,0.0,0.0,0.0,0.0,0.0,0.0,0.0,0.0,0.0,0.0,0.0,0.0,0.0,0.0,0.0,-3.4414,-3.4414,-3.4414,-3.4414,-3.4414,-3.4414,-3.4414,-3.4414,-3.4414,-3.4414,-3.4414,-3.4414,-3.4414,-3.4414,-3.4414,-3.4414,-3.4414,-3.4414,-3.4414,-3.4414,-3.4414,-3.4414,-3.4414,-3.4515,-3.4721,-3.5512,-3.6677,-3.7886,-3.7799,-3.8103,-3.8472,-3.8309,-3.8367,-3.8264,-3.6875,-3.6644,-3.6572,-3.5263,-3.4899,-3.4899,-3.4899,-3.4899,-3.4851,-3.4643,-3.4739,-3.4835,-3.4643,-3.4756,-3.4899,-3.4899,-3.4899,-3.4732,-3.4201,-3.3594,-3.3013,-3.2465,-3.1881,-3.1511,-3.1511,-3.1511,-3.1511,-3.1511,-3.1511,-3.1511,-3.1511,-3.1511,-3.1511,-3.1511,-3.1511,-3.1511,-3.1511,-3.1511,-3.1511,-3.1511,-3.1511,-3.1511,-3.1511,-3.1511,-3.1511,-3.1511,-3.1511,-3.1511,-1.788,-1.8882,-1.9912,-2.1405,0.0,0.0,0.0,0.0,0.0,0.0,0.0,0.0,0.0,0.0,0.0,0.0,0.0,0.0,0.0,0.0,0.0,0.0,0.0,0.0,0.0,0.0,0.0,0.0,0.0,0.0,-3.4414,-3.4414,-3.4414,-3.4414,-3.4414,-3.4414,-3.4414,-3.4414,-3.4414,-3.4414,-3.4414,-3.4414,-3.4414,-3.4414,-3.4414,-3.4414,-3.4414,-3.4414,-3.4414,-3.4414,-3.4414,-3.4414,-3.4414,-3.4787,-3.5335,-3.54,-3.6492,-3.7857,-3.7535,-3.803,-3.8663,-3.7975,-3.7762,-3.7554,-3.6406,-3.605,-3.5909,-3.5114,-3.4899,-3.4899,-3.4899,-3.4899,-3.4899,-3.4875,-3.4899,-3.4899,-3.4875,-3.4899,-3.4899,-3.4899,-3.4899,-3.4732,-3.4201,-3.3594,-3.3013,-3.2465,-3.1881,-3.1511,-3.1511,-3.1511,-3.1511,-3.1511,-3.1511,-3.1511,-3.1511,-3.1511,-3.1511,-3.1511,-3.1511,-3.1511,-3.1511,-3.1511,-3.1511,-3.1511,-3.1511,-3.1511,-3.1511,-3.1511,-3.1511,-3.1511,-3.1511,-3.1511,-1.6561,-1.8057,-1.9723,0.0,0.0,0.0,0.0,0.0,0.0,0.0,0.0,0.0,0.0,0.0,0.0,0.0,0.0,0.0,0.0,0.0,0.0,0.0,0.0,0.0,0.0,0.0,0.0,0.0,0.0,0.0,0.0,-3.4414,-3.4414,-3.4414,-3.4414,-3.4414,-3.4414,-3.4414,-3.4414,-3.4414,-3.4414,-3.4414,-3.4414,-3.4414,-3.4414,-3.4414,-3.4414,-3.4414,-3.4414,-3.4414,-3.4414,-3.4414,-3.4414,-3.482,-3.54,-3.54,-3.6446,-3.7886,-3.7754,-3.804,-3.8385,-3.8104,-3.7708,-3.7147,-3.6282,-3.6009,-3.5843,-3.5098,-3.4899,-3.4899,-3.4899,-3.4899,-3.4899,-3.4899,-3.4899,-3.4899,-3.4899,-3.4899,-3.4899,-3.4899,-3.4899,-3.4602,-3.3697,-3.3672,-3.3335,-3.2035,-3.1966,-3.1938,-3.1568,-3.1511,-3.1511,-3.1511,-3.1511,-3.1511,-3.1511,-3.1511,-3.1511,-3.1511,-3.1511,-3.1511,-3.1511,-3.1511,-3.1511,-3.1511,-3.1511,-3.1511,-3.1511,-3.1511,-3.1511,-3.1511,-3.1511,-3.1511,-1.6039,-1.752,-1.9284,0.0,0.0,0.0,0.0,0.0,0.0,0.0,0.0,0.0,0.0,0.0,0.0,0.0,0.0,0.0,0.0,0.0,0.0,0.0,0.0,0.0,0.0,0.0,0.0,0.0,0.0,0.0,0.0,-3.4414,-3.4414,-3.4414,-3.4568,-3.4668,-3.4668,-3.4787,-3.4887,-3.4887,-3.4887,-3.4687,-3.4414,-3.4414,-3.4414,-3.4414,-3.4414,-3.4515,-3.4635,-3.4481,-3.4448,-3.4481,-3.4481,-3.482,-3.5317,-3.5252,-3.6306,-3.7722,-3.747,-3.7751,-3.8103,-3.7665,-3.7168,-3.6622,-3.5876,-3.5644,-3.5545,-3.5032,-3.4899,-3.4899,-3.4899,-3.4899,-3.4899,-3.4899,-3.4899,-3.4899,-3.4899,-3.4899,-3.4899,-3.4899,-3.4899,-3.4602,-3.3656,-3.3841,-3.3559,-3.2023,-3.2148,-3.2176,-3.1582,-3.1511,-3.1511,-3.1511,-3.1511,-3.1511,-3.1511,-3.1511,-3.1511,-3.1511,-3.1511,-3.1511,-3.1511,-3.1511,-3.1511,-3.1511,-3.1511,-3.1511,-3.1511,-3.1511,-3.1511,-3.1511,-3.1511,-3.1511,-1.6849,-1.755,0.0,0.0,0.0,0.0,0.0,0.0,0.0,0.0,0.0,0.0,0.0,0.0,0.0,0.0,0.0,0.0,0.0,0.0,0.0,0.0,0.0,0.0,0.0,0.0,0.0,0.0,0.0,0.0,0.0,-3.4414,-3.4414,-3.4414,-3.492,-3.5201,-3.5201,-3.5672,-3.5913,-3.5913,-3.5913,-3.5382,-3.4414,-3.4414,-3.4414,-3.4414,-3.4414,-3.4735,-3.5169,-3.4635,-3.4515,-3.4698,-3.4698,-3.4898,-3.518,-3.4968,-3.5961,-3.7288,-3.6566,-3.712,-3.7947,-3.6473,-3.6009,-3.586,-3.5114,-3.4899,-3.4899,-3.4899,-3.4899,-3.4899,-3.4899,-3.4899,-3.4899,-3.4899,-3.4899,-3.4899,-3.4899,-3.4899,-3.4899,-3.4899,-3.4899,-3.4732,-3.4176,-3.4101,-3.3704,-3.2547,-3.2398,-3.2176,-3.1582,-3.1511,-3.1511,-3.1511,-3.1511,-3.1511,-3.1511,-3.1511,-3.1511,-3.1511,-3.1511,-3.1511,-3.1511,-3.1511,-3.1511,-3.1511,-3.1511,-3.1511,-3.1511,-3.1511,-3.1511,-3.1511,-3.1511,-3.1511,-1.697,0.0,0.0,0.0,0.0,0.0,0.0,0.0,0.0,0.0,0.0,0.0,0.0,0.0,0.0,0.0,0.0,0.0,0.0,0.0,0.0,0.0,0.0,0.0,0.0,0.0,0.0,0.0,0.0,0.0,0.0,-3.4414,-3.4414,-3.4414,-3.492,-3.5201,-3.5201,-3.5672,-3.5913,-3.5913,-3.5913,-3.5721,-3.5447,-3.5447,-3.5447,-3.5447,-3.5447,-3.5544,-3.5657,-3.5285,-3.5004,-3.4835,-3.4835,-3.4983,-3.518,-3.5115,-3.575,-3.6598,-3.6379,-3.6448,-3.6589,-3.6141,-3.5644,-3.5181,-3.4965,-3.4899,-3.4899,-3.4899,-3.4899,-3.4899,-3.4899,-3.4899,-3.4899,-3.4899,-3.4899,-3.4899,-3.4899,-3.4899,-3.4899,-3.4899,-3.4899,-3.4602,-3.363,-3.3815,-3.3575,-3.1994,-3.212,-3.2176,-3.1582,-3.1511,-3.1511,-3.1511,-3.1511,-3.1511,-3.1511,-3.1511,-3.1511,-3.1511,-3.1511,-3.1511,-3.1511,-3.1511,-3.1511,-3.1511,-3.1511,-3.1511,-3.1511,-3.1511,-3.1511,-3.1511,-3.1511,-3.1511,0.0,0.0,0.0,0.0,0.0,0.0,0.0,0.0,0.0,0.0,0.0,0.0,0.0,0.0,0.0,0.0,0.0,0.0,0.0,0.0,0.0,0.0,0.0,0.0,0.0,0.0,0.0,0.0,0.0,0.0,0.0,-3.4414,-3.4414,-3.4414,-3.492,-3.5299,-3.5479,-3.5959,-3.6305,-3.6538,-3.6538,-3.6585,-3.6677,-3.6118,-3.5913,-3.5913,-3.5991,-3.5896,-3.5689,-3.564,-3.5397,-3.4986,-3.4738,-3.4894,-3.5185,-3.4612,-3.5171,-3.6154,-3.566,-3.569,-3.5959,-3.5661,-3.5263,-3.4899,-3.4899,-3.4899,-3.4899,-3.4899,-3.4899,-3.4899,-3.4899,-3.4899,-3.4899,-3.4899,-3.4899,-3.4899,-3.4899,-3.4899,-3.4899,-3.4899,-3.4899,-3.4602,-3.3707,-3.3866,-3.3601,-3.2064,-3.1966,-3.191,-3.1568,-3.1511,-3.1511,-3.1511,-3.1511,-3.1511,-3.1511,-3.1511,-3.1511,-3.1511,-3.1511,-3.1376,-3.1107,-3.1361,-3.1511,-3.1511,-3.1511,-3.1511,-3.1511,-3.1511,-3.1511,-3.1511,-3.1511,-3.1361,0.0,0.0,0.0,0.0,0.0,0.0,0.0,0.0,0.0,0.0,0.0,0.0,0.0,0.0,0.0,0.0,0.0,0.0,0.0,0.0,0.0,0.0,0.0,0.0,0.0,0.0,0.0,0.0,0.0,0.0,0.0,-3.4327,-3.4356,-3.4414,-3.4953,-3.5479,-3.5944,-3.6507,-3.7029,-3.7539,-3.7539,-3.7655,-3.7857,-3.6646,-3.6102,-3.6134,-3.6321,-3.6117,-3.5657,-3.5943,-3.5769,-3.5213,-3.4554,-3.471,-3.5155,-3.3848,-3.4481,-3.5846,-3.4668,-3.4985,-3.5794,-3.5114,-3.4899,-3.4899,-3.4899,-3.4899,-3.4899,-3.4899,-3.4899,-3.4899,-3.4899,-3.4899,-3.4899,-3.4899,-3.4899,-3.4899,-3.4899,-3.4899,-3.4899,-3.4899,-3.4875,-3.4643,-3.4109,-3.3984,-3.3559,-3.2465,-3.1853,-3.1511,-3.1511,-3.1511,-3.1511,-3.1511,-3.1511,-3.1511,-3.1511,-3.1511,-3.1481,-3.1406,-3.1406,-3.1107,-3.0447,-3.1047,-3.1406,-3.1406,-3.1346,-3.1346,-3.1406,-3.1346,-3.1331,-3.1331,-3.1331,-3.0987,0.0,0.0,0.0,0.0,0.0,0.0,0.0,0.0,0.0,0.0,0.0,0.0,0.0,0.0,0.0,0.0,0.0,0.0,0.0,0.0,0.0,0.0,0.0,0.0,0.0,0.0,0.0,0.0,0.0,0.0,-3.3678,-3.3707,-3.3891,-3.4399,-3.5285,-3.5929,-3.6291,-3.6983,-3.7478,0.0,-3.7799,-3.7828,-3.7886,-3.7608,-3.7608,-3.7873,-3.7902,-3.7711,-3.7326,-3.6906,-3.6443,-3.6005,-3.5339,-3.5135,-3.5193,-3.488,-3.4964,-3.5195,-3.4902,-3.4951,-3.5098,-3.4949,-3.4899,-3.4899,-3.4899,-3.4899,-3.4899,-3.4899,-3.4899,-3.4899,-3.4899,-3.4899,-3.4899,-3.4899,-3.4899,-3.4899,-3.4899,-3.4899,-3.4899,-3.4899,-3.4546,-3.4084,-3.3501,-3.3044,-3.252,-3.1796,-3.1582,-3.1511,-3.1511,-3.1511,-3.1511,-3.1511,-3.1511,-3.1511,-3.1511,-3.1511,-3.1271,-3.0761,-3.0731,-3.0447,-2.9831,-3.0387,-3.0731,-3.0731,-3.0253,-3.0238,-3.0717,-3.0238,-2.9998,-2.9998,-2.9998,-2.9924,0.0,0.0,0.0,0.0,0.0,0.0,0.0,0.0,0.0,0.0,0.0,0.0,0.0,0.0,0.0,0.0,0.0,0.0,0.0,0.0,0.0,0.0,0.0,0.0,0.0,0.0,0.0,0.0,0.0,-3.2658,-3.2991,-3.3021,-3.3166,-3.3467,-3.4345,-3.5003,-3.5384,-3.6487,-3.7042,-3.709,-3.7428,-3.7496,-3.7295,-3.7512,-3.7512,-3.7344,-3.7173,-3.7018,-3.6805,-3.6303,-3.5967,-3.5707,-3.5034,-3.493,-3.502,-3.4469,-3.4547,-3.4921,-3.467,-3.4718,-3.4899,-3.4899,-3.4899,-3.4899,-3.4899,-3.4899,-3.4899,-3.4899,-3.4899,-3.4899,-3.4899,-3.4899,-3.4899,-3.4899,-3.4899,-3.4899,-3.4899,-3.4899,-3.4811,-3.457,-3.43,-3.3832,-3.2991,-3.2355,-3.1853,-3.1568,-3.1511,-3.1511,-3.1511,-3.1511,-3.1511,-3.1511,-3.1511,-3.1511,-3.1511,-3.1212,-3.0881,-3.0522,-3.0223,-2.9774,-2.9146,-2.9415,-2.9744,-3.0058,-2.9771,-2.9744,-3.0058,-2.9744,-2.9606,-2.9606,-2.9606,-2.9442,0.0,0.0,0.0,0.0,0.0,0.0,0.0,0.0,0.0,0.0,0.0,0.0,0.0,0.0,0.0,0.0,0.0,0.0,0.0,0.0,0.0,0.0,0.0,0.0,0.0,0.0,0.0,0.0,0.0,-3.23,-3.2402,-3.2416,-3.246,-3.2576,-3.3348,-3.3968,-3.4424,-3.578,-3.6373,-3.6291,-3.6891,-3.6955,-3.6514,-3.69,-3.6799,-3.6344,-3.6072,-3.5948,-3.5921,-3.5522,-3.5348,-3.5256,-3.4603,-3.4606,-3.4871,-3.3848,-3.4102,-3.4851,-3.4399,-3.4521,-3.4899,-3.4899,-3.4899,-3.4899,-3.4899,-3.4899,-3.4899,-3.4899,-3.4899,-3.4899,-3.4899,-3.4899,-3.4899,-3.4899,-3.4899,-3.4899,-3.4899,-3.4828,-3.4618,-3.4201,-3.3933,-3.3455,-3.2425,-3.1824,-3.1511,-3.1511,-3.1511,-3.1511,-3.1511,-3.1511,-3.1511,-3.1511,-3.1406,-3.1331,-3.1331,-3.0731,-3.0298,-3.0178,-2.9699,-2.9116,-2.8457,-2.8427,-2.8682,-2.9247,-2.9262,-2.9322,-2.9442,-2.9322,-2.9262,-2.9262,-2.9262,-2.8978,0.0,0.0,0.0,0.0,0.0,0.0,0.0,0.0,0.0,0.0,0.0,0.0,0.0,0.0,0.0,0.0,0.0,0.0,0.0,0.0,0.0,0.0,0.0,0.0,0.0,0.0,0.0,0.0,-3.1279,-3.1529,-3.2057,-3.2087,-3.2336,-3.2895,-3.3924,-3.4601,-3.4883,-3.5783,-3.6329,-3.6548,-3.6646,-3.649,-3.6092,-3.6142,-3.6463,-3.6975,-3.6933,-3.6907,-3.6856,-3.6243,-3.5964,-3.5835,-3.5153,-3.491,-3.4895,-3.4724,-3.4763,-3.4899,-3.4828,-3.4851,-3.4899,-3.4899,-3.4899,-3.4899,-3.4899,-3.4899,-3.4899,-3.4899,-3.4899,-3.4899,-3.4899,-3.4899,-3.4899,-3.4899,-3.4899,-3.4899,-3.4899,-3.4521,-3.4201,-3.4126,-3.3298,-3.241,-3.1754,-3.1553,-3.1511,-3.1511,-3.1511,-3.1511,-3.1511,-3.1511,-3.1511,-3.1511,-3.0972,-3.0642,-3.0642,-3.0058,-2.946,-2.8891,-2.8786,-2.8427,-2.7764,-2.7735,-2.7779,-2.7869,-2.7869,-2.8154,-2.8727,-2.8154,-2.7869,-2.7869,-2.7869,-2.7824,0.0,0.0,0.0,0.0,0.0,0.0,0.0,0.0,0.0,0.0,0.0,0.0,0.0,0.0,0.0,0.0,0.0,0.0,0.0,0.0,0.0,0.0,0.0,0.0,0.0,0.0,0.0,0.0,-3.1043,-3.1205,-3.1485,-3.1515,-3.1633,-3.1928,-3.3089,-3.376,-3.3881,-3.5344,-3.6155,-3.6265,-3.5828,-3.5555,-3.5379,-3.5379,-3.5562,-3.5876,-3.5876,-3.5876,-3.5835,-3.5555,-3.5424,-3.5355,-3.5054,-3.493,-3.4899,-3.4899,-3.4899,-3.4899,-3.4899,-3.4899,-3.4899,-3.4899,-3.4899,-3.4899,-3.4899,-3.4899,-3.4899,-3.4899,-3.4899,-3.4899,-3.4899,-3.4899,-3.4899,-3.4899,-3.4667,-3.4448,-3.4448,-3.4275,-3.3908,-3.3272,-3.2465,-3.1796,-3.1568,-3.1511,-3.1511,-3.1511,-3.1511,-3.1511,-3.1511,-3.1511,-3.1511,-3.1511,-3.1241,-3.0898,-3.0537,-2.9939,-2.9295,-2.8637,-2.8233,-2.7914,-2.76,-2.76,-2.76,-2.76,-2.76,-2.775,-2.8049,-2.775,-2.76,-2.76,-2.76,-2.76,0.0,0.0,0.0,0.0,0.0,0.0,0.0,0.0,0.0,0.0,0.0,0.0,0.0,0.0,0.0,0.0,0.0,0.0,0.0,0.0,0.0,0.0,0.0,0.0,0.0,0.0,0.0,0.0,-3.1132,-3.119,-3.119,-3.1366,-3.1438,-3.1438,-3.2625,-3.3293,-3.3293,-3.4905,-3.5727,-3.5711,-3.5164,-3.4899,-3.4899,-3.4899,-3.4899,-3.4899,-3.4899,-3.4899,-3.4899,-3.4899,-3.4899,-3.4899,-3.4899,-3.4899,-3.4899,-3.4899,-3.4899,-3.4899,-3.4899,-3.4899,-3.4899,-3.4899,-3.4899,-3.4899,-3.4899,-3.4899,-3.4899,-3.4899,-3.4899,-3.4899,-3.4899,-3.4804,-3.4691,-3.4691,-3.4259,-3.3815,-3.3704,-3.3678,-3.3377,-3.237,-3.1796,-3.1511,-3.1511,-3.1511,-3.1511,-3.1511,-3.1511,-3.1511,-3.1511,-3.1511,-3.1511,-3.1511,-3.1346,-3.0972,-3.0328,-2.9699,-2.9041,-2.8382,-2.7884,-2.76,-2.76,-2.76,-2.76,-2.76,-2.76,-2.76,-2.76,-2.76,-2.76,-2.76,-2.76,-2.76,0.0,0.0,0.0,0.0,0.0,0.0,0.0,0.0,0.0,0.0,0.0,0.0,0.0,0.0,0.0,0.0,0.0,0.0,0.0,0.0,0.0,0.0,0.0,0.0,0.0,0.0,0.0,0.0,-3.1467,-3.1482,-3.1482,-3.2007,-3.2342,-3.2342,-3.3455,-3.4034,-3.4034,-3.4651,-3.4965,-3.4965,-3.4916,-3.4899,-3.4899,-3.4899,-3.4899,-3.4899,-3.4899,-3.4899,-3.4899,-3.4899,-3.4899,-3.4899,-3.4899,-3.4899,-3.4899,-3.4899,-3.4899,-3.4899,-3.4899,-3.4899,-3.4899,-3.4899,-3.4899,-3.4899,-3.4899,-3.4899,-3.4899,-3.4899,-3.4899,-3.4899,-3.4899,-3.4521,-3.4151,-3.4151,-3.3697,-3.3093,-3.2602,-3.2508,-3.2315,-3.1668,-3.1524,-3.1511,-3.1511,-3.1511,-3.1511,-3.1511,-3.1511,-3.1511,-3.1511,-3.1511,-3.1511,-3.1511,-3.0913,-3.0313,-2.9711,-2.9026,-2.8368,-2.769,-2.7615,-2.76,-2.76,-2.76,-2.76,-2.76,-2.76,-2.76,-2.76,-2.76,-2.76,-2.76,-2.76,-2.76,0.0,0.0,0.0,0.0,0.0,0.0,0.0,0.0,0.0,0.0,0.0,0.0,0.0,0.0,0.0,0.0,0.0,0.0,0.0,0.0,0.0,0.0,0.0,0.0,0.0,0.0,0.0,0.0,0.0,-3.0866,-3.0866,-3.1835,-3.2398,-3.2398,-3.3507,-3.4275,-3.4618,-3.4787,-3.4899,-3.4899,-3.4899,-3.4899,-3.4899,-3.4899,-3.4899,-3.4899,-3.4899,-3.4899,-3.4899,-3.4899,-3.4899,-3.4899,-3.4899,-3.4899,-3.4899,-3.4899,-3.4899,-3.4899,-3.4899,-3.4899,-3.4899,-3.4899,-3.4899,-3.4899,-3.4899,-3.4899,-3.4899,-3.4899,-3.4899,-3.4828,-3.4472,-3.425,-3.3924,-3.3193,-3.283,-3.2532,-3.1966,-3.1824,-3.1875,-3.2107,-3.1795,-3.1645,-3.2064,-3.178,-3.1511,-3.1511,-3.1511,-3.1511,-3.1511,-3.1122,-3.0866,-3.0866,-3.0298,-2.9654,-2.9011,-2.8742,-2.8308,-2.7645,-2.76,-2.76,-2.76,-2.76,-2.76,-2.76,-2.76,-2.76,-2.76,-2.76,-2.76,-2.76,-2.76,-2.76,0.0,0.0,0.0,0.0,0.0,0.0,0.0,0.0,0.0,0.0,0.0,0.0,0.0,0.0,0.0,0.0,0.0,0.0,0.0,0.0,0.0,0.0,0.0,0.0,0.0,0.0,0.0,0.0,0.0,0.0,-3.0193,-3.1324,-3.2143,-3.2493,-3.3483,-3.4053,-3.4154,-3.4651,-3.4767,-3.4535,-3.4767,-3.4767,-3.4535,-3.4783,-3.475,-3.4535,-3.4783,-3.4899,-3.4899,-3.4899,-3.4899,-3.4899,-3.4899,-3.4899,-3.4899,-3.4899,-3.4899,-3.4899,-3.4899,-3.4899,-3.4899,-3.4899,-3.4899,-3.4899,-3.4899,-3.4899,-3.4899,-3.4899,-3.4899,-3.4828,-3.4448,-3.4388,-3.4079,-3.2703,-3.2717,-3.2826,-3.1983,-3.182,-3.1959,-3.2392,-3.1959,-3.1705,-3.2363,-3.157,-3.0913,-3.1122,-3.0972,-3.0853,-3.0853,-3.0477,-3.0193,-3.0193,-2.9846,-2.9337,-2.8667,-2.8607,-2.8308,-2.7645,-2.76,-2.76,-2.76,-2.76,-2.76,-2.76,-2.76,-2.76,-2.76,-2.76,-2.76,-2.76,-2.76,-2.76,0.0,0.0,0.0,0.0,0.0,0.0,0.0,0.0,0.0,0.0,0.0,0.0,0.0,0.0,0.0,0.0,0.0,0.0,0.0,0.0,0.0,0.0,0.0,0.0,0.0,0.0,0.0,0.0,-2.9562,-2.9577,-2.9577,-3.0576,-3.1622,-3.2657,-3.3375,-3.3408,-3.2718,-3.4104,-3.4468,-3.3796,-3.4485,-3.4452,-3.3773,-3.4502,-3.4435,-3.3829,-3.4518,-3.4849,-3.4866,-3.4883,-3.4899,-3.4899,-3.4899,-3.4899,-3.4899,-3.4899,-3.4899,-3.4899,-3.4899,-3.4899,-3.4899,-3.4899,-3.4899,-3.4899,-3.4899,-3.4899,-3.4899,-3.4899,-3.4899,-3.4899,-3.4875,-3.4963,-3.4609,-3.2808,-3.3341,-3.3884,-3.2612,-3.2423,-3.2482,-3.2482,-3.1943,-3.166,-3.2318,-3.0851,-2.9789,-3.0387,-2.9968,-2.9606,-2.9606,-2.9592,-2.9577,-2.9577,-2.9562,-2.9292,-2.8622,-2.8562,-2.8278,-2.7645,-2.76,-2.76,-2.76,-2.76,-2.76,-2.76,-2.76,-2.76,-2.76,-2.76,-2.76,-2.76,-2.76,-2.76,-1.1845,0.0,0.0,0.0,0.0,0.0,0.0,0.0,0.0,0.0,0.0,0.0,0.0,0.0,0.0,0.0,0.0,0.0,0.0,0.0,0.0,0.0,0.0,0.0,0.0,0.0,0.0,0.0,-2.8925,-2.9388,-2.9388,-3.0851,-3.1985,-3.268,-3.2917,-3.2917,-3.2702,-3.3094,-3.3216,-3.3017,-3.3193,-3.3216,-3.3017,-3.3232,-3.3216,-3.3033,-3.3232,-3.3607,-3.4137,-3.4667,-3.4899,-3.4899,-3.4899,-3.4899,-3.4899,-3.4899,-3.4899,-3.4899,-3.4899,-3.4899,-3.4899,-3.4899,-3.4899,-3.4899,-3.4899,-3.4899,-3.4899,-3.4899,-3.4899,-3.4811,-3.4423,-3.4021,-3.3466,-3.2432,-3.2569,-3.2555,-3.1182,-3.1336,-3.191,-3.2353,-3.119,-3.0313,-3.0956,-3.0238,-2.9666,-2.9804,-2.9726,-2.9606,-2.9606,-2.916,-2.8876,-2.8876,-2.8453,-2.8079,-2.7899,-2.7884,-2.7809,-2.76,-2.76,-2.76,-2.76,-2.76,-2.76,-2.76,-2.76,-2.76,-2.76,-2.76,-2.76,-2.76,-2.76,-2.76,0.0,0.0,0.0,0.0,0.0,0.0,0.0,0.0,0.0,0.0,0.0,0.0,0.0,0.0,0.0,0.0,0.0,0.0,0.0,0.0,0.0,0.0,0.0,0.0,0.0,-2.764,-2.7891,-2.8207,-2.8639,-2.8978,-2.9213,-3.0376,-3.1261,-3.1763,-3.2083,-3.21,-3.1785,-3.2381,-3.2547,-3.2249,-3.2547,-3.2531,-3.2249,-3.2569,-3.2531,-3.2266,-3.2564,-3.2928,-3.3359,-3.3789,-3.4336,-3.4866,-3.4551,-3.4618,-3.4899,-3.4899,-3.4899,-3.4899,-3.4899,-3.4899,-3.4899,-3.4899,-3.4899,-3.4899,-3.4899,-3.4684,-3.4435,-3.4435,-3.422,-3.3902,-3.3603,-3.3486,-3.3157,-3.1972,-3.2189,-3.2254,-3.067,-3.0487,-3.0803,-3.1475,-3.0516,-2.9774,-3.0402,-2.952,-2.8873,-2.9131,-2.8948,-2.8768,-2.8768,-2.8438,-2.8173,-2.8173,-2.7839,-2.76,-2.76,-2.76,-2.76,-2.76,-2.76,-2.76,-2.76,-2.76,-2.76,-2.76,-2.76,-2.76,-2.76,-2.76,-2.76,-2.76,-2.76,-2.76,0.0,0.0,0.0,0.0,0.0,0.0,-1.8858,-1.8816,0.0,0.0,0.0,0.0,0.0,0.0,0.0,0.0,0.0,0.0,0.0,0.0,0.0,0.0,0.0,0.0,-2.7119,-2.7569,-2.8106,-2.8805,-2.8553,-2.8584,-2.91,-2.9607,-3.007,-3.0506,-3.1135,-3.1168,-3.0506,-3.1802,-3.2133,-3.1499,-3.2133,-3.2116,-3.1499,-3.215,-3.21,-3.1515,-3.2166,-3.2497,-3.2564,-3.2481,-3.3309,-3.4584,-3.3922,-3.4071,-3.4651,-3.4651,-3.4651,-3.4651,-3.4651,-3.4651,-3.4651,-3.4651,-3.4651,-3.4651,-3.4651,-3.4187,-3.3696,-3.3696,-3.3216,-3.2702,-3.2702,-3.3154,-3.3182,-3.1478,-3.1958,-3.2328,-3.054,-2.9714,-2.948,-3.0078,-2.9729,-2.9562,-3.0088,-2.8727,-2.7809,-2.8397,-2.7989,-2.76,-2.76,-2.76,-2.76,-2.76,-2.76,-2.76,-2.76,-2.76,-2.76,-2.76,-2.76,-2.76,-2.76,-2.76,-2.76,-2.76,-2.76,-2.76,-2.76,-2.76,-2.76,-2.76,-2.76,-2.76,0.0,-1.781,-1.8467,0.0,0.0,0.0,0.0,-1.7778,0.0,0.0,0.0,0.0,0.0,0.0,0.0,0.0,0.0,0.0,0.0,0.0,0.0,0.0,0.0,0.0,-2.6366,-2.6502,-2.6781,-2.7284,-2.8124,-2.8834,-2.9329,-2.9992,-3.0405,-3.0506,-3.0638,-3.0638,-3.0506,-3.0787,-3.0853,-3.0721,-3.0853,-3.0837,-3.0721,-3.0853,-3.0837,-3.0721,-3.087,-3.1267,-3.1763,-3.1168,-3.1802,-3.3116,-3.2984,-3.3017,-3.3133,-3.3133,-3.3133,-3.3133,-3.3133,-3.3133,-3.3133,-3.3133,-3.3133,-3.3133,-3.3133,-3.3033,-3.2895,-3.2895,-3.2818,-3.2702,-3.2702,-3.2524,-3.2097,-3.1165,-3.0925,-3.0513,-2.9024,-2.8733,-2.8643,-2.8255,-2.8064,-2.8019,-2.8154,-2.7854,-2.7645,-2.7779,-2.769,-2.76,-2.76,-2.76,-2.76,-2.76,-2.76,-2.76,-2.76,-2.76,-2.76,-2.76,-2.76,-2.76,-2.76,-2.76,-2.76,-2.76,-2.76,-2.76,-2.76,-2.76,-2.76,-2.76,-2.76,-2.76,0.0,0.0,-1.9893,-1.9263,0.0,0.0,0.0,0.0,0.0,0.0,0.0,0.0,0.0,0.0,0.0,0.0,0.0,0.0,0.0,0.0,0.0,0.0,0.0,0.0,-2.5768,-2.6052,-2.6477,-2.7195,-2.8053,-2.8551,-2.8498,-2.9114,-2.9615,-2.9926,-2.9943,-3.0125,-3.0506,-3.0506,-3.0506,-3.0506,-3.0506,-3.0506,-3.0506,-3.0506,-3.0506,-3.0506,-3.0506,-3.0704,-3.1019,-3.0654,-3.0936,-3.1636,-3.2017,-3.2381,-3.2702,-3.2702,-3.2702,-3.2702,-3.2702,-3.2702,-3.2702,-3.2702,-3.2702,-3.2702,-3.2702,-3.2431,-3.2067,-3.1719,-3.1603,-3.1603,-3.1603,-3.1429,-3.1089,-3.0492,-3.0036,-2.9479,-2.8515,-2.8217,-2.8004,-2.766,-2.76,-2.76,-2.76,-2.76,-2.76,-2.76,-2.76,-2.76,-2.76,-2.76,-2.76,-2.76,-2.76,-2.76,-2.76,-2.76,-2.76,-2.76,-2.76,-2.76,-2.76,-2.76,-2.76,-2.76,-2.76,-2.76,-2.76,-2.76,-2.76,-2.76,-2.76,-2.76,0.0,0.0,0.0,0.0,0.0,-2.1182,0.0,0.0,0.0,-1.991,0.0,0.0,0.0,0.0,0.0,0.0,0.0,0.0,0.0,0.0,0.0,0.0,0.0,0.0,0.0,-2.5246,-2.5778,-2.6831,-2.7306,-2.7476,-2.7335,-2.8017,-2.8658,-2.9201,-2.9314,-2.9678,-3.0274,-3.0423,-3.0506,-3.0506,-3.0506,-3.0506,-3.0506,-3.0506,-3.0506,-3.0506,-3.0506,-3.0506,-3.0506,-3.0506,-3.0506,-3.0555,-3.1168,-3.1752,-3.2266,-3.2266,-3.2266,-3.2266,-3.2266,-3.2266,-3.2266,-3.2266,-3.2266,-3.2266,-3.2266,-3.1868,-3.1267,-3.0671,-3.0506,-3.0506,-3.0506,-3.0363,-3.0135,-2.975,-2.9234,-2.8701,-2.8255,-2.787,-2.76,-2.76,-2.76,-2.76,-2.76,-2.76,-2.76,-2.76,-2.76,-2.76,-2.76,-2.76,-2.76,-2.76,-2.76,-2.76,-2.76,-2.76,-2.76,-2.76,-2.76,-2.76,-2.76,-2.76,-2.76,-2.76,-2.76,-2.76,-2.76,-2.76,-2.76,-2.76,-2.76,-2.76,0.0,0.0,0.0,0.0,-2.2243,0.0,0.0,0.0,-2.1042,-1.9907,0.0,0.0,0.0,0.0,0.0,0.0,0.0,0.0,0.0,0.0,0.0,0.0,0.0,0.0,0.0,-2.2834,-2.2892,-2.4298,-2.4464,-2.5043,-2.6279,-2.7659,-2.8426,-2.8508,-2.9085,-2.943,-2.9512,-3.0174,-3.0506,-3.0506,-3.0506,-3.0506,-3.0506,-3.0506,-3.0506,-3.0506,-3.0506,-3.0506,-3.0506,-3.0506,-3.0506,-3.0506,-3.0588,-3.0671,-3.0737,-3.0737,-3.0737,-3.0737,-3.0737,-3.0737,-3.0737,-3.0737,-3.0737,-3.0737,-3.0737,-3.0688,-3.0605,-3.0522,-3.0506,-3.0506,-3.0506,-2.9881,-2.9234,-2.9189,-2.8463,-2.776,-2.7685,-2.765,-2.76,-2.76,-2.76,-2.76,-2.76,-2.76,-2.76,-2.76,-2.76,-2.76,-2.76,-2.76,-2.76,-2.76,-2.76,-2.76,-2.76,-2.76,-2.76,-2.76,-2.76,-2.76,-2.76,-2.76,-2.76,-2.76,-2.76,-2.76,-2.76,-2.76,-2.76,-2.76,-2.76,-2.76,0.0,0.0,0.0,0.0,0.0,0.0,-2.1797,0.0,-2.1116,0.0,0.0,0.0,0.0,0.0,0.0,0.0,0.0,0.0,0.0,0.0,0.0,0.0,0.0,0.0,0.0,0.0,0.0,0.0,-2.3205,-2.3553,-2.5457,-2.6154,-2.6884,-2.7729,-2.8028,-2.8572,-2.938,-2.9711,-3.0075,-3.0506,-3.0506,-3.0506,-3.0506,-3.0506,-3.0506,-3.0506,-3.0506,-3.0506,-3.0506,-3.0506,-3.0506,-3.0506,-3.0506,-3.0506,-3.0506,-3.0506,-3.0506,-3.0506,-3.0506,-3.0506,-3.0506,-3.0506,-3.0506,-3.0506,-3.0506,-3.0506,-3.0506,-3.0506,-3.03,-3.0092,-3.0092,-2.9595,-2.9097,-2.9097,-2.8535,-2.8002,-2.8002,-2.7795,-2.76,-2.76,-2.76,-2.76,-2.76,-2.76,-2.76,-2.76,-2.76,-2.76,-2.76,-2.76,-2.76,-2.76,-2.76,-2.76,-2.76,-2.76,-2.76,-2.76,-2.76,-2.76,-2.76,-2.76,-2.76,-2.76,-2.76,-2.76,-2.76,-2.76,-2.76,-2.76,-2.76,-2.76,-2.2283,0.0,0.0,0.0,0.0,0.0,0.0,0.0,0.0,0.0,0.0,0.0,0.0,0.0,0.0,0.0,0.0,0.0,0.0,0.0,0.0,0.0,0.0,0.0,0.0,0.0,0.0,0.0,0.0,-2.1947,-2.4381,-2.4878,-2.559,-2.6669,-2.7083,-2.7796,-2.882,-2.9019,-2.94,-2.993,-3.0108,-3.0191,-3.0208,-3.0406,-3.0506,-3.0506,-3.0506,-3.0506,-3.0506,-3.0506,-3.0506,-3.0506,-3.0506,-3.0506,-3.0506,-3.0506,-3.0506,-3.0506,-3.0506,-3.0506,-3.0506,-3.0506,-3.0506,-3.0506,-3.0506,-3.0506,-3.0506,-3.0506,-3.0241,-2.9984,-2.9984,-2.9639,-2.9257,-2.912,-2.8685,-2.8264,-2.8134,-2.7845,-2.76,-2.76,-2.76,-2.76,-2.76,-2.76,-2.76,-2.76,-2.76,-2.76,-2.76,-2.76,-2.76,-2.76,-2.76,-2.76,-2.76,-2.76,-2.76,-2.76,-2.76,-2.76,-2.76,-2.76,-2.76,-2.76,-2.76,-2.76,-2.76,-2.76,-2.76,-2.76,-2.76,-2.76,0.0,0.0,0.0,-2.2178,0.0,0.0,0.0,0.0,-2.2626,0.0,0.0,0.0,0.0,0.0,0.0,0.0,0.0,0.0,0.0,0.0,0.0,0.0,0.0,0.0,0.0,0.0,0.0,0.0,0.0,0.0,-2.2808,-2.4332,-2.5127,-2.5176,-2.6569,-2.7315,-2.7383,-2.8078,-2.8442,-2.8475,-2.9135,-2.943,-2.9446,-3.0174,-3.0506,-3.0506,-3.0506,-3.0506,-3.0506,-3.0506,-3.0506,-3.0506,-3.0506,-3.0506,-3.0506,-3.0506,-3.0506,-3.0506,-3.0506,-3.0506,-3.0506,-3.0506,-3.0506,-3.0506,-3.0506,-3.0506,-3.0506,-3.0506,-3.0506,-3.0468,-3.0468,-3.0135,-2.9661,-2.9212,-2.8685,-2.8183,-2.771,-2.761,-2.76,-2.76,-2.76,-2.76,-2.76,-2.76,-2.76,-2.76,-2.76,-2.76,-2.76,-2.76,-2.76,-2.76,-2.76,-2.76,-2.76,-2.76,-2.76,-2.76,-2.76,-2.76,-2.76,-2.76,-2.76,-2.76,-2.76,-2.76,-2.76,-2.76,-2.76,-2.76,-2.76,-2.76,0.0,0.0,-2.4381,-2.2891,0.0,0.0,0.0,0.0,0.0,0.0,0.0,0.0,0.0,0.0,0.0,0.0,0.0,0.0,0.0,0.0,0.0,0.0,0.0,0.0,0.0,0.0,0.0,0.0,-1.9068,0.0,0.0,-2.3835,-2.4597,-2.5094,-2.6071,-2.6818,-2.7298,-2.7547,-2.7912,-2.8392,-2.8641,-2.8738,-2.8757,-2.8986,-2.9102,-2.9102,-2.9102,-2.9367,-2.9761,-2.9761,-3.0059,-3.0506,-3.0506,-3.0506,-3.0506,-3.0506,-3.0506,-3.0506,-3.0506,-3.0506,-3.0506,-3.0506,-3.0506,-3.0506,-3.0506,-3.0506,-3.0506,-3.0506,-3.0279,-3.0049,-3.0049,-2.9683,-2.9303,-2.9159,-2.8685,-2.8352,-2.8559,-2.8067,-2.7685,-2.8002,-2.7795,-2.76,-2.76,-2.76,-2.76,-2.76,-2.76,-2.76,-2.76,-2.76,-2.76,-2.76,-2.76,-2.76,-2.76,-2.76,-2.76,-2.76,-2.76,-2.76,-2.76,-2.76,-2.76,-2.76,-2.76,-2.76,-2.76,-2.76,-2.76,-2.76,-2.76,-2.76,-2.4431,-2.4746,0.0,-2.3586,-2.3288,0.0,-2.2361,0.0,0.0,0.0,0.0,0.0,0.0,0.0,0.0,0.0,0.0,0.0,0.0,0.0,0.0,0.0,0.0,0.0,0.0,0.0,-1.6845,-1.9051,0.0,0.0,0.0,0.0,-2.4216,-2.4696,-2.5672,-2.6435,-2.6901,-2.6917,-2.7149,-2.7611,-2.7879,-2.8011,-2.8011,-2.8276,-2.8392,-2.8392,-2.8392,-2.8658,-2.9036,-2.9036,-2.9466,-3.0108,-3.0108,-3.0257,-3.0506,-3.0506,-3.0506,-3.0506,-3.0506,-3.0506,-3.0506,-3.0506,-3.0506,-3.0506,-3.0506,-3.0506,-3.0506,-3.0506,-3.0279,-3.0049,-3.0049,-2.9815,-2.955,-2.9393,-2.9081,-2.8834,-2.8803,-2.8319,-2.7894,-2.8027,-2.7795,-2.76,-2.76,-2.76,-2.7625,-2.765,-2.7675,-2.7675,-2.774,-2.774,-2.774,-2.774,-2.774,-2.7715,-2.7675,-2.7675,-2.765,-2.76,-2.76,-2.76,-2.76,-2.76,-2.76,-2.76,-2.76,-2.76,-2.76,-2.76,-2.76,-2.76,-2.76,-2.76]},{"header":{"parameterUnit":"m.s-1","parameterCategory":1,"la1":30.6,"la2":29.2853,"lo1":-89.7004,"lo2":-87.6739,"dy":0.0162,"dx":0.0183,"nx":112,"ny":82,"refTime":"2024-08-08T18:00:00:Z","depth":0,"parameterNumber":3,"parameterNumberName":"V-component_of_WINDS"},"data":[0.0,0.0,0.0,0.0,0.0,0.0,0.0,0.0,0.0,0.0,0.0,0.0,0.0,0.0,0.0,0.0,0.0,0.0,0.0,0.0,0.0,0.0,0.0,0.0,0.0,0.0,0.0,0.0,0.0,0.0,0.0,0.0,0.0,0.0,0.0,0.0,0.0,0.0,0.0,0.0,0.0,0.0,0.0,0.0,0.0,0.0,0.0,0.0,0.0,0.0,0.0,0.0,0.0,0.0,0.0,0.0,0.0,0.0,0.0,0.0,0.0,0.0,0.0,0.0,0.0,0.0,0.0,0.0,0.0,0.0,0.0,0.0,0.0,0.0,0.0,0.0,0.0,0.0,0.0,0.0,0.0,0.0,0.0,0.0,0.0,0.0,0.0,0.0,0.0,0.0,0.0,-1.9845,-2.2502,-2.4083,-2.4083,-2.3456,-2.1784,-1.8744,0.0,0.0,0.0,0.0,0.0,0.0,0.0,0.0,0.0,0.0,0.0,0.0,0.0,0.0,0.0,0.0,0.0,0.0,0.0,0.0,0.0,0.0,0.0,0.0,0.0,0.0,0.0,0.0,0.0,0.0,0.0,0.0,0.0,0.0,0.0,0.0,0.0,0.0,0.0,0.0,0.0,0.0,0.0,0.0,0.0,0.0,0.0,0.0,0.0,0.0,0.0,0.0,0.0,0.0,0.0,0.0,0.0,0.0,0.0,0.0,0.0,0.0,0.0,0.0,0.0,0.0,0.0,0.0,0.0,0.0,0.0,0.0,0.0,0.0,0.0,0.0,0.0,0.0,0.0,0.0,0.0,0.0,0.0,0.0,0.0,0.0,0.0,0.0,0.0,0.0,0.0,0.0,0.0,0.0,0.0,0.0,0.0,0.0,0.0,0.0,0.0,0.0,0.0,0.0,-1.7264,-2.1551,-2.3263,-2.4083,-2.4083,-2.3117,-2.1472,-1.8998,0.0,0.0,0.0,0.0,0.0,0.0,0.0,0.0,0.0,0.0,0.0,0.0,0.0,0.0,0.0,0.0,0.0,0.0,0.0,0.0,0.0,0.0,0.0,0.0,0.0,0.0,0.0,0.0,0.0,0.0,0.0,0.0,0.0,0.0,0.0,0.0,0.0,0.0,0.0,0.0,0.0,0.0,0.0,0.0,0.0,0.0,0.0,0.0,0.0,0.0,0.0,0.0,0.0,0.0,0.0,0.0,0.0,0.0,0.0,0.0,0.0,0.0,0.0,0.0,0.0,0.0,0.0,0.0,0.0,0.0,0.0,0.0,0.0,0.0,0.0,0.0,0.0,0.0,0.0,0.0,0.0,0.0,0.0,0.0,0.0,0.0,0.0,0.0,0.0,0.0,0.0,0.0,0.0,0.0,0.0,0.0,0.0,0.0,0.0,0.0,0.0,0.0,0.0,-1.6781,-1.8989,-2.2061,-2.342,-2.3981,-2.3626,-2.2884,-2.1276,-1.8636,-1.6512,0.0,0.0,0.0,0.0,0.0,0.0,0.0,0.0,0.0,0.0,0.0,0.0,0.0,0.0,0.0,0.0,0.0,0.0,0.0,0.0,0.0,0.0,0.0,0.0,0.0,0.0,0.0,0.0,0.0,0.0,0.0,0.0,0.0,0.0,0.0,0.0,0.0,0.0,0.0,0.0,0.0,0.0,0.0,0.0,0.0,0.0,0.0,0.0,0.0,0.0,0.0,0.0,0.0,0.0,0.0,0.0,0.0,0.0,0.0,0.0,0.0,0.0,0.0,0.0,0.0,0.0,0.0,0.0,0.0,0.0,0.0,0.0,0.0,0.0,0.0,0.0,0.0,0.0,0.0,0.0,0.0,0.0,0.0,0.0,0.0,0.0,0.0,0.0,0.0,0.0,0.0,0.0,0.0,0.0,0.0,0.0,0.0,0.0,0.0,0.0,0.0,0.0,-1.9041,-2.0635,-2.2231,-2.342,-2.3848,-2.3234,-2.2321,-2.074,-1.8257,-1.5513,0.0,0.0,0.0,0.0,0.0,0.0,0.0,0.0,0.0,0.0,0.0,0.0,0.0,0.0,0.0,0.0,0.0,0.0,0.0,0.0,0.0,0.0,0.0,0.0,0.0,0.0,0.0,0.0,0.0,0.0,0.0,0.0,0.0,0.0,0.0,0.0,0.0,0.0,0.0,0.0,0.0,0.0,0.0,0.0,0.0,0.0,0.0,0.0,0.0,0.0,0.0,0.0,0.0,0.0,0.0,0.0,0.0,0.0,0.0,0.0,0.0,0.0,0.0,0.0,0.0,0.0,0.0,0.0,0.0,0.0,0.0,0.0,0.0,0.0,0.0,0.0,0.0,0.0,0.0,0.0,0.0,0.0,0.0,0.0,0.0,0.0,0.0,0.0,0.0,0.0,0.0,0.0,0.0,0.0,0.0,0.0,0.0,0.0,0.0,0.0,0.0,0.0,-1.8885,-2.108,-2.2283,-2.3404,-2.3848,-2.3234,-2.1237,-1.9447,-1.8179,-1.4385,0.0,0.0,0.0,0.0,0.0,0.0,0.0,0.0,0.0,0.0,0.0,0.0,0.0,0.0,0.0,0.0,0.0,0.0,0.0,0.0,0.0,0.0,0.0,0.0,0.0,0.0,0.0,0.0,0.0,0.0,0.0,0.0,0.0,0.0,0.0,0.0,0.0,0.0,0.0,0.0,0.0,0.0,0.0,0.0,0.0,0.0,0.0,0.0,0.0,0.0,0.0,0.0,0.0,0.0,0.0,0.0,0.0,0.0,0.0,0.0,0.0,0.0,0.0,0.0,0.0,0.0,0.0,0.0,0.0,0.0,0.0,0.0,0.0,0.0,0.0,0.0,0.0,0.0,0.0,0.0,0.0,0.0,0.0,0.0,0.0,0.0,0.0,0.0,0.0,0.0,0.0,0.0,0.0,0.0,0.0,0.0,0.0,0.0,0.0,0.0,0.0,0.0,-1.8453,-2.0308,0.0,-2.2779,-2.2962,-2.2727,-2.125,-1.9418,-1.7173,0.0,0.0,0.0,0.0,0.0,0.0,0.0,0.0,0.0,0.0,0.0,0.0,0.0,0.0,0.0,0.0,0.0,0.0,0.0,0.0,0.0,0.0,0.0,0.0,0.0,0.0,0.0,0.0,0.0,0.0,0.0,0.0,0.0,0.0,0.0,0.0,0.0,0.0,0.0,0.0,0.0,0.0,0.0,0.0,0.0,0.0,0.0,0.0,0.0,0.0,0.0,0.0,0.0,0.0,0.0,0.0,0.0,0.0,0.0,0.0,0.0,0.0,0.0,0.0,0.0,0.0,0.0,0.0,0.0,0.0,0.0,0.0,0.0,0.0,0.0,0.0,0.0,0.0,0.0,0.0,0.0,0.0,0.0,0.0,0.0,0.0,0.0,0.0,0.0,0.0,0.0,0.0,0.0,0.0,0.0,0.0,0.0,0.0,0.0,0.0,0.0,0.0,-1.6754,-1.8362,-1.9943,0.0,-2.2283,-2.2322,-2.2139,-2.0752,-1.8881,-1.6565,0.0,0.0,0.0,0.0,0.0,0.0,0.0,0.0,0.0,0.0,0.0,0.0,0.0,0.0,0.0,0.0,0.0,0.0,0.0,0.0,0.0,0.0,0.0,0.0,0.0,0.0,0.0,0.0,0.0,0.0,0.0,0.0,0.0,0.0,0.0,0.0,0.0,0.0,0.0,0.0,0.0,0.0,0.0,0.0,0.0,0.0,0.0,0.0,0.0,0.0,0.0,0.0,0.0,0.0,0.0,0.0,0.0,0.0,0.0,0.0,0.0,0.0,0.0,0.0,0.0,0.0,0.0,0.0,0.0,0.0,0.0,0.0,0.0,0.0,0.0,0.0,0.0,0.0,0.0,0.0,0.0,0.0,0.0,0.0,0.0,0.0,0.0,0.0,0.0,0.0,0.0,0.0,0.0,0.0,0.0,0.0,0.0,0.0,0.0,0.0,0.0,0.0,-1.6754,-1.8715,-2.0231,-2.1394,-2.2035,-2.2139,-2.1564,-1.942,-1.7617,0.0,0.0,0.0,0.0,0.0,0.0,0.0,0.0,0.0,0.0,0.0,0.0,0.0,0.0,0.0,0.0,0.0,0.0,0.0,0.0,0.0,0.0,0.0,0.0,0.0,0.0,0.0,0.0,0.0,0.0,0.0,0.0,0.0,0.0,0.0,0.0,0.0,0.0,0.0,0.0,0.0,0.0,0.0,0.0,0.0,0.0,0.0,0.0,0.0,0.0,0.0,0.0,0.0,0.0,0.0,0.0,0.0,0.0,0.0,0.0,0.0,0.0,0.0,0.0,0.0,0.0,0.0,0.0,0.0,0.0,0.0,0.0,0.0,0.0,0.0,0.0,0.0,0.0,0.0,0.0,0.0,0.0,0.0,0.0,0.0,0.0,0.0,0.0,0.0,0.0,0.0,0.0,0.0,0.0,0.0,0.0,0.0,0.0,0.0,0.0,0.0,0.0,0.0,-1.6754,-1.8349,-1.9773,-2.1342,-2.1328,-2.1276,-2.1485,-1.976,-1.7839,-1.5879,0.0,0.0,0.0,0.0,0.0,0.0,0.0,0.0,0.0,0.0,0.0,0.0,0.0,0.0,0.0,0.0,0.0,0.0,0.0,0.0,0.0,0.0,0.0,0.0,0.0,0.0,0.0,0.0,0.0,0.0,0.0,0.0,0.0,0.0,0.0,0.0,0.0,0.0,0.0,0.0,0.0,0.0,0.0,0.0,0.0,0.0,0.0,0.0,0.0,0.0,0.0,0.0,0.0,0.0,0.0,0.0,0.0,0.0,0.0,0.0,0.0,0.0,0.0,0.0,0.0,0.0,0.0,0.0,0.0,0.0,0.0,0.0,0.0,0.0,0.0,0.0,0.0,0.0,0.0,0.0,0.0,0.0,0.0,0.0,0.0,0.0,0.0,0.0,0.0,0.0,0.0,0.0,0.0,0.0,0.0,0.0,0.0,0.0,0.0,0.0,0.0,0.0,-1.6754,-1.8192,-1.9486,-2.1002,-2.0883,-2.0818,-2.1146,-1.9773,-1.8127,-1.6284,0.0,0.0,0.0,0.0,0.0,0.0,0.0,0.0,0.0,0.0,0.0,0.0,0.0,0.0,0.0,0.0,0.0,0.0,0.0,0.0,0.0,0.0,0.0,0.0,0.0,0.0,0.0,0.0,0.0,0.0,0.0,0.0,0.0,0.0,0.0,0.0,0.0,0.0,0.0,0.0,0.0,0.0,0.0,0.0,0.0,0.0,0.0,0.0,0.0,0.0,0.0,0.0,0.0,0.0,0.0,0.0,0.0,0.0,0.0,0.0,0.0,0.0,0.0,0.0,0.0,0.0,0.0,0.0,0.0,0.0,0.0,0.0,0.0,0.0,0.0,0.0,0.0,0.0,0.0,0.0,0.0,0.0,0.0,0.0,0.0,0.0,0.0,0.0,0.0,0.0,0.0,0.0,0.0,0.0,0.0,0.0,0.0,0.0,0.0,0.0,0.0,0.0,-1.6767,-1.8192,-1.9355,-2.0581,-2.0699,-2.0699,-2.0699,-1.9601,-1.8414,-1.7264,0.0,0.0,0.0,0.0,0.0,0.0,0.0,0.0,0.0,0.0,0.0,0.0,0.0,0.0,0.0,0.0,0.0,0.0,0.0,0.0,0.0,0.0,0.0,0.0,0.0,0.0,0.0,0.0,0.0,0.0,0.0,0.0,0.0,0.0,0.0,0.0,0.0,0.0,0.0,0.0,0.0,0.0,0.0,0.0,0.0,0.0,0.0,0.0,0.0,0.0,0.0,0.0,0.0,0.0,0.0,0.0,0.0,0.0,0.0,0.0,-1.467,0.0,0.0,0.0,0.0,0.0,0.0,0.0,0.0,0.0,0.0,0.0,0.0,0.0,0.0,0.0,0.0,0.0,0.0,0.0,0.0,0.0,0.0,0.0,0.0,0.0,0.0,0.0,0.0,0.0,0.0,0.0,0.0,0.0,0.0,0.0,0.0,0.0,0.0,0.0,0.0,0.0,-1.6807,-1.8192,-1.9355,-2.0581,-2.0699,-2.0699,-2.0699,-1.9601,-1.8414,-1.7264,-1.533,0.0,0.0,0.0,0.0,0.0,0.0,0.0,0.0,0.0,0.0,0.0,0.0,0.0,0.0,0.0,0.0,0.0,0.0,0.0,0.0,0.0,0.0,0.0,0.0,0.0,0.0,0.0,0.0,0.0,0.0,0.0,0.0,0.0,0.0,0.0,0.0,0.0,0.0,0.0,0.0,0.0,0.0,0.0,0.0,0.0,0.0,0.0,0.0,0.0,0.0,0.0,0.0,0.0,0.0,0.0,0.0,0.0,0.0,0.0,0.0,-1.5818,0.0,0.0,0.0,0.0,0.0,0.0,0.0,0.0,0.0,0.0,0.0,0.0,0.0,0.0,0.0,0.0,0.0,0.0,0.0,0.0,0.0,0.0,0.0,0.0,0.0,0.0,0.0,0.0,0.0,0.0,0.0,0.0,0.0,0.0,0.0,0.0,0.0,0.0,0.0,0.0,-1.7264,-1.8623,-1.9682,-2.0607,-2.0699,-2.0699,-2.0699,-1.9876,-1.8963,-1.8074,-1.6402,0.0,0.0,0.0,0.0,0.0,0.0,0.0,0.0,0.0,0.0,0.0,0.0,0.0,0.0,0.0,0.0,0.0,0.0,0.0,0.0,0.0,0.0,0.0,0.0,0.0,0.0,0.0,0.0,0.0,0.0,0.0,0.0,0.0,0.0,0.0,0.0,0.0,0.0,0.0,0.0,0.0,0.0,0.0,0.0,0.0,0.0,0.0,0.0,0.0,0.0,0.0,0.0,0.0,-2.3257,-2.3582,-2.3905,-2.3781,-2.3994,-2.4228,-2.119,-1.969,-1.93,-1.7685,0.0,0.0,0.0,0.0,0.0,0.0,0.0,0.0,0.0,0.0,0.0,0.0,0.0,0.0,0.0,0.0,0.0,0.0,0.0,0.0,0.0,0.0,0.0,0.0,-2.0105,-1.9802,-1.5956,0.0,0.0,0.0,0.0,0.0,0.0,0.0,0.0,0.0,0.0,0.0,-1.7774,-1.9094,-2.0022,-2.0646,-2.0699,-2.0699,-2.0699,-2.0164,-1.9538,-1.8937,-1.7512,-1.6153,0.0,0.0,0.0,0.0,0.0,0.0,0.0,0.0,0.0,0.0,0.0,0.0,0.0,0.0,0.0,0.0,0.0,0.0,0.0,0.0,0.0,0.0,0.0,0.0,0.0,0.0,0.0,0.0,0.0,0.0,0.0,0.0,-1.2884,-1.3683,0.0,0.0,0.0,0.0,0.0,0.0,0.0,0.0,0.0,0.0,0.0,0.0,0.0,-2.2694,-2.4345,-2.598,-2.6875,-2.7028,-2.8622,-2.9139,-2.8675,-2.8153,-2.7931,-2.7953,-2.6903,0.0,-2.1731,-2.0461,0.0,0.0,0.0,0.0,0.0,0.0,0.0,0.0,0.0,0.0,0.0,0.0,0.0,0.0,0.0,0.0,0.0,0.0,0.0,0.0,0.0,0.0,-2.2122,-2.1329,-2.1668,-2.1837,0.0,-1.8507,-1.6638,-1.639,-1.4412,0.0,0.0,0.0,0.0,0.0,0.0,0.0,-1.7917,-1.9094,-2.0022,-2.0646,-2.0699,-2.0699,-2.0699,-2.0164,-1.9538,-1.8937,-1.8257,-1.7356,-1.6205,-1.51,0.0,0.0,0.0,0.0,0.0,0.0,0.0,0.0,0.0,0.0,0.0,0.0,0.0,0.0,0.0,0.0,0.0,0.0,0.0,0.0,0.0,0.0,0.0,0.0,0.0,0.0,0.0,0.0,0.0,-1.3019,-1.5078,-1.5911,-1.6313,-1.6094,0.0,0.0,0.0,0.0,0.0,0.0,0.0,0.0,0.0,-2.4727,-2.5253,-2.6344,-2.8071,-2.8914,-2.9504,-2.9901,-3.0684,-3.0923,-3.067,-3.0383,-3.0285,-3.0252,-2.9962,-2.8575,-2.6335,-2.3795,-2.1775,-2.0177,0.0,0.0,0.0,0.0,-1.8253,-1.8185,-1.9212,-1.9264,-1.8866,-1.8768,0.0,0.0,0.0,0.0,0.0,0.0,0.0,0.0,0.0,0.0,-2.3023,-2.3378,-2.3406,-2.3274,-2.3027,-2.1668,-2.0106,0.0,-1.7809,-1.6723,-1.543,0.0,0.0,0.0,0.0,-1.7761,-1.8911,-1.9797,-2.0412,-2.0673,-2.0699,-2.0699,-2.0699,-2.0451,-1.9891,-1.8963,-1.8675,-1.8035,-1.6898,-1.6049,-1.5231,0.0,0.0,0.0,0.0,0.0,0.0,0.0,0.0,0.0,0.0,0.0,0.0,0.0,0.0,0.0,0.0,0.0,0.0,0.0,0.0,0.0,0.0,0.0,0.0,0.0,0.0,0.0,0.0,-1.5178,-1.7209,-1.7967,-1.8706,-1.8611,0.0,0.0,0.0,0.0,0.0,0.0,-2.328,-2.4739,-2.6216,-2.7706,-2.8394,-2.9462,-3.0961,-3.0975,-3.1316,-3.1963,-3.1963,-3.1929,-3.1814,-3.1814,-3.1732,-3.163,-3.163,-3.1041,-2.9811,-2.6824,-2.4612,-2.2997,-2.1922,-2.1319,-2.1049,-2.1004,-2.0768,-2.0618,-2.1732,-2.1789,-2.1368,-2.1398,-2.1039,-2.0378,-1.9106,0.0,0.0,0.0,0.0,-2.1226,-2.3568,-2.382,-2.3763,-2.4914,-2.4753,-2.4334,-2.4334,-2.3864,-2.2869,0.0,-2.0717,-2.0106,-1.8052,0.0,0.0,0.0,0.0,-1.9224,-1.993,-2.0543,-2.0844,-2.0725,-2.0699,-2.0699,-2.0699,-2.0699,-2.0177,-1.8976,-1.8911,-1.8388,-1.7251,-1.682,-1.6323,-1.5735,0.0,0.0,0.0,0.0,0.0,0.0,0.0,0.0,0.0,0.0,0.0,0.0,0.0,0.0,0.0,0.0,0.0,0.0,0.0,0.0,0.0,0.0,0.0,0.0,0.0,0.0,0.0,0.0,0.0,-1.9335,-2.1403,0.0,0.0,0.0,0.0,-2.1988,-2.4193,-2.5865,-2.654,-2.8324,-2.9645,-3.0287,-3.0965,-3.1626,-3.23,-3.2314,-3.2623,-3.3192,-3.3192,-3.3003,-3.2642,-3.2642,-3.2429,-3.2083,-3.2083,-3.1541,-3.0543,-2.9162,-2.7267,-2.5187,-2.4474,-2.3553,-2.2603,-2.2592,-2.2581,-2.2569,-2.265,-2.2306,-2.2108,-2.3632,-2.3781,-2.3282,-2.2712,-2.1853,0.0,0.0,-2.339,-2.3761,-2.5296,-2.5688,-2.5675,-2.5741,-2.5341,-2.4953,-2.4953,-2.4478,-2.3835,0.0,-2.2164,-2.1394,-2.1276,0.0,-2.0489,-2.0489,-2.0975,-2.1159,-2.07,-2.1145,-2.1263,-2.0739,-2.0699,-2.0699,-2.0699,-2.0699,-2.0177,-1.8976,-1.8911,-1.8388,-1.7251,-1.7173,-1.6911,-1.6382,-1.4642,0.0,0.0,0.0,0.0,0.0,0.0,0.0,0.0,0.0,0.0,0.0,0.0,0.0,0.0,0.0,0.0,0.0,0.0,0.0,0.0,0.0,0.0,0.0,0.0,0.0,0.0,0.0,0.0,-2.1773,-2.3983,0.0,-2.3168,-2.4517,-2.557,-2.5794,-2.734,-2.8549,-2.9167,-3.06,-3.1513,-3.1724,-3.2342,-3.2778,-3.3002,-3.3002,-3.3066,-3.329,-3.329,-3.3206,-3.3086,-3.3086,-3.286,-3.2489,-3.2489,-3.2042,-3.1246,-3.0783,-2.9542,-2.7766,-2.6336,-2.5997,-2.6257,-2.5504,-2.548,-2.5804,-2.5407,-2.5167,-2.5019,-2.5228,-2.5149,-2.4992,-2.4787,-2.4471,-2.4378,-2.5338,-2.5589,-2.5816,-2.6661,-2.6648,-2.6373,-2.6373,-2.5942,-2.5419,-2.507,-2.4835,-2.4491,-2.3916,-2.313,-2.2492,-2.2152,-2.1917,-2.1655,-2.1263,-2.1721,-2.2009,-2.1826,-2.1956,-2.1865,-2.1263,-2.1198,-2.108,-2.0738,-2.0334,-1.976,-1.8963,-1.8584,-1.8022,-1.7238,-1.7199,-1.7107,-1.6911,-1.5957,-1.4572,0.0,0.0,0.0,0.0,0.0,0.0,0.0,0.0,0.0,0.0,0.0,0.0,0.0,0.0,0.0,0.0,0.0,0.0,0.0,0.0,0.0,0.0,0.0,0.0,0.0,0.0,-2.3381,-2.3985,-2.6048,-2.7045,-2.6047,-2.7228,-2.824,-2.8675,-2.9855,-3.0726,-3.1101,-3.2145,-3.2707,-3.2707,-3.3066,-3.329,-3.329,-3.329,-3.329,-3.329,-3.329,-3.3171,-3.2909,-3.2909,-3.261,-3.2128,-3.2128,-3.185,-3.1384,-3.1134,-3.059,-2.9704,-2.8012,-2.7759,-2.82,-2.7224,-2.7164,-2.7443,-2.6624,-2.6615,-2.6855,-2.6267,-2.6348,-2.6648,-2.6419,-2.6367,-2.6446,-2.6857,-2.6961,-2.7053,-2.7398,-2.7249,-2.6961,-2.6961,-2.653,-2.6007,-2.5659,-2.5267,-2.4887,-2.4478,-2.3929,-2.3406,-2.3014,-2.2977,-2.2831,-2.2452,-2.2714,-2.2911,-2.2702,-2.2676,-2.2361,-2.159,-2.1511,-2.1276,-2.0751,-2.0164,-1.9538,-1.8937,-1.8401,-1.7826,-1.7225,-1.7199,-1.7199,-1.7199,-1.6467,-1.5409,-1.399,0.0,0.0,0.0,0.0,0.0,0.0,0.0,0.0,0.0,0.0,0.0,0.0,0.0,0.0,0.0,0.0,0.0,0.0,0.0,0.0,0.0,0.0,0.0,-2.107,-2.3004,-2.4818,-2.5881,-2.7664,-2.8577,-2.8016,-2.9546,-3.0582,-3.0582,-3.1738,-3.244,-3.244,-3.3002,-3.329,-3.329,-3.329,-3.329,-3.329,-3.329,-3.329,-3.329,-3.329,-3.2874,-3.2128,-3.2128,-3.174,-3.1024,-3.1024,-3.1024,-3.0949,-3.0317,-3.0394,-3.0823,-2.96,-2.8779,-2.8227,-2.7647,-2.7445,-2.7284,-2.6171,-2.6534,-2.7385,-2.682,-2.742,-2.8268,-2.7673,-2.749,-2.749,-2.749,-2.749,-2.749,-2.749,-2.749,-2.749,-2.749,-2.7105,-2.6732,-2.6706,-2.5829,-2.5044,-2.5005,-2.4517,-2.4109,-2.4083,-2.4083,-2.4083,-2.4083,-2.4083,0.0,-2.3287,-2.3221,-2.2791,-2.1681,-2.1551,-2.1302,-2.0777,-2.0164,-1.9538,-1.8937,-1.8401,-1.7839,-1.7251,-1.7225,-1.7225,-1.7225,-1.6127,-1.5586,-1.5622,0.0,0.0,0.0,0.0,0.0,0.0,0.0,0.0,0.0,0.0,0.0,0.0,0.0,0.0,0.0,0.0,0.0,0.0,0.0,0.0,0.0,0.0,-2.4537,-2.4537,-2.6232,-2.7771,-2.8521,-3.0249,-3.1316,-3.1148,-3.1991,-3.2519,-3.2519,-3.2841,-3.3073,-3.3073,-3.3192,-3.329,-3.329,-3.329,-3.329,-3.329,-3.329,-3.329,-3.329,-3.329,-3.3016,-3.2561,-3.2561,-3.2128,-3.1445,-3.1445,-3.1272,-3.0986,-3.0785,-3.0545,-3.019,-2.9406,-2.9561,-3.0101,-2.9051,-2.8356,-2.7926,-2.7627,-2.7477,-2.7361,-2.6772,-2.7101,-2.7646,-2.7097,-2.7188,-2.749,-2.749,-2.749,-2.749,-2.749,-2.749,-2.749,-2.749,-2.7372,-2.7183,-2.6798,-2.6457,-2.5986,-2.5162,-2.4874,-2.4596,-2.4191,-2.4083,-2.4083,-2.4083,-2.4083,0.0,-2.3861,-2.3848,-2.3548,-2.2804,-2.2374,-2.193,-2.1328,-2.0374,-1.9538,-1.8937,-1.8401,-1.8022,-1.7852,-1.7852,-1.7852,-1.7852,-1.7107,-1.6619,0.0,0.0,0.0,0.0,0.0,0.0,0.0,0.0,0.0,0.0,0.0,0.0,0.0,0.0,0.0,0.0,0.0,0.0,0.0,0.0,0.0,0.0,-2.5237,-2.734,-2.8127,-2.8942,-2.9785,-3.067,-3.1738,-3.2511,-3.2764,-3.3066,-3.329,-3.329,-3.329,-3.329,-3.329,-3.329,-3.329,-3.329,-3.329,-3.329,-3.329,-3.3122,-3.3051,-3.3051,-3.2874,-3.261,-3.2237,-3.2237,-3.1909,-3.1347,-3.1347,-3.1235,-3.0986,-3.0986,-3.0785,0.0,0.0,0.0,0.0,0.0,-2.9091,-2.8549,-2.8278,-2.8007,-2.7694,-2.7384,-2.7691,-2.8096,-2.7575,-2.7639,-2.7837,-2.7555,-2.749,-2.749,-2.749,-2.749,-2.749,-2.749,-2.749,-2.7398,-2.7105,-2.6844,-2.651,-2.5842,-2.5332,0.0,-2.453,-2.4282,-2.4083,-2.4083,-2.4083,-2.4083,-2.4083,-2.4083,-2.3861,-2.3248,-2.2923,-2.2387,-2.1577,-2.0675,0.0,0.0,0.0,-1.844,-1.844,-1.844,0.0,0.0,0.0,0.0,0.0,0.0,0.0,0.0,-1.9932,-2.0324,0.0,0.0,0.0,0.0,0.0,0.0,0.0,0.0,0.0,0.0,0.0,0.0,0.0,0.0,0.0,0.0,-2.8099,-2.9617,-3.1359,-3.1162,-3.1199,-3.2272,-3.2469,-3.2721,-3.3234,-3.329,-3.329,-3.329,-3.329,-3.329,-3.329,0.0,0.0,0.0,0.0,-3.329,-3.3241,-3.2895,-3.2668,-3.2632,-3.2273,-3.1909,-3.1593,-3.1593,-3.1384,-3.0986,-3.0986,-3.0986,-3.0986,-3.0986,-3.0986,-3.0949,-3.0355,-3.0037,-2.9922,-2.9922,-2.9484,-2.8819,-2.8287,0.0,0.0,-2.8043,-2.851,-2.8997,-2.8376,-2.8304,-2.8255,-2.7659,-2.749,-2.749,-2.749,-2.749,-2.749,-2.749,-2.749,-2.749,-2.749,-2.7131,-2.6784,-2.6719,-2.5829,-2.507,-2.5005,-2.4491,-2.4083,-2.4083,-2.4083,-2.4083,-2.4083,-2.4083,-2.3874,-2.3352,0.0,0.0,-2.1786,-2.1197,-2.0635,-2.0035,-1.9499,-1.9198,-1.9198,-1.9264,-1.9264,-1.9198,-1.9786,-2.0516,-2.1396,-2.2015,-2.2865,-2.3861,-2.1519,-2.1664,0.0,0.0,0.0,0.0,0.0,0.0,0.0,0.0,0.0,0.0,0.0,0.0,0.0,0.0,0.0,-2.7325,-2.9476,-3.1246,-3.2117,-3.2539,-3.2679,-3.244,-3.2848,-3.315,-3.3276,-3.329,-3.329,-3.329,-3.329,-3.329,-3.329,-3.329,-3.329,-3.329,-3.329,-3.3122,-3.281,-3.2739,-3.2561,-3.2237,0.0,0.0,-3.1593,-3.1593,-3.1384,-3.0986,-3.0986,-3.0986,-3.0986,-3.0986,-3.0986,-3.0986,-3.0861,-3.019,-2.9277,-2.9277,-2.8542,-2.7545,-2.7423,-2.7383,-2.7342,-2.693,-2.7526,-2.8199,-2.7246,-2.7631,0.0,-2.7659,-2.749,-2.749,-2.749,-2.749,-2.749,-2.749,-2.749,-2.749,-2.749,-2.7411,-2.7236,-2.6798,-2.6125,-2.5511,-2.507,-2.4491,-2.4083,-2.4083,-2.4083,-2.4083,-2.4083,-2.4083,-2.4073,-2.3926,-2.3483,-2.3104,-2.2882,-2.2388,-2.1812,-2.1211,-2.1067,-2.1015,-2.1015,-2.1446,-2.1498,-2.1015,-2.1603,-2.1773,-2.1496,-2.2102,-2.2964,-2.4067,-2.3861,-2.4326,0.0,0.0,0.0,0.0,0.0,0.0,0.0,0.0,0.0,0.0,0.0,-2.3196,0.0,0.0,-2.8377,-2.9852,-3.1134,-3.2159,-3.2778,-3.3094,-3.3178,-3.2904,-3.3108,-3.329,-3.329,-3.329,-3.329,-3.329,-3.329,-3.329,-3.329,-3.329,-3.329,-3.329,-3.3407,-3.3215,-3.2704,-3.2609,-3.2316,-3.185,-3.1666,-3.1445,-3.131,-3.131,-3.1198,-3.0986,-3.0986,-3.0986,-3.0986,-3.0986,-3.0986,-3.0986,-3.0634,-3.0114,-2.9523,-2.9199,-2.8514,-2.7708,-2.7708,-2.7464,-2.7226,-2.7324,-2.7735,-2.8089,-2.7542,-2.7653,-2.7901,-2.7597,-2.7306,-2.7154,-2.7423,-2.749,-2.749,-2.749,-2.749,-2.749,-2.749,-2.749,-2.7411,-2.7157,-2.6648,-2.6073,-2.5497,-2.4922,-2.4452,-2.4164,-2.4083,-2.4083,-2.4083,-2.4083,-2.4083,-2.4083,-2.3822,-2.3537,-2.3221,-2.2715,-2.227,-2.1982,-2.1956,-2.1956,-2.1956,-2.2257,-2.2256,-2.1969,-2.2505,-2.2648,-2.2334,-2.2949,-2.355,-2.4125,-2.4625,-2.5329,0.0,0.0,0.0,0.0,0.0,0.0,0.0,0.0,-2.1488,-2.413,-2.5508,-2.681,-2.8699,-2.9659,-3.0642,-3.2159,-3.2511,-3.275,-3.322,-3.329,-3.329,-3.329,-3.329,-3.329,-3.329,-3.329,-3.329,-3.329,-3.329,-3.329,-3.329,-3.3332,-3.3353,-3.3353,-3.3541,-3.339,-3.2809,-3.267,-3.2277,-3.1617,-3.1294,-3.1091,-3.0986,-3.0986,-3.0986,-3.0986,-3.0986,-3.0986,-3.0986,-3.0986,-3.0986,-3.0898,-3.0114,-2.9845,-2.9755,-2.9133,-2.8554,-2.8018,-2.8018,-2.7667,-2.7313,-2.7817,-2.8099,-2.8191,-2.8185,-2.7864,-2.7508,-2.7632,-2.7214,-2.6816,-2.7356,-2.749,-2.749,-2.749,-2.749,-2.749,-2.749,-2.749,-2.749,-2.749,-2.7066,-2.6562,-2.6073,-2.5511,-2.4909,-2.4217,-2.4083,-2.4083,-2.4083,-2.4083,-2.4083,-2.4083,-2.4083,-2.3887,-2.3404,-2.2975,-2.2741,-2.274,-2.274,-2.2727,-2.2728,-2.2727,-2.274,-2.274,-2.3143,-2.3365,-2.3365,-2.3848,-2.4083,-2.4112,-2.4734,-2.555,-1.594,-1.687,0.0,-2.0599,-2.1197,-2.2366,0.0,0.0,-2.6512,-2.8517,-2.947,-3.0003,-3.0245,-3.1288,-3.2159,-3.237,-3.2862,-3.3206,-3.3276,-3.329,-3.329,-3.329,-3.329,-3.329,-3.329,-3.329,-3.329,-3.329,-3.329,-3.329,-3.329,-3.3473,-3.3583,-3.3583,-3.3765,-3.3671,-3.3257,-3.3207,-3.2709,-3.1783,-3.1744,-3.1445,-3.0986,-3.0986,-3.0986,-3.0986,-3.0986,-3.0986,-3.0986,-3.0986,-3.0986,-3.0861,-2.9678,-2.9199,-2.9133,-2.8514,-2.7898,-2.7301,-2.7301,-2.7272,-2.7231,-2.7313,-2.7696,-2.8191,-2.8185,-2.7864,-2.7618,-2.8147,-2.7524,-2.6816,-2.7356,-2.749,-2.749,-2.749,-2.749,-2.749,-2.749,-2.749,-2.749,-2.749,-2.7066,-2.6693,-2.6614,-2.6112,-2.5323,-2.4253,-2.4083,-2.4083,-2.4083,-2.4083,-2.4083,-2.4083,-2.4083,-2.4057,-2.4021,-2.3926,-2.3916,-2.39,-2.39,-2.3916,-2.3916,-2.3916,-2.39,-2.39,-2.3981,-2.3992,-2.3992,-2.4086,-2.4083,-2.4112,-2.4734,-2.532,-2.0083,0.0,0.0,0.0,-2.5241,-2.6371,-2.8701,-2.8816,-2.897,-3.0853,-3.1443,-3.1724,-3.2055,-3.2547,-3.2932,0.0,-3.3122,-3.329,-3.329,-3.329,-3.329,-3.329,-3.329,-3.329,-3.329,-3.329,-3.329,-3.329,-3.329,-3.3339,-3.3473,-3.3541,-3.3661,-3.3793,-3.3943,-3.3792,-3.3302,-3.341,-3.308,-3.2333,-3.2333,-3.2032,-3.1483,-3.1483,-3.13,-3.0986,-3.0986,-3.0986,-3.0986,-3.0986,-3.0785,-3.0317,-2.9445,-2.8897,-2.8514,-2.7857,-2.7423,-2.719,-2.719,-2.719,-2.719,-2.719,-2.7383,-2.762,-2.7639,-2.729,-2.7051,-2.7638,-2.7281,-2.6816,-2.7356,-2.749,-2.749,-2.749,-2.749,-2.749,-2.749,-2.749,-2.749,-2.749,-2.734,-2.7066,-2.6758,-2.6478,-2.6033,-2.5206,-2.4818,-2.4491,-2.4164,-2.4083,-2.4083,-2.4083,-2.4083,-2.4083,-2.4083,-2.4083,-2.4083,-2.4083,-2.4083,-2.4083,-2.4083,-2.4083,-2.4083,-2.4083,-2.4083,-2.4083,-2.4083,-2.4083,-2.4282,-2.4639,-2.4863,-2.5668,-2.2076,0.0,0.0,-2.6438,-2.8052,-2.9406,-3.0193,-3.0279,-3.0667,-3.2308,-3.2408,-3.2353,-3.2849,-3.3003,0.0,-3.2919,-3.3143,-3.329,-3.329,-3.3206,-3.3171,-3.329,-3.31,-3.3065,-3.329,-3.329,-3.3241,-3.3122,-3.3289,-3.3403,-3.3431,-3.3625,-3.3805,-3.3931,-3.4113,-3.4019,-3.3622,-3.3763,-3.3522,-3.2947,-3.2947,-3.2633,-3.2032,-3.1876,-3.1522,-3.0986,-3.0986,-3.0986,-3.0986,-3.0986,-3.071,-3.019,-2.9406,-2.8819,-2.8367,-2.7505,-2.719,-2.719,-2.719,-2.719,-2.719,-2.719,-2.719,-2.7231,-2.7423,-2.6932,-2.6472,-2.7409,-2.7067,-2.6645,-2.7323,-2.749,-2.749,-2.749,-2.749,-2.749,-2.749,-2.749,-2.749,-2.749,-2.749,-2.7372,-2.6987,-2.6909,-2.6713,-2.6138,-2.5738,-2.5201,-2.4439,-2.4217,-2.4083,-2.4083,-2.4083,-2.4083,-2.4083,-2.4083,-2.4083,-2.4083,-2.4083,-2.4083,-2.4083,-2.4083,-2.4083,-2.4083,-2.4083,-2.4083,-2.4083,-2.4282,-2.4557,-2.4992,-2.5162,-2.6122,0.0,0.0,-2.4996,-2.6745,-2.885,-3.0764,-3.2033,-3.2013,-3.2021,-3.3052,-3.2514,-3.1854,-3.1944,-3.2186,-3.2324,-3.1979,-3.2723,-3.329,-3.329,-3.2966,-3.2846,-3.3241,-3.261,-3.2431,0.0,-3.329,-3.3122,-3.2739,-3.327,-3.3431,-3.3061,-3.3696,-3.4087,-3.41,-3.4277,-3.4358,-3.4345,-3.4358,-3.411,-3.3561,-3.3561,-3.3247,-3.2646,-3.2058,-3.1522,-3.0986,-3.0986,-3.0986,-3.0986,-3.0986,-3.0986,-3.0861,-2.96,-2.9081,-2.8924,-2.7655,-2.719,-2.719,-2.719,-2.719,-2.719,-2.719,-2.719,-2.7301,-2.7978,-2.7011,-2.6077,-2.7791,-2.7139,-2.6173,-2.7222,-2.749,-2.749,-2.749,-2.749,-2.749,-2.749,-2.749,-2.749,-2.749,-2.749,-2.749,-2.7477,-2.7477,-2.7301,-2.6758,-2.6667,-2.6248,-2.5123,-2.4452,-2.4083,-2.4083,-2.4083,-2.4083,-2.4083,-2.4083,-2.4083,-2.4083,-2.4083,-2.4083,-2.4083,-2.4083,-2.4083,-2.4083,-2.4083,-2.4083,-2.4083,-2.4704,-2.4979,-2.5018,-2.5537,-2.6476,0.0,0.0,-2.6895,-2.8787,-3.0105,-3.1165,-3.2009,-3.2294,-3.2309,-3.2011,-3.1592,-3.1088,-3.0486,-3.0464,-3.0622,-3.0884,-3.1528,-3.2085,-3.2448,-3.2395,-3.2345,-3.2503,-3.2273,0.0,0.0,0.0,0.0,-3.2704,-3.3015,-3.32,-3.32,-3.3754,-3.4151,-3.429,-3.4376,-3.4397,-3.4397,-3.4397,-3.4306,-3.4123,-3.3757,-3.3483,-3.326,-3.2241,-3.1693,-3.1497,-3.1143,-3.0986,-3.0986,-3.0986,-3.0508,-2.9716,-2.9277,-2.8581,-2.7777,-2.7342,-2.719,-2.719,-2.719,-2.719,-2.719,-2.719,-2.719,-2.7231,-2.7464,-2.7165,-2.6806,-2.7059,-2.7028,-2.6961,-2.6986,-2.7222,-2.749,-2.749,-2.749,-2.749,-2.749,-2.749,-2.749,-2.749,-2.749,-2.749,-2.749,-2.749,-2.734,-2.6798,-2.6347,-2.5837,-2.5097,-2.4822,-2.453,-2.4122,-2.4083,-2.4083,-2.4083,-2.4083,-2.4083,-2.4083,-2.4083,-2.4083,-2.4083,-2.4083,-2.4083,-2.4083,-2.4083,-2.4083,-2.4083,-2.4717,-2.5188,-2.555,-2.6125,-2.7072,0.0,-2.668,-2.8187,-2.9998,-3.0983,-3.1617,-3.201,-3.2037,-3.1728,-3.0875,-3.0126,-2.9408,-2.8582,-2.8538,-2.891,-2.9774,-3.0506,-3.1241,-3.1983,-3.1982,-3.2063,-3.239,-3.2159,-3.2203,0.0,0.0,0.0,-3.23,-3.2965,-3.3321,-3.3093,-3.3793,-3.4252,-3.4384,-3.4397,-3.4397,-3.4397,-3.4397,-3.4397,-3.4397,-3.4045,-3.3783,-3.3561,-3.2581,-3.1993,-3.1771,-3.1235,-3.0986,-3.0986,-3.0986,-3.0394,-2.9406,-2.9199,-2.8474,-2.7545,-2.7313,-2.719,-2.719,-2.719,-2.719,-2.719,-2.719,-2.719,-2.719,-2.719,-2.7093,-2.6952,-2.6614,-2.6687,-2.6859,-2.6728,-2.6964,-2.7255,-2.7456,-2.749,-2.749,-2.749,-2.749,-2.749,-2.749,-2.749,-2.749,-2.749,-2.749,-2.7372,-2.704,-2.6674,-2.6151,-2.5367,-2.5275,-2.5053,-2.4478,-2.4426,-2.4334,-2.4109,-2.4083,-2.4083,-2.4083,-2.4083,-2.4083,-2.4083,-2.4083,-2.4083,-2.4083,-2.4321,-2.4426,-2.4426,-2.5227,-2.579,-2.6138,-2.6713,-2.74,-2.5582,-2.7312,-2.8882,-3.0343,-3.1397,-3.2055,-3.1978,-3.1289,-3.0392,-2.9557,-2.8118,-2.6832,0.0,0.0,-2.7195,-2.8599,-2.9679,-3.0736,-3.1893,-3.1803,-3.1957,0.0,0.0,0.0,0.0,0.0,0.0,-3.1692,0.0,-3.3701,-3.2803,-3.3796,-3.4397,-3.4397,-3.4397,-3.4397,-3.4397,-3.4397,-3.4397,-3.4397,-3.4397,-3.411,-3.3574,-3.2973,-3.2385,-3.1771,-3.1235,-3.0986,-3.0986,-3.0986,-3.0596,-2.9922,-2.9316,-2.87,-2.8059,-2.7423,-2.719,-2.719,-2.719,-2.719,-2.719,-2.719,-2.719,-2.719,-2.719,-2.6887,-2.6551,-2.6473,-2.6166,-2.5961,-2.6486,-2.6645,-2.6816,-2.7323,-2.7503,-2.749,-2.749,-2.749,-2.749,-2.749,-2.749,-2.749,-2.749,-2.749,-2.749,-2.749,-2.749,-2.7098,-2.5976,-2.5845,-2.5641,-2.5097,-2.5044,-2.4822,-2.4256,-2.4174,-2.4174,-2.4174,-2.4174,-2.4174,-2.4174,-2.4174,-2.4174,-2.4174,-2.4739,-2.5044,-2.5044,-2.617,-2.6706,-2.6719,-2.7262,-2.749,-2.7414,-2.906,-3.0435,-3.0834,-3.1093,-3.1154,-3.0731,-2.9989,-2.8864,-2.6824,-2.5288,-2.39,-2.26,0.0,0.0,-2.6396,-2.8283,0.0,-3.1114,-3.1529,0.0,0.0,0.0,-3.2607,-3.2948,-3.3224,0.0,0.0,-3.3224,-3.363,-3.3365,-3.4018,-3.4397,-3.4397,-3.4397,-3.4397,-3.4397,-3.4397,-3.4397,-3.4397,-3.4397,-3.411,-3.3574,-3.2973,-3.2385,-3.1771,-3.1235,-3.0986,-3.0986,-3.0986,-3.0343,-2.9316,-2.916,-2.8435,-2.7423,-2.7272,-2.719,-2.719,-2.719,-2.719,-2.719,-2.719,-2.719,-2.719,-2.719,-2.7139,-2.6892,-2.6101,-2.6098,-2.6181,-2.5576,-2.6047,-2.6714,-2.685,-2.7222,-2.749,-2.749,-2.749,-2.749,-2.749,-2.749,-2.749,-2.749,-2.749,-2.749,-2.749,-2.749,-2.7229,-2.6556,-2.6452,-2.6242,-2.5667,-2.5615,-2.5537,-2.5375,-2.5362,-2.5362,-2.5362,-2.5362,-2.5362,-2.5362,-2.5362,-2.5362,-2.5362,-2.5537,-2.5615,-2.5615,-2.6353,-2.6706,-2.6719,-2.7262,-2.749,-2.8836,-3.0073,-3.0986,-3.0986,-3.079,-3.0283,-2.9022,-2.8017,-2.6589,-2.3764,-2.239,0.0,0.0,0.0,0.0,0.0,0.0,0.0,-3.0751,-3.1445,-3.1902,0.0,-3.2725,0.0,-3.3417,-3.3744,-3.3809,0.0,-3.3757,-3.3849,-3.36,-3.411,-3.4397,-3.4397,-3.4397,-3.4397,-3.4397,-3.4397,-3.4397,-3.4397,-3.4397,-3.4241,-3.3914,-3.3077,-3.2515,-3.2163,0.0,-3.0986,-3.0986,-3.0986,-3.0266,-2.9081,-2.9081,-2.8315,-2.719,-2.719,-2.719,-2.719,-2.719,-2.719,-2.719,-2.719,-2.719,-2.719,-2.719,-2.719,-2.703,-2.6267,-2.6109,-2.603,-2.5478,-2.5658,-2.6082,-2.6577,-2.6918,-2.7222,-2.7456,-2.749,-2.749,-2.749,-2.749,-2.749,-2.749,-2.749,-2.749,-2.749,-2.749,-2.7372,-2.7092,-2.7053,-2.6831,-2.6255,-2.619,-2.6099,-2.5806,-2.5793,-2.5793,-2.5793,-2.5793,-2.5793,-2.5793,-2.5793,-2.5793,-2.5793,-2.6073,-2.619,-2.6203,-2.6765,-2.7053,-2.7053,-2.7346,-2.749,-2.9939,-3.0607,-3.0986,-3.0986,-3.0503,-2.9454,-2.7357,-2.5884,-2.4058,-2.0857,0.0,0.0,-1.8866,0.0,-2.1833,-2.501,0.0,-2.8299,-3.066,-3.1548,-3.2098,-3.2633,-3.3287,-3.3888,-3.4345,-3.4397,-3.4397,-3.4397,-3.4397,-3.4188,-3.3731,-3.4149,-3.4397,-3.4397,-3.4397,-3.4397,-3.4397,-3.4397,-3.4397,-3.4397,-3.4397,-3.4319,-3.4136,-3.3143,-3.2607,-3.2411,-3.1418,-3.0986,-3.0986,-3.0986,-3.0266,-2.9121,-2.9199,-2.8395,-2.7231,-2.7313,-2.7272,-2.719,-2.719,-2.719,-2.719,-2.719,-2.719,-2.719,-2.719,-2.719,-2.7087,-2.6651,-2.6106,-2.5704,-2.5671,-2.5348,-2.5264,-2.6255,-2.6577,-2.6816,-2.7289,-2.7456,-2.749,-2.749,-2.749,-2.749,-2.749,-2.749,-2.749,-2.749,-2.749,-2.749,-2.749,-2.749,-2.7307,-2.6876,-2.6824,-2.6582,-2.6067,-2.6015,-2.6015,-2.6015,-2.6015,-2.6015,-2.6015,-2.6015,-2.6015,-2.6015,-2.6543,-2.6824,-2.6824,-2.7255,-2.749,-2.749,-2.749,-2.749,-3.0649,-3.0908,-3.0986,-3.0986,-3.0202,-2.8904,-2.6804,-2.4692,0.0,0.0,0.0,-1.6858,-1.634,0.0,0.0,-2.3526,0.0,0.0,0.0,0.0,0.0,0.0,0.0,0.0,0.0,0.0,0.0,0.0,0.0,-3.4358,-3.4267,-3.4345,-3.4397,-3.4397,-3.4397,-3.4397,-3.4397,-3.4397,-3.4397,-3.4397,-3.4397,-3.3901,-3.2986,-3.2777,-3.2176,-3.1274,-3.1078,0.0,-3.0986,-3.0986,-3.0266,-2.916,-2.9639,-2.8752,-2.7272,-2.7817,-2.7667,-2.719,-2.719,-2.719,-2.719,-2.719,-2.719,-2.719,-2.719,-2.719,-2.7087,-2.6651,-2.6106,-2.5589,-2.5174,-2.5046,-2.504,-2.5264,-2.6,-2.6726,-2.6829,-2.7188,-2.749,-2.749,-2.749,-2.749,-2.749,-2.749,-2.749,-2.749,-2.749,-2.749,-2.749,-2.749,-2.7464,-2.7359,-2.7346,-2.7307,-2.7203,-2.7203,-2.7203,-2.7203,-2.7203,-2.7203,-2.7203,-2.7203,-2.7203,-2.7203,-2.7294,-2.7346,-2.7346,-2.7438,-2.749,-2.749,-2.749,-2.749,-3.0404,-3.047,-3.047,-3.047,-2.9402,-2.7674,-2.5122,0.0,0.0,0.0,0.0,-1.5796,-1.5895,0.0,0.0,0.0,0.0,0.0,0.0,0.0,0.0,0.0,0.0,0.0,0.0,0.0,0.0,0.0,0.0,-3.4397,-3.4397,-3.4397,-3.4397,-3.4397,-3.4397,-3.4397,-3.4397,-3.4397,-3.4397,-3.4397,-3.4397,-3.3966,-3.3156,-3.2829,-3.2228,-3.1418,-3.1117,0.0,-3.0986,-3.0986,-3.0432,-2.96,-2.9883,-2.9067,-2.7736,-2.8099,-2.7788,-2.719,-2.719,-2.719,-2.719,-2.719,-2.719,-2.719,-2.719,-2.719,-2.7133,-2.6932,-2.6301,-2.5658,-2.5394,-2.4937,-2.4743,-2.5335,-2.6311,-2.7134,-2.7134,-2.7323,-2.749,-2.749,-2.749,-2.749,-2.749,-2.749,-2.749,-2.749,-2.749,-2.749,-2.749,-2.749,-2.749,-2.749,-2.749,-2.749,-2.749,-2.749,-2.749,-2.749,-2.749,-2.749,-2.749,-2.7436,-2.7403,-2.7403,-2.7403,-2.7403,-2.7403,-2.7403,-2.7436,-2.749,-2.7436,-2.7436,-2.9834,-2.991,-2.996,-2.9832,-2.8533,-2.6526,-2.3499,-2.1505,0.0,0.0,0.0,0.0,-1.5859,0.0,0.0,0.0,0.0,0.0,0.0,0.0,0.0,0.0,0.0,0.0,0.0,0.0,0.0,0.0,0.0,0.0,-3.4397,-3.4397,-3.4397,-3.4397,-3.4397,-3.4397,-3.4397,-3.4397,-3.4345,-3.4228,-3.4228,-3.3875,-3.3208,-3.2725,-3.2202,-3.1602,-3.1182,0.0,0.0,-3.0986,-3.0596,-2.9999,-2.9999,-2.9263,-2.8219,-2.8219,-2.7788,-2.719,-2.719,-2.719,-2.719,-2.719,-2.719,-2.719,-2.719,-2.719,-2.719,-2.719,-2.6456,-2.5716,-2.5716,-2.4958,-2.4478,-2.5616,-2.662,-2.7356,-2.7503,-2.749,-2.749,-2.749,-2.749,-2.749,-2.749,-2.749,-2.749,-2.749,-2.749,-2.749,-2.749,-2.749,-2.749,-2.749,-2.749,-2.749,-2.749,-2.749,-2.749,-2.749,-2.749,-2.749,-2.749,-2.7369,-2.7302,-2.7302,-2.7268,-2.7248,-2.7248,-2.7248,-2.7302,-2.7403,-2.7268,-2.7302,-2.9161,-2.9618,-2.9883,-2.9316,-2.7938,-2.5887,-2.2863,0.0,0.0,0.0,-1.5108,-1.5131,-1.5198,0.0,0.0,0.0,0.0,0.0,0.0,0.0,0.0,0.0,0.0,0.0,0.0,0.0,0.0,0.0,0.0,0.0,-3.4397,-3.4397,-3.4397,-3.4397,-3.4397,-3.4397,-3.4397,-3.4397,-3.4149,-3.3666,-3.3666,-3.3077,-3.1954,-3.1902,-3.1614,-3.1065,-3.1013,0.0,0.0,-3.0986,-3.0596,-2.9999,-2.9999,-2.9263,-2.8219,-2.8219,-2.7788,-2.719,-2.719,-2.719,-2.719,-2.719,-2.719,-2.719,-2.719,-2.719,-2.719,-2.719,-2.6456,-2.5716,-2.5716,-2.4958,-2.4478,-2.5616,-2.6358,-2.6918,-2.739,-2.749,-2.749,-2.749,-2.749,-2.749,-2.749,-2.749,-2.749,-2.749,-2.749,-2.749,-2.749,-2.749,-2.749,-2.749,-2.749,-2.749,-2.749,-2.749,-2.749,-2.749,-2.749,-2.749,-2.749,-2.7369,-2.7302,-2.7302,-2.7113,-2.7024,-2.7024,-2.7024,-2.7024,-2.7045,-2.7024,-2.7024,-2.7902,-2.8519,-2.8797,-2.8234,-2.659,-2.4548,-2.2223,0.0,0.0,-1.5591,-1.5108,-1.5153,-1.5367,-1.5712,0.0,0.0,0.0,0.0,0.0,0.0,0.0,0.0,0.0,0.0,0.0,0.0,0.0,0.0,0.0,0.0,-3.4397,-3.4397,-3.4397,-3.4397,-3.4397,-3.4397,-3.4397,-3.4071,-3.3809,-3.3587,-3.3221,-3.262,-3.1797,-3.1797,-3.1522,-3.0986,-3.0986,0.0,0.0,-3.0986,-3.0823,-3.0596,-3.0596,-3.0037,-2.9223,-2.8858,-2.8355,-2.7736,-2.7353,-2.719,-2.719,-2.719,-2.719,-2.719,-2.719,-2.719,-2.719,-2.719,-2.6456,-2.5716,-2.5716,-2.5208,-2.4874,-2.5721,-2.6324,-2.685,-2.739,-2.749,-2.749,-2.749,-2.749,-2.749,-2.749,-2.749,-2.749,-2.749,-2.749,-2.749,-2.749,-2.749,-2.749,-2.749,-2.749,-2.749,-2.749,-2.7436,-2.7369,-2.7369,-2.7268,-2.7214,-2.7214,-2.7032,-2.693,-2.693,-2.6863,-2.6829,-2.6829,-2.6829,-2.6875,-2.699,-2.6875,-2.6875,-2.6189,-2.6971,-2.7394,-2.6783,-2.5287,-2.3416,0.0,0.0,-1.7514,-1.551,-1.5108,-1.5198,-1.5546,-1.5591,-1.5936,0.0,-1.7647,-1.9098,0.0,0.0,0.0,0.0,0.0,0.0,0.0,0.0,0.0,0.0,0.0,0.0,-3.4162,-3.4162,-3.4241,-3.4384,-3.4241,-3.4162,-3.4162,-3.36,-3.3234,-3.3064,-3.2646,-3.2136,-3.1549,-3.1549,-3.1365,-3.0986,-3.0986,0.0,0.0,-3.0986,-3.0986,-3.0986,-3.0785,-3.0432,-2.9922,-2.9133,-2.8554,-2.8099,-2.7423,-2.719,-2.719,-2.719,-2.719,-2.719,-2.719,-2.719,-2.719,-2.719,-2.6456,-2.5647,-2.5337,-2.5148,-2.5123,-2.5546,-2.607,-2.6577,-2.6939,-2.704,-2.7074,-2.7222,-2.7255,-2.7323,-2.7456,-2.7469,-2.7469,-2.749,-2.7436,-2.7403,-2.749,-2.7403,-2.7369,-2.7436,-2.7403,-2.7369,-2.7436,-2.7302,-2.7214,-2.7214,-2.7079,-2.699,-2.699,-2.6794,-2.6679,-2.6679,-2.6658,-2.6658,-2.6658,-2.6658,-2.6692,-2.6841,-2.6705,-2.6726,-2.3931,-2.5123,-2.5763,-2.5084,-2.4166,-2.276,0.0,-1.8885,-1.7514,-1.551,-1.5108,-1.5198,-1.5546,-1.5591,-1.6025,-1.7304,-1.8503,0.0,0.0,0.0,0.0,0.0,0.0,0.0,0.0,0.0,0.0,0.0,0.0,0.0,-3.3626,-3.36,-3.3849,-3.4384,-3.3875,-3.36,-3.36,-3.2999,-3.2411,-3.1823,-3.181,-3.151,-3.0999,-3.0999,-3.0999,0.0,0.0,0.0,0.0,-3.0986,-3.0986,-3.0936,-3.0266,-2.9999,-2.9845,-2.8633,-2.8219,-2.8099,-2.7423,-2.719,-2.719,-2.719,-2.719,-2.719,-2.719,-2.719,-2.719,-2.719,-2.6456,-2.5486,-2.4464,-2.4611,-2.5004,-2.5004,-2.5464,-2.5896,-2.5931,-2.5931,-2.607,-2.6611,-2.6714,-2.6897,-2.739,-2.7403,-2.7335,-2.7503,-2.7214,-2.7113,-2.7469,-2.7214,-2.7079,-2.7268,-2.7113,-2.7079,-2.7302,-2.7113,-2.699,-2.699,-2.699,-2.699,-2.699,-2.6794,-2.6679,-2.6679,-2.6555,-2.6499,-2.6499,-2.6499,-2.6499,-2.6499,-2.6499,-2.6499,-2.1431,-2.2389,-2.2946,-2.204,-2.1077,-1.9941,-1.8469,-1.7326,-1.6311,-1.5303,-1.5108,-1.5131,-1.5244,-1.5457,-1.613,-1.7727,0.0,0.0,0.0,0.0,0.0,0.0,0.0,0.0,0.0,0.0,0.0,0.0,0.0,0.0,-3.36,-3.3208,-3.3051,-3.3221,-3.3064,-3.2973,-3.2973,-3.2398,-3.198,-3.1797,-3.1444,-3.1156,-3.0986,-3.0986,-3.0986,0.0,0.0,0.0,0.0,-3.0986,-3.0986,-3.0986,-3.0748,-3.0672,-3.0508,-2.9289,-2.8819,-2.8661,-2.7586,-2.719,-2.719,-2.719,-2.719,-2.719,-2.719,-2.719,-2.7041,-2.6353,-2.5957,-2.5486,-2.4464,-2.4334,-2.4539,-2.4909,-2.5158,-2.5394,-2.5826,-2.5896,-2.5965,-2.6104,-2.644,-2.6748,-2.6918,-2.7167,-2.7302,-2.7369,-2.7146,-2.7045,-2.7146,-2.7079,-2.7024,-2.7079,-2.6897,-2.6863,-2.7079,-2.6909,-2.6794,-2.6794,-2.6705,-2.6671,-2.6671,-2.6589,-2.6555,-2.6555,-2.6521,-2.6499,-2.6499,-2.6499,-2.6499,-2.6499,-2.6499,-2.6499,0.0,-2.0127,-2.063,-1.9998,-1.9218,-1.8345,-1.7324,-1.6474,-1.5751,-1.5223,-1.5108,-1.5131,-1.5266,-1.5568,-1.6205,-1.7444,0.0,0.0,0.0,0.0,0.0,0.0,0.0,0.0,0.0,0.0,0.0,0.0,0.0,0.0,-3.2947,-3.2568,-3.2267,-3.2058,-3.2254,-3.2372,-3.2372,-3.181,-3.1522,-3.1471,-3.1156,-3.0986,-3.0986,-3.0986,-3.0986,0.0,0.0,0.0,0.0,-3.0986,-3.0986,-3.0986,-3.0986,-3.0986,-3.0861,-2.9561,-2.9081,-2.8924,-2.7655,-2.719,-2.719,-2.719,-2.719,-2.719,-2.7015,-2.7056,-2.6984,-2.5963,-2.5716,-2.5486,-2.4464,-2.42,-2.4261,-2.4635,-2.4707,-2.4778,-2.4981,-2.5052,-2.504,-2.5099,-2.5381,-2.5662,-2.5918,-2.6346,-2.6701,-2.6722,-2.6794,-2.6841,-2.6977,-2.6875,-2.6841,-2.6875,-2.6726,-2.6692,-2.6807,-2.6705,-2.6624,-2.6624,-2.6555,-2.6499,-2.6499,-2.6499,-2.6499,-2.6499,-2.6499,-2.6499,-2.6499,-2.6499,-2.6499,-2.6499,-2.6499,-2.6499,0.0,-1.8157,-1.8575,-1.8575,-1.8219,-1.7607,-1.6701,-1.6151,0.0,-1.5211,-1.5131,-1.5267,-1.5641,-1.6041,-1.6464,-1.6988,0.0,0.0,0.0,0.0,0.0,0.0,0.0,0.0,0.0,0.0,0.0,0.0,0.0,0.0,-3.1836,-3.1758,-3.1497,-3.0999,-3.1496,-3.1745,-3.1745,-3.1248,-3.0986,-3.0986,-3.0986,-3.0986,-3.0986,-3.0986,-3.0986,0.0,0.0,0.0,0.0,-3.0986,-3.0986,-3.0986,-3.0986,-3.0986,-3.0861,-2.9561,-2.9081,-2.8924,-2.7655,-2.719,-2.719,-2.719,-2.719,-2.7056,-2.661,-2.6764,-2.6886,-2.5902,-2.5604,-2.5352,-2.4416,-2.4164,-2.4152,-2.4189,-2.42,-2.408,-2.3677,-2.3593,-2.3618,-2.372,-2.3781,-2.3988,-2.4553,-2.511,-2.5592,-2.5755,-2.6139,-2.6568,-2.6922,-2.6705,-2.6555,-2.6692,-2.6555,-2.6499,-2.6499,-2.6499,-2.6499,-2.6499,-2.6499,-2.6499,-2.6499,-2.6499,-2.6499,-2.6499,-2.6499,-2.6499,-2.6499,-2.6499,-2.6499,-2.6499,-2.6499,-2.6499,-1.4396,0.0,-1.5452,-1.5452,-1.536,-1.5303,0.0,-1.5372,0.0,0.0,0.0,-1.5794,-1.6788,-1.7096,0.0,0.0,0.0,0.0,0.0,0.0,0.0,0.0,0.0,0.0,0.0,0.0,0.0,0.0,0.0,0.0,-3.181,-3.1418,-3.1117,-3.0986,-3.1117,-3.1196,-3.1196,-3.1052,-3.0986,-3.0986,-3.0986,-3.0986,-3.0986,-3.0986,-3.0986,0.0,0.0,0.0,-3.0986,-3.0986,-3.0986,-3.0986,-3.0986,-3.0986,-3.0861,-2.9561,-2.9081,-2.8924,-2.7655,-2.719,-2.719,-2.719,-2.6974,-2.6663,-2.6528,-2.6352,-2.6017,-2.4992,-2.447,-2.4176,-2.3835,-2.3751,-2.3824,-2.4127,-2.42,-2.408,-2.3677,-2.3593,-2.3519,-2.3239,-2.3511,-2.3854,-2.3988,-2.4361,-2.4909,-2.5557,-2.5616,-2.5851,-2.6521,-2.6568,-2.6499,-2.6521,-2.6521,-2.6499,-2.6499,-2.6499,-2.6499,-2.6499,-2.6499,-2.6499,-2.6499,-2.6499,-2.6499,-2.6499,-2.6499,-2.6499,-2.6499,-2.6499,-2.6499,-2.6499,-2.6499,-2.6499,-1.2843,-1.3971,-1.5085,-1.5096,-1.5383,-1.5741,-1.601,0.0,0.0,0.0,0.0,0.0,-1.7024,0.0,0.0,0.0,0.0,0.0,0.0,0.0,0.0,0.0,0.0,0.0,0.0,0.0,0.0,0.0,0.0,-3.1444,-3.1444,-3.1156,-3.0986,-3.0986,-3.0986,-3.0986,-3.0986,-3.0986,-3.0986,-3.0986,-3.0986,-3.0986,-3.0986,-3.0986,-3.0986,0.0,0.0,0.0,-3.0986,-3.0986,-3.0986,-3.0986,-3.0986,-3.0986,-3.0861,-2.9561,-2.9081,-2.8924,-2.7655,-2.719,-2.719,-2.719,-2.688,-2.6442,-2.6024,-2.5451,-2.488,-2.4486,-2.411,-2.3716,-2.3431,-2.3335,-2.342,-2.3824,-2.3787,-2.3604,-2.3372,-2.3187,-2.2927,-2.2515,-2.2681,-2.2883,-2.2883,-2.3647,-2.4409,-2.4838,-2.5429,-2.6025,-2.6452,-2.6499,-2.6499,-2.6499,-2.6499,-2.6499,-2.6499,-2.6499,-2.6499,-2.6499,-2.6499,-2.6499,-2.6499,-2.6499,-2.6499,-2.6499,-2.6499,-2.6499,-2.6499,-2.6499,-2.6499,-2.6499,-2.6499,-2.6499,-1.2279,-1.4184,-1.603,-1.5648,-1.6337,-1.7049,0.0,0.0,0.0,0.0,0.0,0.0,0.0,0.0,0.0,0.0,0.0,0.0,0.0,0.0,0.0,0.0,0.0,0.0,0.0,0.0,0.0,0.0,0.0,-3.0986,-3.0986,-3.0986,-3.0986,-3.0986,-3.0986,-3.0986,-3.0986,-3.0986,-3.0986,-3.0986,-3.0986,-3.0986,-3.0986,-3.0986,-3.0986,-3.0986,0.0,0.0,-3.0986,-3.0986,-3.0986,-3.0986,-3.0986,-3.0986,-3.0861,-2.9561,-2.9081,-2.8924,-2.7655,-2.7149,-2.7097,-2.7097,-2.6798,-2.6232,-2.5347,-2.4452,-2.3775,-2.4018,-2.3818,-2.34,-2.2998,-2.2927,-2.3001,-2.3409,-2.3261,-2.2964,-2.2927,-2.2628,-2.2289,-2.1883,-2.1807,-2.1807,-2.1807,-2.3005,-2.3975,-2.4072,-2.5358,-2.6349,-2.6487,-2.6499,-2.6499,-2.6499,-2.6499,-2.6499,-2.6499,-2.6499,-2.6499,-2.6499,-2.6499,-2.6499,-2.6499,-2.6499,-2.6499,-2.6499,-2.6499,-2.6499,-2.6499,-2.6499,-2.6499,-2.6499,-2.6499,-2.6499,-1.3142,-1.5235,-1.6646,-1.4502,-1.5249,-1.6397,0.0,0.0,0.0,0.0,0.0,0.0,0.0,0.0,0.0,0.0,0.0,0.0,0.0,0.0,0.0,0.0,0.0,0.0,0.0,0.0,0.0,0.0,0.0,0.0,-3.0986,-3.0986,-3.0986,-3.0986,-3.0986,-3.0986,-3.0986,-3.0986,-3.0986,-3.0986,-3.0986,-3.0986,-3.0986,-3.0986,-3.0986,-3.0986,0.0,-3.0986,-3.0986,-3.0986,-3.0986,-3.0986,-3.0986,-3.0986,-3.0861,-2.9561,-2.9081,-2.8924,-2.7655,-2.6921,-2.661,-2.661,-2.6343,-2.5797,-2.4884,-2.3976,-2.3212,-2.2906,-2.2457,-2.2157,-2.2424,-2.2478,-2.259,-2.3001,-2.3038,-2.2927,-2.2553,-2.244,-2.2289,-2.1883,-2.1807,-2.1807,-2.1807,-2.2542,-2.3386,-2.4011,-2.4886,-2.5746,-2.6418,-2.6499,-2.6499,-2.6499,-2.6499,-2.6499,-2.6499,-2.6499,-2.6499,-2.6499,-2.6499,-2.6499,-2.6499,-2.6499,-2.6499,-2.6499,-2.6499,-2.6499,-2.6499,-2.6499,-2.6499,-2.6499,-2.6499,-2.6499,-1.3016,-1.4776,-1.6203,-1.5301,-1.7154,-1.9141,0.0,0.0,0.0,0.0,0.0,0.0,0.0,0.0,0.0,0.0,0.0,0.0,0.0,0.0,0.0,0.0,0.0,0.0,0.0,0.0,0.0,0.0,0.0,0.0,-3.0986,-3.0986,-3.0986,-3.0986,-3.0986,-3.0986,-3.0986,-3.0986,-3.0986,-3.0986,-3.0986,-3.0986,-3.0986,-3.0986,-3.0986,-3.0986,0.0,-3.0986,-3.0986,-3.0986,-3.0986,-3.0986,-3.0986,-3.0986,-3.0861,-2.9561,-2.8478,-2.7609,-2.7033,-2.655,-2.6177,-2.6177,-2.5884,-2.5367,-2.441,-2.3694,-2.3039,-2.2325,-2.1973,-2.1845,-2.2035,-2.2073,-2.2176,-2.259,-2.2515,-2.2365,-2.2402,-2.2214,-2.2025,-2.1845,-2.1807,-2.1959,-2.2365,-2.3091,-2.3841,-2.4636,-2.5441,-2.6094,-2.6465,-2.6499,-2.6499,-2.6499,-2.6499,-2.6499,-2.6499,-2.6499,-2.6499,-2.6499,-2.6499,-2.6499,-2.6499,-2.6499,-2.6499,-2.6499,-2.6499,-2.6499,-2.6499,-2.6499,-2.6499,-2.6499,-2.6499,-2.6499,-1.2969,-1.4494,-1.6005,0.0,0.0,0.0,0.0,0.0,0.0,0.0,0.0,0.0,0.0,0.0,0.0,0.0,0.0,0.0,0.0,0.0,0.0,0.0,0.0,0.0,0.0,0.0,0.0,0.0,0.0,0.0,-3.0986,-3.0986,-3.0986,-3.0986,-3.0986,-3.0986,-3.0986,-3.0986,-3.0986,-3.0986,-3.0986,-3.0986,-3.0986,-3.0986,-3.0986,-3.0986,-3.0986,-3.0986,-3.0986,-3.0986,-3.0986,-3.0986,-3.0986,-3.0874,-3.0583,-2.96,-2.8079,-2.6528,-2.6652,-2.6249,-2.5706,-2.5597,-2.5334,-2.4849,-2.3833,-2.3288,-2.2853,-2.2035,-2.1807,-2.1807,-2.1807,-2.1807,-2.1883,-2.2176,-2.2025,-2.1873,-2.2176,-2.2035,-2.1807,-2.1807,-2.1807,-2.2073,-2.2852,-2.3632,-2.4373,-2.5194,-2.599,-2.6499,-2.6499,-2.6499,-2.6499,-2.6499,-2.6499,-2.6499,-2.6499,-2.6499,-2.6499,-2.6499,-2.6499,-2.6499,-2.6499,-2.6499,-2.6499,-2.6499,-2.6499,-2.6499,-2.6499,-2.6499,-2.6499,-2.6499,-2.6499,-2.6499,-1.3658,-1.529,-1.6894,-1.7605,0.0,0.0,0.0,0.0,0.0,0.0,0.0,0.0,0.0,0.0,0.0,0.0,0.0,0.0,0.0,0.0,0.0,0.0,0.0,0.0,0.0,0.0,0.0,0.0,0.0,0.0,-3.0986,-3.0986,-3.0986,-3.0986,-3.0986,-3.0986,-3.0986,-3.0986,-3.0986,-3.0986,-3.0986,-3.0986,-3.0986,-3.0986,-3.0986,-3.0986,-3.0986,-3.0986,-3.0986,-3.0986,-3.0986,-3.0986,-3.0986,-3.0508,-2.9781,-2.9704,-2.8319,-2.6569,-2.7021,-2.6321,-2.5168,-2.472,-2.4582,-2.4329,-2.297,-2.2582,-2.2439,-2.1942,-2.1807,-2.1807,-2.1807,-2.1807,-2.1807,-2.1845,-2.1807,-2.1807,-2.1845,-2.1807,-2.1807,-2.1807,-2.1807,-2.2073,-2.2852,-2.3632,-2.4373,-2.5194,-2.599,-2.6499,-2.6499,-2.6499,-2.6499,-2.6499,-2.6499,-2.6499,-2.6499,-2.6499,-2.6499,-2.6499,-2.6499,-2.6499,-2.6499,-2.6499,-2.6499,-2.6499,-2.6499,-2.6499,-2.6499,-2.6499,-2.6499,-2.6499,-2.6499,-2.6499,-1.3471,-1.5185,-1.6995,0.0,0.0,0.0,0.0,0.0,0.0,0.0,0.0,0.0,0.0,0.0,0.0,0.0,0.0,0.0,0.0,0.0,0.0,0.0,0.0,0.0,0.0,0.0,0.0,0.0,0.0,0.0,0.0,-3.0986,-3.0986,-3.0986,-3.0986,-3.0986,-3.0986,-3.0986,-3.0986,-3.0986,-3.0986,-3.0986,-3.0986,-3.0986,-3.0986,-3.0986,-3.0986,-3.0986,-3.0986,-3.0986,-3.0986,-3.0986,-3.0986,-3.047,-2.9704,-2.9704,-2.8347,-2.6528,-2.6682,-2.5718,-2.4336,-2.4158,-2.3907,-2.3552,-2.2727,-2.2501,-2.2397,-2.1932,-2.1807,-2.1807,-2.1807,-2.1807,-2.1807,-2.1807,-2.1807,-2.1807,-2.1807,-2.1807,-2.1807,-2.1807,-2.1807,-2.2203,-2.3486,-2.3522,-2.3998,-2.5769,-2.5886,-2.5921,-2.643,-2.6499,-2.6499,-2.6499,-2.6499,-2.6499,-2.6499,-2.6499,-2.6499,-2.6499,-2.6499,-2.6499,-2.6499,-2.6499,-2.6499,-2.6499,-2.6499,-2.6499,-2.6499,-2.6499,-2.6499,-2.6499,-2.6499,-2.6499,-1.3488,-1.5063,-1.6875,0.0,0.0,0.0,0.0,0.0,0.0,0.0,0.0,0.0,0.0,0.0,0.0,0.0,0.0,0.0,0.0,0.0,0.0,0.0,0.0,0.0,0.0,0.0,0.0,0.0,0.0,0.0,0.0,-3.0986,-3.0986,-3.0986,-3.0785,-3.0672,-3.0672,-3.0508,-3.0394,-3.0394,-3.0394,-3.0621,-3.0986,-3.0986,-3.0986,-3.0986,-3.0986,-3.0874,-3.071,-3.0911,-3.0949,-3.0911,-3.0911,-3.047,-2.9832,-2.9909,-2.8557,-2.6659,-2.6542,-2.5343,-2.3867,-2.3536,-2.3225,-2.2884,-2.2418,-2.2273,-2.2211,-2.189,-2.1807,-2.1807,-2.1807,-2.1807,-2.1807,-2.1807,-2.1807,-2.1807,-2.1807,-2.1807,-2.1807,-2.1807,-2.1807,-2.2203,-2.3511,-2.3313,-2.3717,-2.5816,-2.5629,-2.5594,-2.6383,-2.6499,-2.6499,-2.6499,-2.6499,-2.6499,-2.6499,-2.6499,-2.6499,-2.6499,-2.6499,-2.6499,-2.6499,-2.6499,-2.6499,-2.6499,-2.6499,-2.6499,-2.6499,-2.6499,-2.6499,-2.6499,-2.6499,-2.6499,-1.3859,-1.5089,0.0,0.0,0.0,0.0,0.0,0.0,0.0,0.0,0.0,0.0,0.0,0.0,0.0,0.0,0.0,0.0,0.0,0.0,0.0,0.0,0.0,0.0,0.0,0.0,0.0,0.0,0.0,0.0,0.0,-3.0986,-3.0986,-3.0986,-3.0355,-2.9999,-2.9999,-2.9406,-2.9081,-2.9081,-2.9081,-2.9755,-3.0986,-3.0986,-3.0986,-3.0986,-3.0986,-3.0596,-3.0037,-3.071,-3.0874,-3.0698,-3.0698,-3.047,-3.0113,-3.033,-2.8991,-2.703,-2.6628,-2.5334,-2.3712,-2.2791,-2.2501,-2.2408,-2.1942,-2.1807,-2.1807,-2.1807,-2.1807,-2.1807,-2.1807,-2.1807,-2.1807,-2.1807,-2.1807,-2.1807,-2.1807,-2.1807,-2.1807,-2.1807,-2.1807,-2.2073,-2.2889,-2.3001,-2.3545,-2.5087,-2.5312,-2.5594,-2.6383,-2.6499,-2.6499,-2.6499,-2.6499,-2.6499,-2.6499,-2.6499,-2.6499,-2.6499,-2.6499,-2.6499,-2.6499,-2.6499,-2.6499,-2.6499,-2.6499,-2.6499,-2.6499,-2.6499,-2.6499,-2.6499,-2.6499,-2.6499,-1.3989,0.0,0.0,0.0,0.0,0.0,0.0,0.0,0.0,0.0,0.0,0.0,0.0,0.0,0.0,0.0,0.0,0.0,0.0,0.0,0.0,0.0,0.0,0.0,0.0,0.0,0.0,0.0,0.0,0.0,0.0,-3.0986,-3.0986,-3.0986,-3.0355,-2.9999,-2.9999,-2.9406,-2.9081,-2.9081,-2.9081,-2.9316,-2.9678,-2.9678,-2.9678,-2.9678,-2.9678,-2.9561,-2.9394,-2.9871,-3.0228,-3.0482,-3.0482,-3.0343,-3.0113,-3.019,-2.8692,-2.6651,-2.6553,-2.4933,-2.2863,-2.2584,-2.2273,-2.1983,-2.1849,-2.1807,-2.1807,-2.1807,-2.1807,-2.1807,-2.1807,-2.1807,-2.1807,-2.1807,-2.1807,-2.1807,-2.1807,-2.1807,-2.1807,-2.1807,-2.1807,-2.2203,-2.3548,-2.335,-2.3728,-2.5851,-2.5664,-2.5594,-2.6383,-2.6499,-2.6499,-2.6499,-2.6499,-2.6499,-2.6499,-2.6499,-2.6499,-2.6499,-2.6499,-2.6499,-2.6499,-2.6499,-2.6499,-2.6499,-2.6499,-2.6499,-2.6499,-2.6499,-2.6499,-2.6499,-2.6499,-2.6499,0.0,0.0,0.0,0.0,0.0,0.0,0.0,0.0,0.0,0.0,0.0,0.0,0.0,0.0,0.0,0.0,0.0,0.0,0.0,0.0,0.0,0.0,0.0,0.0,0.0,0.0,0.0,0.0,0.0,0.0,0.0,-3.0986,-3.0986,-3.0986,-3.0355,-2.9883,-2.9639,-2.9055,-2.8621,-2.8355,-2.8355,-2.8263,-2.8079,-2.8794,-2.9081,-2.9081,-2.9015,-2.9133,-2.9355,-2.9445,-2.9767,-3.0279,-2.9998,-2.9606,-2.9198,-2.9366,-2.7851,-2.5729,-2.5849,-2.4415,-2.247,-2.2283,-2.2035,-2.1807,-2.1807,-2.1807,-2.1807,-2.1807,-2.1807,-2.1807,-2.1807,-2.1807,-2.1807,-2.1807,-2.1807,-2.1807,-2.1807,-2.1807,-2.1807,-2.1807,-2.1807,-2.2203,-2.3438,-2.3276,-2.3692,-2.5734,-2.5886,-2.5955,-2.643,-2.6499,-2.6499,-2.6499,-2.6499,-2.6499,-2.6499,-2.6499,-2.6499,-2.6499,-2.6499,-2.6386,-2.616,-2.6373,-2.6499,-2.6499,-2.6499,-2.6499,-2.6499,-2.6499,-2.6499,-2.6499,-2.6499,-2.6373,0.0,0.0,0.0,0.0,0.0,0.0,0.0,0.0,0.0,0.0,0.0,0.0,0.0,0.0,0.0,0.0,0.0,0.0,0.0,0.0,0.0,0.0,0.0,0.0,0.0,0.0,0.0,0.0,0.0,0.0,0.0,-3.0908,-3.0934,-3.0986,-3.0317,-2.9639,-2.9042,-2.8395,-2.7777,-2.7149,-2.7149,-2.6921,-2.6569,-2.8119,-2.8846,-2.8806,-2.8633,-2.8858,-2.9394,-2.9106,-2.9289,-2.9744,-2.9252,-2.8486,-2.7652,-2.8027,-2.6578,-2.4464,-2.4786,-2.382,-2.2366,-2.1942,-2.1807,-2.1807,-2.1807,-2.1807,-2.1807,-2.1807,-2.1807,-2.1807,-2.1807,-2.1807,-2.1807,-2.1807,-2.1807,-2.1807,-2.1807,-2.1807,-2.1807,-2.1807,-2.1845,-2.2176,-2.2953,-2.3139,-2.3717,-2.5194,-2.6025,-2.6499,-2.6499,-2.6499,-2.6499,-2.6499,-2.6499,-2.6499,-2.6499,-2.6499,-2.6474,-2.6411,-2.6411,-2.616,-2.5548,-2.6109,-2.6411,-2.6411,-2.6361,-2.6361,-2.6411,-2.6361,-2.6348,-2.6348,-2.6348,-2.6059,0.0,0.0,0.0,0.0,0.0,0.0,0.0,0.0,0.0,0.0,0.0,0.0,0.0,0.0,0.0,0.0,0.0,0.0,0.0,0.0,0.0,0.0,0.0,0.0,0.0,0.0,0.0,0.0,0.0,0.0,-3.0257,-3.0283,-3.0516,-3.0973,-2.9871,-2.903,-2.8545,-2.7805,-2.7167,0.0,-2.6652,-2.661,-2.6528,-2.6887,-2.6887,-2.658,-2.6539,-2.6775,-2.7244,-2.781,-2.7774,-2.7317,-2.7859,-2.7327,-2.622,-2.6344,-2.5344,-2.3963,-2.4044,-2.3134,-2.1932,-2.1838,-2.1807,-2.1807,-2.1807,-2.1807,-2.1807,-2.1807,-2.1807,-2.1807,-2.1807,-2.1807,-2.1807,-2.1807,-2.1807,-2.1807,-2.1807,-2.1807,-2.1807,-2.1807,-2.2327,-2.299,-2.3731,-2.4396,-2.5123,-2.6094,-2.6383,-2.6499,-2.6499,-2.6499,-2.6499,-2.6499,-2.6499,-2.6499,-2.6499,-2.6499,-2.6298,-2.5812,-2.5787,-2.5548,-2.4976,-2.5498,-2.5787,-2.5787,-2.5385,-2.5372,-2.5774,-2.5372,-2.5172,-2.5172,-2.5172,-2.5109,0.0,0.0,0.0,0.0,0.0,0.0,0.0,0.0,0.0,0.0,0.0,0.0,0.0,0.0,0.0,0.0,0.0,0.0,0.0,0.0,0.0,0.0,0.0,0.0,0.0,0.0,0.0,0.0,0.0,-2.9405,-2.9706,-2.9732,-2.9862,-3.02,-2.9076,-2.8218,-2.7707,-2.6999,-2.63,-2.5551,-2.5784,-2.565,-2.5215,-2.5661,-2.5661,-2.5248,-2.5429,-2.5621,-2.5891,-2.6558,-2.6553,-2.6182,-2.64,-2.5788,-2.4864,-2.4929,-2.4078,-2.2895,-2.3275,-2.2708,-2.1807,-2.1807,-2.1807,-2.1807,-2.1807,-2.1807,-2.1807,-2.1807,-2.1807,-2.1807,-2.1807,-2.1807,-2.1807,-2.1807,-2.1807,-2.1807,-2.1807,-2.1807,-2.1911,-2.2289,-2.2703,-2.3361,-2.4468,-2.5335,-2.6025,-2.643,-2.6499,-2.6499,-2.6499,-2.6499,-2.6499,-2.6499,-2.6499,-2.6499,-2.6499,-2.6248,-2.5912,-2.5611,-2.536,-2.4983,-2.4456,-2.4682,-2.4958,-2.5222,-2.4926,-2.4958,-2.5222,-2.4958,-2.4788,-2.4788,-2.4788,-2.465,0.0,0.0,0.0,0.0,0.0,0.0,0.0,0.0,0.0,0.0,0.0,0.0,0.0,0.0,0.0,0.0,0.0,0.0,0.0,0.0,0.0,0.0,0.0,0.0,0.0,0.0,0.0,0.0,0.0,-2.8956,-2.9047,-2.906,-2.9099,-2.9203,-2.8168,-2.7323,-2.6714,-2.6115,-2.5351,-2.4364,-2.4766,-2.446,-2.3599,-2.4366,-2.4588,-2.4284,-2.4618,-2.4764,-2.4803,-2.5338,-2.5447,-2.5206,-2.491,-2.4231,-2.3465,-2.3645,-2.2894,-2.1883,-2.2553,-2.2365,-2.1807,-2.1807,-2.1807,-2.1807,-2.1807,-2.1807,-2.1807,-2.1807,-2.1807,-2.1807,-2.1807,-2.1807,-2.1807,-2.1807,-2.1807,-2.1807,-2.1807,-2.1921,-2.2214,-2.2852,-2.3213,-2.3863,-2.5276,-2.606,-2.6499,-2.6499,-2.6499,-2.6499,-2.6499,-2.6499,-2.6499,-2.6499,-2.6411,-2.6348,-2.6348,-2.5787,-2.5423,-2.5322,-2.4921,-2.4431,-2.3879,-2.3853,-2.4067,-2.4487,-2.4499,-2.455,-2.465,-2.455,-2.4499,-2.4499,-2.4499,-2.4261,0.0,0.0,0.0,0.0,0.0,0.0,0.0,0.0,0.0,0.0,0.0,0.0,0.0,0.0,0.0,0.0,0.0,0.0,0.0,0.0,0.0,0.0,0.0,0.0,0.0,0.0,0.0,0.0,-2.731,-2.7528,-2.8052,-2.8077,-2.8296,-2.8785,-2.7471,-2.655,-2.6048,-2.5172,-2.4447,-2.3905,-2.3969,-2.3528,-2.2662,-2.2804,-2.3062,-2.3386,-2.3416,-2.3456,-2.3537,-2.4331,-2.3974,-2.2995,-2.3711,-2.3161,-2.207,-2.2122,-2.1987,-2.1807,-2.1921,-2.1883,-2.1807,-2.1807,-2.1807,-2.1807,-2.1807,-2.1807,-2.1807,-2.1807,-2.1807,-2.1807,-2.1807,-2.1807,-2.1807,-2.1807,-2.1807,-2.1807,-2.1807,-2.2365,-2.2852,-2.2964,-2.4082,-2.5264,-2.6176,-2.6418,-2.6499,-2.6499,-2.6499,-2.6499,-2.6499,-2.6499,-2.6499,-2.6499,-2.6047,-2.5711,-2.5711,-2.5222,-2.472,-2.4243,-2.4155,-2.3853,-2.3246,-2.3221,-2.3258,-2.3333,-2.3333,-2.3572,-2.4104,-2.3572,-2.3333,-2.3333,-2.3333,-2.3296,0.0,0.0,0.0,0.0,0.0,0.0,0.0,0.0,0.0,0.0,0.0,0.0,0.0,0.0,0.0,0.0,0.0,0.0,0.0,0.0,0.0,0.0,0.0,0.0,0.0,0.0,0.0,0.0,-2.7045,-2.7126,-2.737,-2.7396,-2.7498,-2.7754,-2.6202,-2.5267,-2.5071,-2.3952,-2.3256,-2.3047,-2.2825,-2.2488,-2.2108,-2.2108,-2.2221,-2.2418,-2.2418,-2.2418,-2.2447,-2.2815,-2.2622,-2.2146,-2.2548,-2.2307,-2.1807,-2.1807,-2.1807,-2.1807,-2.1807,-2.1807,-2.1807,-2.1807,-2.1807,-2.1807,-2.1807,-2.1807,-2.1807,-2.1807,-2.1807,-2.1807,-2.1807,-2.1807,-2.1807,-2.1807,-2.2138,-2.2478,-2.2478,-2.274,-2.325,-2.4118,-2.5194,-2.6094,-2.643,-2.6499,-2.6499,-2.6499,-2.6499,-2.6499,-2.6499,-2.6499,-2.6499,-2.6499,-2.6273,-2.5984,-2.5624,-2.5121,-2.4582,-2.4029,-2.369,-2.3371,-2.3108,-2.3108,-2.3108,-2.3108,-2.3108,-2.3233,-2.3484,-2.3233,-2.3108,-2.3108,-2.3108,-2.3108,0.0,0.0,0.0,0.0,0.0,0.0,0.0,0.0,0.0,0.0,0.0,0.0,0.0,0.0,0.0,0.0,0.0,0.0,0.0,0.0,0.0,0.0,0.0,0.0,0.0,0.0,0.0,0.0,-2.6943,-2.6875,-2.6875,-2.6671,-2.6555,-2.6555,-2.4921,-2.4022,-2.4022,-2.2885,-2.2325,-2.2315,-2.1973,-2.1807,-2.1807,-2.1807,-2.1807,-2.1807,-2.1807,-2.1807,-2.1807,-2.1807,-2.1807,-2.1807,-2.1807,-2.1807,-2.1807,-2.1807,-2.1807,-2.1807,-2.1807,-2.1807,-2.1807,-2.1807,-2.1807,-2.1807,-2.1807,-2.1807,-2.1807,-2.1807,-2.1807,-2.1807,-2.1807,-2.1959,-2.2101,-2.2101,-2.2729,-2.335,-2.3545,-2.3582,-2.3973,-2.5347,-2.6094,-2.6499,-2.6499,-2.6499,-2.6499,-2.6499,-2.6499,-2.6499,-2.6499,-2.6499,-2.6499,-2.6499,-2.6361,-2.6047,-2.5448,-2.4921,-2.4368,-2.3816,-2.3346,-2.3108,-2.3108,-2.3108,-2.3108,-2.3108,-2.3108,-2.3108,-2.3108,-2.3108,-2.3108,-2.3108,-2.3108,-2.3108,0.0,0.0,0.0,0.0,0.0,0.0,0.0,0.0,0.0,0.0,0.0,0.0,0.0,0.0,0.0,0.0,0.0,0.0,0.0,0.0,0.0,0.0,0.0,0.0,0.0,0.0,0.0,0.0,-2.6521,-2.6533,-2.6533,-2.5804,-2.5382,-2.5382,-2.3863,-2.3065,-2.3065,-2.2235,-2.1849,-2.1849,-2.1818,-2.1807,-2.1807,-2.1807,-2.1807,-2.1807,-2.1807,-2.1807,-2.1807,-2.1807,-2.1807,-2.1807,-2.1807,-2.1807,-2.1807,-2.1807,-2.1807,-2.1807,-2.1807,-2.1807,-2.1807,-2.1807,-2.1807,-2.1807,-2.1807,-2.1807,-2.1807,-2.1807,-2.1807,-2.1807,-2.1807,-2.2365,-2.2927,-2.2927,-2.3486,-2.4264,-2.5016,-2.517,-2.5418,-2.628,-2.6452,-2.6499,-2.6499,-2.6499,-2.6499,-2.6499,-2.6499,-2.6499,-2.6499,-2.6499,-2.6499,-2.6499,-2.5996,-2.5435,-2.4876,-2.4356,-2.3803,-2.3183,-2.312,-2.3108,-2.3108,-2.3108,-2.3108,-2.3108,-2.3108,-2.3108,-2.3108,-2.3108,-2.3108,-2.3108,-2.3108,-2.3108,0.0,0.0,0.0,0.0,0.0,0.0,0.0,0.0,0.0,0.0,0.0,0.0,0.0,0.0,0.0,0.0,0.0,0.0,0.0,0.0,0.0,0.0,0.0,0.0,0.0,0.0,0.0,0.0,0.0,-2.59,-2.59,-2.555,-2.5312,-2.5312,-2.379,-2.274,-2.2214,-2.1949,-2.1807,-2.1807,-2.1807,-2.1807,-2.1807,-2.1807,-2.1807,-2.1807,-2.1807,-2.1807,-2.1807,-2.1807,-2.1807,-2.1807,-2.1807,-2.1807,-2.1807,-2.1807,-2.1807,-2.1807,-2.1807,-2.1807,-2.1807,-2.1807,-2.1807,-2.1807,-2.1807,-2.1807,-2.1807,-2.1807,-2.1807,-2.1921,-2.244,-2.2777,-2.3261,-2.4227,-2.4683,-2.5075,-2.5886,-2.606,-2.6275,-2.6882,-2.6738,-2.6612,-2.6964,-2.6725,-2.6499,-2.6499,-2.6499,-2.6499,-2.6499,-2.6172,-2.59,-2.59,-2.5423,-2.4883,-2.4343,-2.4117,-2.3753,-2.3145,-2.3108,-2.3108,-2.3108,-2.3108,-2.3108,-2.3108,-2.3108,-2.3108,-2.3108,-2.3108,-2.3108,-2.3108,-2.3108,-2.3108,0.0,0.0,0.0,0.0,0.0,0.0,0.0,0.0,0.0,0.0,0.0,0.0,0.0,0.0,0.0,0.0,0.0,0.0,0.0,0.0,0.0,0.0,0.0,0.0,0.0,0.0,0.0,0.0,0.0,0.0,-2.5335,-2.475,-2.4167,-2.3662,-2.2798,-2.2009,-2.1342,-2.1652,-2.1725,-2.158,-2.1725,-2.1725,-2.158,-2.1735,-2.1714,-2.158,-2.1735,-2.1807,-2.1807,-2.1807,-2.1807,-2.1807,-2.1807,-2.1807,-2.1807,-2.1807,-2.1807,-2.1807,-2.1807,-2.1807,-2.1807,-2.1807,-2.1807,-2.1807,-2.1807,-2.1807,-2.1807,-2.1807,-2.1807,-2.1921,-2.2478,-2.2923,-2.3586,-2.4981,-2.5218,-2.5302,-2.5957,-2.6464,-2.6876,-2.7241,-2.6876,-2.6663,-2.7216,-2.6549,-2.5996,-2.6172,-2.6047,-2.5946,-2.5946,-2.5573,-2.5335,-2.5335,-2.4988,-2.4562,-2.4054,-2.4004,-2.3753,-2.3145,-2.3108,-2.3108,-2.3108,-2.3108,-2.3108,-2.3108,-2.3108,-2.3108,-2.3108,-2.3108,-2.3108,-2.3108,-2.3108,-2.3108,0.0,0.0,0.0,0.0,0.0,0.0,0.0,0.0,0.0,0.0,0.0,0.0,0.0,0.0,0.0,0.0,0.0,0.0,0.0,0.0,0.0,0.0,0.0,0.0,0.0,0.0,0.0,0.0,-2.475,-2.4763,-2.4763,-2.3356,-2.1886,-2.0456,-2.0855,-2.0876,-2.0395,-2.1311,-2.1538,-2.1067,-2.1549,-2.1528,-2.1104,-2.1559,-2.1518,-2.1087,-2.1569,-2.1776,-2.1787,-2.1797,-2.1807,-2.1807,-2.1807,-2.1807,-2.1807,-2.1807,-2.1807,-2.1807,-2.1807,-2.1807,-2.1807,-2.1807,-2.1807,-2.1807,-2.1807,-2.1807,-2.1807,-2.1807,-2.1807,-2.1807,-2.1845,-2.276,-2.3953,-2.5004,-2.5011,-2.4902,-2.5194,-2.6314,-2.7256,-2.7256,-2.6804,-2.6625,-2.7178,-2.5887,-2.4996,-2.5498,-2.5146,-2.4788,-2.4788,-2.4775,-2.4763,-2.4763,-2.475,-2.4525,-2.4017,-2.3966,-2.3728,-2.3145,-2.3108,-2.3108,-2.3108,-2.3108,-2.3108,-2.3108,-2.3108,-2.3108,-2.3108,-2.3108,-2.3108,-2.3108,-2.3108,-2.3108,-0.8179,0.0,0.0,0.0,0.0,0.0,0.0,0.0,0.0,0.0,0.0,0.0,0.0,0.0,0.0,0.0,0.0,0.0,0.0,0.0,0.0,0.0,0.0,0.0,0.0,0.0,0.0,0.0,-2.3527,-2.3481,-2.3481,-2.2466,-2.1422,-2.042,-2.0519,-2.0519,-2.0385,-2.0679,-2.0705,-2.0581,-2.0741,-2.0705,-2.0581,-2.0715,-2.0705,-2.0591,-2.0715,-2.1,-2.1331,-2.1662,-2.1807,-2.1807,-2.1807,-2.1807,-2.1807,-2.1807,-2.1807,-2.1807,-2.1807,-2.1807,-2.1807,-2.1807,-2.1807,-2.1807,-2.1807,-2.1807,-2.1807,-2.1807,-2.1807,-2.1911,-2.2515,-2.3327,-2.3982,-2.3943,-2.4543,-2.4981,-2.4362,-2.5546,-2.6539,-2.5966,-2.554,-2.5435,-2.5975,-2.5372,-2.4838,-2.5008,-2.4888,-2.4788,-2.4788,-2.4469,-2.423,-2.423,-2.3822,-2.3509,-2.3358,-2.3346,-2.3283,-2.3108,-2.3108,-2.3108,-2.3108,-2.3108,-2.3108,-2.3108,-2.3108,-2.3108,-2.3108,-2.3108,-2.3108,-2.3108,-2.3108,-2.3108,0.0,0.0,0.0,0.0,0.0,0.0,0.0,0.0,0.0,0.0,0.0,0.0,0.0,0.0,0.0,0.0,0.0,0.0,0.0,0.0,0.0,0.0,0.0,0.0,0.0,-2.2134,-2.2037,-2.2237,-2.2476,-2.2488,-2.2214,-2.1418,-2.0642,-1.9896,-2.0048,-2.0058,-1.9862,-2.0234,-2.0338,-2.0151,-2.0338,-2.0327,-2.0151,-2.0302,-2.0327,-2.0162,-2.0348,-2.0576,-2.0845,-2.1114,-2.1455,-2.1787,-2.159,-2.1631,-2.1807,-2.1807,-2.1807,-2.1807,-2.1807,-2.1807,-2.1807,-2.1807,-2.1807,-2.1807,-2.1807,-2.1673,-2.1518,-2.1518,-2.1383,-2.1339,-2.177,-2.2375,-2.2895,-2.3016,-2.3548,-2.3921,-2.3747,-2.4359,-2.5056,-2.5375,-2.5099,-2.4983,-2.5511,-2.477,-2.4173,-2.4443,-2.4236,-2.4086,-2.4086,-2.381,-2.364,-2.364,-2.3308,-2.3108,-2.3108,-2.3108,-2.3108,-2.3108,-2.3108,-2.3108,-2.3108,-2.3108,-2.3108,-2.3108,-2.3108,-2.3108,-2.3108,-2.3108,-2.3108,-2.3108,-2.3108,-2.3108,0.0,0.0,0.0,0.0,0.0,0.0,-1.213,-1.2932,0.0,0.0,0.0,0.0,0.0,0.0,0.0,0.0,0.0,0.0,0.0,0.0,0.0,0.0,0.0,0.0,-2.1187,-2.0728,-2.0561,-2.0928,-2.1467,-2.1491,-2.0853,-2.0301,-1.9715,-1.9108,-1.9502,-1.9523,-1.9108,-1.9872,-2.0079,-1.973,-2.0079,-2.0069,-1.973,-2.0089,-2.0058,-1.9741,-2.01,-2.0307,-2.0348,-2.0296,-2.0814,-2.1611,-2.1197,-2.129,-2.1652,-2.1652,-2.1652,-2.1652,-2.1652,-2.1652,-2.1652,-2.1652,-2.1652,-2.1652,-2.1652,-2.1362,-2.1005,-2.1005,-2.0705,-2.0385,-2.0385,-2.0767,-2.1343,-2.2195,-2.2326,-2.2479,-2.3276,-2.3163,-2.3397,-2.5015,-2.4946,-2.475,-2.5247,-2.4104,-2.3283,-2.3828,-2.3434,-2.3108,-2.3108,-2.3108,-2.3108,-2.3108,-2.3108,-2.3108,-2.3108,-2.3108,-2.3108,-2.3108,-2.3108,-2.3108,-2.3108,-2.3108,-2.3108,-2.3108,-2.3108,-2.3108,-2.3108,-2.3108,-2.3108,-2.3108,-2.3108,-2.3108,0.0,-1.1483,-1.1907,0.0,0.0,0.0,0.0,-1.1353,0.0,0.0,0.0,0.0,0.0,0.0,0.0,0.0,0.0,0.0,0.0,0.0,0.0,0.0,0.0,0.0,-2.0786,-2.0613,-2.0411,-2.0097,-1.9968,-1.9632,-1.8956,-1.9153,-1.9231,-1.9108,-1.9191,-1.9191,-1.9108,-1.9285,-1.9326,-1.9243,-1.9326,-1.9316,-1.9243,-1.9326,-1.9316,-1.9243,-1.9336,-1.9585,-1.9896,-1.9523,-1.9872,-2.0643,-2.056,-2.0581,-2.0653,-2.0653,-2.0653,-2.0653,-2.0653,-2.0653,-2.0653,-2.0653,-2.0653,-2.0653,-2.0653,-2.0591,-2.0555,-2.0555,-2.0457,-2.0385,-2.0385,-2.092,-2.1396,-2.117,-2.2263,-2.315,-2.2523,-2.3112,-2.3717,-2.3603,-2.3496,-2.3459,-2.3572,-2.3321,-2.3145,-2.3258,-2.3183,-2.3108,-2.3108,-2.3108,-2.3108,-2.3108,-2.3108,-2.3108,-2.3108,-2.3108,-2.3108,-2.3108,-2.3108,-2.3108,-2.3108,-2.3108,-2.3108,-2.3108,-2.3108,-2.3108,-2.3108,-2.3108,-2.3108,-2.3108,-2.3108,-2.3108,0.0,0.0,-1.2613,-1.2037,0.0,0.0,0.0,0.0,0.0,0.0,0.0,0.0,0.0,0.0,0.0,0.0,0.0,0.0,0.0,0.0,0.0,0.0,0.0,0.0,-1.8894,-1.8669,-1.8712,-1.9219,-1.8833,-1.8541,-1.8551,-1.8459,-1.8506,-1.8745,-1.8756,-1.887,-1.9108,-1.9108,-1.9108,-1.9108,-1.9108,-1.9108,-1.9108,-1.9108,-1.9108,-1.9108,-1.9108,-1.9233,-1.943,-1.9202,-1.9378,-1.9768,-2.0006,-2.0234,-2.0385,-2.0385,-2.0385,-2.0385,-2.0385,-2.0385,-2.0385,-2.0385,-2.0385,-2.0385,-2.0385,-2.0265,-2.0038,-1.982,-1.9748,-1.9748,-1.9748,-2.0023,-2.0334,-2.0422,-2.1425,-2.2315,-2.2128,-2.285,-2.3446,-2.3158,-2.3108,-2.3108,-2.3108,-2.3108,-2.3108,-2.3108,-2.3108,-2.3108,-2.3108,-2.3108,-2.3108,-2.3108,-2.3108,-2.3108,-2.3108,-2.3108,-2.3108,-2.3108,-2.3108,-2.3108,-2.3108,-2.3108,-2.3108,-2.3108,-2.3108,-2.3108,-2.3108,-2.3108,-2.3108,-2.3108,-2.3108,-2.3108,0.0,0.0,0.0,0.0,0.0,-1.3204,0.0,0.0,0.0,-1.3303,0.0,0.0,0.0,0.0,0.0,0.0,0.0,0.0,0.0,0.0,0.0,0.0,0.0,0.0,0.0,-1.6278,-1.6462,-1.7886,-1.748,-1.7504,-1.8221,-1.7892,-1.7864,-1.8247,-1.8362,-1.859,-1.8963,-1.9056,-1.9108,-1.9108,-1.9108,-1.9108,-1.9108,-1.9108,-1.9108,-1.9108,-1.9108,-1.9108,-1.9108,-1.9108,-1.9108,-1.9139,-1.9523,-1.9841,-2.0162,-2.0162,-2.0162,-2.0162,-2.0162,-2.0162,-2.0162,-2.0162,-2.0162,-2.0162,-2.0162,-1.9913,-1.9585,-1.9212,-1.9108,-1.9108,-1.9108,-1.9297,-1.9616,-2.0161,-2.0901,-2.1628,-2.2175,-2.272,-2.3108,-2.3108,-2.3108,-2.3108,-2.3108,-2.3108,-2.3108,-2.3108,-2.3108,-2.3108,-2.3108,-2.3108,-2.3108,-2.3108,-2.3108,-2.3108,-2.3108,-2.3108,-2.3108,-2.3108,-2.3108,-2.3108,-2.3108,-2.3108,-2.3108,-2.3108,-2.3108,-2.3108,-2.3108,-2.3108,-2.3108,-2.3108,-2.3108,-2.3108,0.0,0.0,0.0,0.0,-1.3865,0.0,0.0,0.0,-1.3244,-1.2591,0.0,0.0,0.0,0.0,0.0,0.0,0.0,0.0,0.0,0.0,0.0,0.0,0.0,0.0,0.0,-1.4758,-1.4339,-1.5331,-1.5361,-1.5687,-1.6621,-1.7325,-1.7719,-1.7771,-1.8175,-1.8434,-1.8486,-1.8901,-1.9108,-1.9108,-1.9108,-1.9108,-1.9108,-1.9108,-1.9108,-1.9108,-1.9108,-1.9108,-1.9108,-1.9108,-1.9108,-1.9108,-1.916,-1.9212,-1.9253,-1.9253,-1.9253,-1.9253,-1.9253,-1.9253,-1.9253,-1.9253,-1.9253,-1.9253,-1.9253,-1.9222,-1.917,-1.9119,-1.9108,-1.9108,-1.9108,-1.9966,-2.0901,-2.0965,-2.1939,-2.2884,-2.2975,-2.3047,-2.3108,-2.3108,-2.3108,-2.3108,-2.3108,-2.3108,-2.3108,-2.3108,-2.3108,-2.3108,-2.3108,-2.3108,-2.3108,-2.3108,-2.3108,-2.3108,-2.3108,-2.3108,-2.3108,-2.3108,-2.3108,-2.3108,-2.3108,-2.3108,-2.3108,-2.3108,-2.3108,-2.3108,-2.3108,-2.3108,-2.3108,-2.3108,-2.3108,-2.3108,0.0,0.0,0.0,0.0,0.0,0.0,-1.3621,0.0,-1.3163,0.0,0.0,0.0,0.0,0.0,0.0,0.0,0.0,0.0,0.0,0.0,0.0,0.0,0.0,0.0,0.0,0.0,0.0,0.0,-1.45,-1.4718,-1.5946,-1.6343,-1.6758,-1.7285,-1.7471,-1.7854,-1.8403,-1.8611,-1.8839,-1.9108,-1.9108,-1.9108,-1.9108,-1.9108,-1.9108,-1.9108,-1.9108,-1.9108,-1.9108,-1.9108,-1.9108,-1.9108,-1.9108,-1.9108,-1.9108,-1.9108,-1.9108,-1.9108,-1.9108,-1.9108,-1.9108,-1.9108,-1.9108,-1.9108,-1.9108,-1.9108,-1.9108,-1.9108,-1.9396,-1.9682,-1.9682,-2.0387,-2.1092,-2.1092,-2.1846,-2.2525,-2.2525,-2.2811,-2.3108,-2.3108,-2.3108,-2.3108,-2.3108,-2.3108,-2.3108,-2.3108,-2.3108,-2.3108,-2.3108,-2.3108,-2.3108,-2.3108,-2.3108,-2.3108,-2.3108,-2.3108,-2.3108,-2.3108,-2.3108,-2.3108,-2.3108,-2.3108,-2.3108,-2.3108,-2.3108,-2.3108,-2.3108,-2.3108,-2.3108,-2.3108,-2.3108,-2.3108,-1.4059,0.0,0.0,0.0,0.0,0.0,0.0,0.0,0.0,0.0,0.0,0.0,0.0,0.0,0.0,0.0,0.0,0.0,0.0,0.0,0.0,0.0,0.0,0.0,0.0,0.0,0.0,0.0,0.0,-1.3714,-1.5235,-1.5546,-1.5991,-1.6624,-1.6882,-1.7327,-1.8009,-1.8133,-1.8371,-1.8702,-1.8859,-1.8911,-1.8922,-1.9046,-1.9108,-1.9108,-1.9108,-1.9108,-1.9108,-1.9108,-1.9108,-1.9108,-1.9108,-1.9108,-1.9108,-1.9108,-1.9108,-1.9108,-1.9108,-1.9108,-1.9108,-1.9108,-1.9108,-1.9108,-1.9108,-1.9108,-1.9108,-1.9108,-1.9452,-1.9846,-1.9846,-2.0323,-2.0869,-2.106,-2.1616,-2.2132,-2.2329,-2.275,-2.3108,-2.3108,-2.3108,-2.3108,-2.3108,-2.3108,-2.3108,-2.3108,-2.3108,-2.3108,-2.3108,-2.3108,-2.3108,-2.3108,-2.3108,-2.3108,-2.3108,-2.3108,-2.3108,-2.3108,-2.3108,-2.3108,-2.3108,-2.3108,-2.3108,-2.3108,-2.3108,-2.3108,-2.3108,-2.3108,-2.3108,-2.3108,-2.3108,-2.3108,0.0,0.0,0.0,-1.3859,0.0,0.0,0.0,0.0,-1.4138,0.0,0.0,0.0,0.0,0.0,0.0,0.0,0.0,0.0,0.0,0.0,0.0,0.0,0.0,0.0,0.0,0.0,0.0,0.0,0.0,0.0,-1.4252,-1.5204,-1.5701,-1.5732,-1.6562,-1.7027,-1.7028,-1.7502,-1.773,-1.775,-1.8206,-1.8434,-1.8445,-1.8901,-1.9108,-1.9108,-1.9108,-1.9108,-1.9108,-1.9108,-1.9108,-1.9108,-1.9108,-1.9108,-1.9108,-1.9108,-1.9108,-1.9108,-1.9108,-1.9108,-1.9108,-1.9108,-1.9108,-1.9108,-1.9108,-1.9108,-1.9108,-1.9108,-1.9108,-1.9131,-1.9131,-1.9616,-2.0291,-2.0933,-2.1616,-2.2267,-2.2944,-2.3065,-2.3108,-2.3108,-2.3108,-2.3108,-2.3108,-2.3108,-2.3108,-2.3108,-2.3108,-2.3108,-2.3108,-2.3108,-2.3108,-2.3108,-2.3108,-2.3108,-2.3108,-2.3108,-2.3108,-2.3108,-2.3108,-2.3108,-2.3108,-2.3108,-2.3108,-2.3108,-2.3108,-2.3108,-2.3108,-2.3108,-2.3108,-2.3108,-2.3108,-2.3108,0.0,0.0,-1.5235,-1.4304,0.0,0.0,0.0,0.0,0.0,0.0,0.0,0.0,0.0,0.0,0.0,0.0,0.0,0.0,0.0,0.0,0.0,0.0,0.0,0.0,0.0,0.0,0.0,0.0,-1.1944,0.0,0.0,-1.4894,-1.537,-1.568,-1.6291,-1.6717,-1.7017,-1.7172,-1.7399,-1.7699,-1.7854,-1.7957,-1.7926,-1.8112,-1.8185,-1.8185,-1.8185,-1.835,-1.8642,-1.8642,-1.8828,-1.9108,-1.9108,-1.9108,-1.9108,-1.9108,-1.9108,-1.9108,-1.9108,-1.9108,-1.9108,-1.9108,-1.9108,-1.9108,-1.9108,-1.9108,-1.9108,-1.9108,-1.9429,-1.9748,-1.9748,-2.0258,-2.0805,-2.104,-2.1616,-2.2051,-2.1815,-2.2476,-2.2975,-2.2525,-2.2811,-2.3108,-2.3108,-2.3108,-2.3108,-2.3108,-2.3108,-2.3108,-2.3108,-2.3108,-2.3108,-2.3108,-2.3108,-2.3108,-2.3108,-2.3108,-2.3108,-2.3108,-2.3108,-2.3108,-2.3108,-2.3108,-2.3108,-2.3108,-2.3108,-2.3108,-2.3108,-2.3108,-2.3108,-2.3108,-2.3108,-2.3108,-1.534,-1.5463,0.0,-1.4738,-1.4552,0.0,-1.3972,0.0,0.0,0.0,0.0,0.0,0.0,0.0,0.0,0.0,0.0,0.0,0.0,0.0,0.0,0.0,0.0,0.0,0.0,0.0,-1.0526,-1.1934,0.0,0.0,0.0,0.0,-1.5132,-1.5432,-1.6081,-1.6519,-1.6769,-1.6779,-1.6924,-1.7253,-1.7378,-1.7461,-1.7461,-1.7626,-1.7699,-1.7699,-1.7699,-1.7864,-1.8143,-1.8143,-1.8413,-1.8859,-1.8859,-1.8953,-1.9108,-1.9108,-1.9108,-1.9108,-1.9108,-1.9108,-1.9108,-1.9108,-1.9108,-1.9108,-1.9108,-1.9108,-1.9108,-1.9108,-1.9429,-1.9748,-1.9748,-2.0063,-2.0452,-2.0677,-2.108,-2.1385,-2.1459,-2.2125,-2.2689,-2.2494,-2.2811,-2.3108,-2.3108,-2.3108,-2.3078,-2.3047,-2.3017,-2.3017,-2.2969,-2.2969,-2.2969,-2.2969,-2.2969,-2.3,-2.3017,-2.3017,-2.3047,-2.3108,-2.3108,-2.3108,-2.3108,-2.3108,-2.3108,-2.3108,-2.3108,-2.3108,-2.3108,-2.3108,-2.3108,-2.3108,-2.3108,-2.3108]}]]